[[{"header":{"parameterUnit":"m.s-1","parameterCategory":1,"la1":30.6,"la2":28.766,"lo1":-90.7593,"lo2":-88.6598,"dy":0.0162,"dx":0.0183,"nx":116,"ny":114,"refTime":"2023-08-14T12:00:00:Z","depth":0,"parameterNumber":2,"parameterNumberName":"U-component_of_WINDS"},"data":[0.0,0.0,0.0,0.0,0.0,0.0,0.0,0.0,0.0,0.0,0.0,0.0,0.0,0.0,0.0,0.0,0.0,0.0,0.0,0.0,0.0,0.0,0.0,0.0,0.0,0.0,0.0,0.0,0.0,0.0,0.0,0.0,0.0,0.0,0.0,0.0,0.0,0.0,0.0,0.0,0.0,0.0,0.0,0.0,0.0,0.0,0.0,0.0,0.0,0.0,0.0,0.0,0.0,0.0,0.0,0.0,0.0,0.0,0.0,0.0,0.0,0.0,0.0,0.0,0.0,0.0,0.0,0.0,0.0,0.0,0.0,0.0,0.0,0.0,0.0,0.0,0.0,0.0,0.0,0.0,0.0,0.0,0.0,0.0,0.0,0.0,0.0,0.0,0.0,0.0,0.0,0.0,0.0,0.0,0.0,0.0,0.0,0.0,0.0,0.0,0.0,0.0,0.0,0.0,0.0,0.0,0.0,0.0,0.0,0.0,0.0,0.0,0.0,0.0,0.0,0.0,0.0,0.0,0.0,0.0,0.0,0.0,0.0,0.0,0.0,0.0,0.0,0.0,0.0,0.0,0.0,0.0,0.0,0.0,0.0,0.0,0.0,0.0,0.0,0.0,0.0,0.0,0.0,0.0,0.0,0.0,0.0,0.0,0.0,0.0,0.0,0.0,0.0,0.0,0.0,0.0,0.0,0.0,0.0,0.0,0.0,0.0,0.0,0.0,0.0,0.0,0.0,0.0,0.0,0.0,0.0,0.0,0.0,0.0,0.0,0.0,0.0,0.0,0.0,0.0,0.0,0.0,0.0,0.0,0.0,0.0,0.0,0.0,0.0,0.0,0.0,0.0,0.0,0.0,0.0,0.0,0.0,0.0,0.0,0.0,0.0,0.0,0.0,0.0,0.0,0.0,0.0,0.0,0.0,0.0,0.0,0.0,0.0,0.0,0.0,0.0,0.0,0.0,0.0,0.0,0.0,0.0,0.0,0.0,0.0,0.0,0.0,0.0,0.0,0.0,0.0,0.0,0.0,0.0,0.0,0.0,0.0,0.0,0.0,0.0,0.0,0.0,0.0,0.0,0.0,0.0,0.0,0.0,0.0,0.0,0.0,0.0,0.0,0.0,0.0,0.0,0.0,0.0,0.0,0.0,0.0,0.0,0.0,0.0,0.0,0.0,0.0,0.0,0.0,0.0,0.0,0.0,0.0,0.0,0.0,0.0,0.0,0.0,0.0,0.0,0.0,0.0,0.0,0.0,0.0,0.0,0.0,0.0,0.0,0.0,0.0,0.0,0.0,0.0,0.0,0.0,0.0,0.0,0.0,0.0,0.0,0.0,0.0,0.0,0.0,0.0,0.0,0.0,0.0,0.0,0.0,0.0,0.0,0.0,0.0,0.0,0.0,0.0,0.0,0.0,0.0,0.0,0.0,0.0,0.0,0.0,0.0,0.0,0.0,0.0,0.0,0.0,0.0,0.0,0.0,0.0,0.0,0.0,0.0,0.0,0.0,0.0,0.0,0.0,0.0,0.0,0.0,0.0,0.0,0.0,0.0,0.0,0.0,0.0,0.0,0.0,0.0,0.0,0.0,0.0,0.0,0.0,0.0,0.0,0.0,0.0,0.0,0.0,0.0,0.0,0.0,0.0,0.0,0.0,0.0,0.0,0.0,0.0,0.0,0.0,0.0,0.0,0.0,0.0,0.0,0.0,0.0,0.0,0.0,0.0,0.0,0.0,0.0,0.0,0.0,0.0,0.0,0.0,0.0,0.0,0.0,0.0,0.0,0.0,0.0,0.0,0.0,0.0,0.0,0.0,0.0,0.0,0.0,0.0,0.0,0.0,0.0,0.0,0.0,0.0,0.0,0.0,0.0,0.0,0.0,0.0,0.0,0.0,0.0,0.0,0.0,0.0,0.0,0.0,0.0,0.0,0.0,0.0,0.0,0.0,0.0,0.0,0.0,0.0,0.0,0.0,0.0,0.0,0.0,0.0,0.0,0.0,0.0,0.0,0.0,0.0,0.0,0.0,0.0,0.0,0.0,0.0,0.0,0.0,0.0,0.0,0.0,0.0,0.0,0.0,0.0,0.0,0.0,0.0,0.0,0.0,0.0,0.0,0.0,0.0,0.0,0.0,0.0,0.0,0.0,0.0,0.0,0.0,0.0,0.0,0.0,0.0,0.0,0.0,0.0,0.0,0.0,0.0,0.0,0.0,0.0,0.0,0.0,0.0,0.0,0.0,0.0,0.0,0.0,0.0,0.0,0.0,0.0,0.0,0.0,0.0,0.0,0.0,0.0,0.0,0.0,0.0,0.0,0.0,0.0,0.0,0.0,0.0,0.0,0.0,0.0,0.0,0.0,0.0,0.0,0.0,0.0,0.0,0.0,0.0,0.0,0.0,0.0,0.0,0.0,0.0,0.0,0.0,0.0,0.0,0.0,0.0,0.0,0.0,0.0,0.0,0.0,0.0,0.0,0.0,0.0,0.0,0.0,0.0,0.0,0.0,0.0,0.0,0.0,0.0,0.0,0.0,0.0,0.0,0.0,0.0,0.0,0.0,0.0,0.0,0.0,0.0,0.0,0.0,0.0,0.0,0.0,0.0,0.0,0.0,0.0,0.0,0.0,0.0,0.0,0.0,0.0,0.0,0.0,0.0,0.0,0.0,0.0,0.0,0.0,0.0,0.0,0.0,0.0,0.0,0.0,0.0,0.0,0.0,0.0,0.0,0.0,0.0,0.0,0.0,0.0,0.0,0.0,0.0,0.0,0.0,0.0,0.0,0.0,0.0,0.0,0.0,0.0,0.0,0.0,0.0,0.0,0.0,0.0,0.0,0.0,0.0,0.0,0.0,0.0,0.0,0.0,0.0,0.0,0.0,0.0,0.0,0.0,0.0,0.0,0.0,0.0,0.0,0.0,0.0,0.0,0.0,0.0,0.0,0.0,0.0,0.0,0.0,0.0,0.0,0.0,0.0,0.0,0.0,0.0,0.0,0.0,0.0,0.0,0.0,0.0,0.0,0.0,0.0,0.0,0.0,0.0,0.0,0.0,0.0,0.0,0.0,0.0,0.0,0.0,0.0,0.0,0.0,0.0,0.0,0.0,0.0,0.0,0.0,0.0,0.0,0.0,0.0,0.0,0.0,0.0,0.0,0.0,0.0,0.0,0.0,0.0,0.0,0.0,0.0,0.0,0.0,0.0,0.0,0.0,0.0,0.0,0.0,0.0,0.0,0.0,0.0,0.0,0.0,0.0,0.0,0.0,0.0,0.0,0.0,0.0,0.0,0.0,0.0,0.0,0.0,0.0,0.0,0.0,0.0,0.0,0.0,0.0,0.0,0.0,0.0,0.0,0.0,0.0,0.0,0.0,0.0,0.0,0.0,0.0,0.0,0.0,0.0,0.0,0.0,0.0,0.0,0.0,0.0,0.0,0.0,0.0,0.0,0.0,0.0,0.0,0.0,0.0,0.0,0.0,0.0,0.0,0.0,0.0,0.0,0.0,0.0,0.0,0.0,0.0,0.0,0.0,0.0,0.0,0.0,0.0,0.0,0.0,0.0,0.0,0.0,0.0,0.0,0.0,0.0,0.0,0.0,0.0,0.0,0.0,0.0,0.0,0.0,0.0,0.0,0.0,0.0,0.0,0.0,0.0,0.0,0.0,0.0,0.0,0.0,0.0,0.0,0.0,0.0,0.0,0.0,0.0,0.0,0.0,0.0,0.0,0.0,0.0,0.0,0.0,0.0,0.0,0.0,0.0,0.0,0.0,0.0,0.0,0.0,0.0,0.0,0.0,0.0,0.0,0.0,0.0,0.0,0.0,0.0,0.0,0.0,0.0,0.0,0.0,0.0,0.0,0.0,0.0,0.0,0.0,0.0,0.0,0.0,0.0,0.0,0.0,0.0,0.0,0.0,0.0,0.0,0.0,0.0,0.0,0.0,0.0,0.0,0.0,0.0,0.0,0.0,0.0,0.0,0.0,0.0,0.0,0.0,0.0,0.0,0.0,0.0,0.0,0.0,0.0,0.0,0.0,0.0,0.0,0.0,0.0,0.0,0.0,0.0,0.0,0.0,0.0,0.0,0.0,0.0,0.0,0.0,0.0,0.0,0.0,0.0,0.0,0.0,0.0,0.0,0.0,0.0,0.0,0.0,0.0,0.0,0.0,0.0,0.0,0.0,0.0,0.0,0.0,0.0,0.0,0.0,0.0,0.0,0.0,0.0,0.0,0.0,0.0,0.0,0.0,0.0,0.0,0.0,0.0,0.0,0.0,0.0,0.0,0.0,0.0,0.0,0.0,0.0,0.0,0.0,0.0,0.0,0.0,0.0,0.0,0.0,0.0,0.0,0.0,0.0,0.0,0.0,0.0,0.0,0.0,0.0,0.0,0.0,0.0,0.0,0.0,0.0,0.0,0.0,0.0,0.0,0.0,0.0,0.0,0.0,0.0,0.0,0.0,0.0,0.0,0.0,0.0,0.0,0.0,0.0,0.0,0.0,0.0,0.0,0.0,0.0,0.0,0.0,0.0,0.0,0.0,0.0,0.0,0.0,0.0,0.0,0.0,0.0,0.0,0.0,0.0,0.0,0.0,0.0,0.0,0.0,0.0,0.0,0.0,0.0,0.0,0.0,0.0,0.0,0.0,0.0,0.0,0.0,0.0,0.0,0.0,0.0,0.0,0.0,0.0,0.0,0.0,0.0,0.0,0.0,0.0,0.0,0.0,0.0,0.0,0.0,0.0,0.0,0.0,0.0,0.0,0.0,0.0,0.0,0.0,0.0,0.0,0.0,0.0,0.0,0.0,0.0,0.0,0.0,0.0,0.0,0.0,0.0,0.0,0.0,0.0,0.0,0.0,0.0,0.0,0.0,0.0,0.0,0.0,0.0,0.0,0.0,0.0,0.0,0.0,0.0,0.0,0.0,0.0,0.0,0.0,0.0,0.0,0.0,0.0,0.0,0.0,0.0,0.0,0.0,0.0,0.0,0.0,0.0,0.0,0.0,0.0,0.0,0.0,0.0,0.0,0.0,0.0,0.0,0.0,0.0,0.0,0.0,0.0,0.0,0.0,0.0,0.0,0.0,0.0,0.0,0.0,0.0,0.0,0.0,0.0,0.0,0.0,0.0,0.0,0.0,0.0,0.0,0.0,0.0,0.0,0.0,0.0,0.0,0.0,0.0,0.0,0.0,0.0,0.0,0.0,0.0,0.0,0.0,0.0,0.0,0.0,0.0,0.0,0.0,0.0,0.0,0.0,0.0,0.0,0.0,0.0,0.0,0.0,0.0,0.0,0.0,0.0,0.0,0.0,0.0,0.0,0.0,0.0,0.0,0.0,0.0,0.0,0.0,0.0,0.0,0.0,0.0,0.0,0.0,0.0,0.0,0.0,0.0,0.0,0.0,0.0,0.0,0.0,0.0,0.0,0.0,0.0,0.0,0.0,0.0,0.0,0.0,0.0,0.0,0.0,0.0,0.0,0.0,0.0,0.0,0.0,0.0,0.0,0.0,0.0,0.0,0.0,0.0,0.0,0.0,0.0,0.0,0.0,0.0,0.0,0.0,0.0,0.0,0.0,0.0,0.0,0.0,0.0,0.0,0.0,0.0,0.0,0.0,0.0,0.0,0.0,0.0,0.0,0.0,0.0,0.0,0.0,0.0,0.0,0.0,0.0,0.0,0.0,0.0,0.0,0.0,0.0,0.0,0.0,0.0,0.0,0.0,0.0,0.0,0.0,0.0,0.0,0.0,0.0,0.0,0.0,0.0,0.0,0.0,0.0,0.0,0.0,0.0,0.0,0.0,0.0,0.0,0.0,0.0,0.0,0.0,0.0,0.0,0.0,0.0,0.0,0.0,0.0,0.0,0.0,0.0,0.0,0.0,0.0,0.0,0.0,0.0,0.0,0.0,0.0,0.0,0.0,0.0,0.0,0.0,0.0,0.0,0.0,0.0,0.0,0.0,0.0,0.0,0.0,0.0,0.0,0.0,0.0,0.0,0.0,0.0,0.0,0.0,0.0,0.0,0.0,0.0,0.0,0.0,0.0,0.0,0.0,0.0,0.0,0.0,0.0,0.0,0.0,0.0,0.0,0.0,0.0,0.0,0.0,0.0,3.0411,3.0417,0.0,0.0,0.0,0.0,0.0,0.0,0.0,0.0,0.0,0.0,0.0,0.0,0.0,0.0,0.0,0.0,0.0,0.0,0.0,0.0,0.0,0.0,0.0,0.0,0.0,0.0,0.0,0.0,0.0,0.0,0.0,0.0,0.0,0.0,0.0,0.0,0.0,0.0,0.0,0.0,0.0,0.0,0.0,0.0,0.0,0.0,0.0,0.0,0.0,0.0,0.0,0.0,0.0,0.0,0.0,0.0,0.0,0.0,0.0,0.0,0.0,0.0,0.0,0.0,0.0,0.0,0.0,0.0,0.0,0.0,0.0,0.0,0.0,0.0,0.0,0.0,0.0,0.0,0.0,0.0,0.0,0.0,0.0,0.0,0.0,0.0,0.0,0.0,0.0,0.0,0.0,0.0,0.0,0.0,0.0,0.0,0.0,0.0,0.0,0.0,0.0,0.0,0.0,0.0,0.0,0.0,0.0,0.0,0.0,0.0,0.0,0.0,0.0,0.0,3.1248,3.0772,0.0,0.0,0.0,0.0,0.0,0.0,0.0,0.0,0.0,0.0,0.0,0.0,0.0,0.0,0.0,0.0,0.0,0.0,0.0,0.0,0.0,0.0,0.0,0.0,0.0,0.0,0.0,0.0,0.0,0.0,0.0,0.0,0.0,0.0,0.0,0.0,0.0,0.0,0.0,0.0,0.0,0.0,0.0,0.0,0.0,0.0,0.0,0.0,0.0,0.0,0.0,0.0,0.0,0.0,0.0,0.0,0.0,0.0,0.0,0.0,0.0,0.0,0.0,0.0,0.0,0.0,0.0,0.0,0.0,0.0,0.0,0.0,0.0,0.0,0.0,0.0,0.0,0.0,0.0,0.0,0.0,0.0,0.0,0.0,0.0,0.0,0.0,0.0,0.0,0.0,0.0,0.0,0.0,0.0,0.0,0.0,0.0,0.0,0.0,0.0,0.0,0.0,0.0,0.0,0.0,0.0,0.0,0.0,3.2057,3.2426,3.3225,3.3132,3.3096,3.3035,3.2023,3.1268,3.0791,3.1514,0.0,0.0,0.0,0.0,0.0,0.0,0.0,0.0,0.0,0.0,0.0,0.0,0.0,0.0,0.0,0.0,0.0,0.0,0.0,0.0,0.0,0.0,0.0,0.0,0.0,0.0,0.0,0.0,0.0,0.0,0.0,0.0,0.0,0.0,0.0,0.0,0.0,0.0,2.9626,2.9455,2.9363,2.9406,0.0,0.0,0.0,0.0,0.0,0.0,0.0,0.0,0.0,0.0,0.0,0.0,0.0,0.0,0.0,0.0,0.0,0.0,0.0,0.0,0.0,0.0,0.0,0.0,0.0,0.0,0.0,0.0,0.0,0.0,0.0,0.0,0.0,0.0,0.0,0.0,0.0,0.0,0.0,0.0,0.0,0.0,0.0,0.0,3.0613,3.0618,0.0,0.0,0.0,0.0,0.0,0.0,0.0,0.0,0.0,0.0,0.0,0.0,0.0,3.2235,3.2786,3.3045,3.318,3.32,3.3173,3.3258,3.3357,3.2599,3.2253,3.2241,3.2039,0.0,3.171,3.1845,0.0,0.0,0.0,0.0,0.0,0.0,0.0,0.0,0.0,0.0,0.0,0.0,0.0,0.0,0.0,0.0,0.0,0.0,0.0,0.0,0.0,0.0,0.0,0.0,0.0,0.0,0.0,0.0,0.0,0.0,0.0,0.0,0.0,0.0,0.0,0.0,0.0,0.0,2.9715,2.9434,2.9457,2.9755,2.9786,2.9844,2.9952,3.0707,0.0,0.0,0.0,0.0,0.0,0.0,0.0,0.0,0.0,0.0,0.0,0.0,0.0,0.0,0.0,0.0,0.0,0.0,0.0,0.0,0.0,0.0,0.0,0.0,0.0,0.0,0.0,0.0,0.0,0.0,0.0,0.0,0.0,0.0,0.0,0.0,0.0,0.0,0.0,3.111,3.1212,3.0704,2.9908,2.9219,0.0,0.0,0.0,0.0,0.0,0.0,0.0,0.0,0.0,3.1937,3.289,3.2886,3.1796,3.2828,3.3088,3.2565,3.2597,3.2881,3.3398,3.3001,3.2826,3.2838,3.281,3.2775,3.2732,3.2705,3.2416,3.1932,0.0,0.0,0.0,0.0,3.0381,3.0783,0.0,0.0,0.0,0.0,0.0,0.0,0.0,0.0,0.0,0.0,0.0,0.0,0.0,0.0,0.0,3.082,0.0,0.0,0.0,0.0,0.0,0.0,0.0,0.0,0.0,0.0,0.0,0.0,0.0,0.0,0.0,0.0,2.9403,2.9719,2.9408,2.9296,2.9343,3.0291,3.012,0.0,0.0,0.0,0.0,0.0,0.0,0.0,0.0,0.0,0.0,0.0,0.0,0.0,0.0,0.0,0.0,0.0,0.0,0.0,0.0,0.0,0.0,0.0,0.0,0.0,0.0,0.0,0.0,0.0,0.0,0.0,0.0,0.0,0.0,0.0,0.0,0.0,0.0,3.1216,3.1287,3.0882,3.0004,2.911,0.0,0.0,0.0,0.0,0.0,0.0,3.0892,3.203,3.2606,3.2444,3.3696,3.3536,3.1819,3.294,3.3153,3.2459,3.2104,3.2313,3.2971,3.2805,3.271,3.2712,3.2721,3.2853,3.3064,3.3012,3.3083,3.3147,3.2242,3.2366,3.2971,3.2364,3.2505,3.3037,0.0,0.0,0.0,0.0,0.0,0.0,0.0,0.0,0.0,0.0,0.0,0.0,0.0,0.0,3.0605,3.0605,3.0723,3.0781,0.0,0.0,0.0,0.0,0.0,0.0,0.0,0.0,0.0,0.0,0.0,0.0,0.0,0.0,0.0,0.0,0.0,0.0,3.144,3.1253,3.0852,3.0281,0.0,0.0,0.0,0.0,0.0,0.0,0.0,0.0,0.0,0.0,0.0,0.0,0.0,0.0,0.0,0.0,0.0,0.0,0.0,0.0,0.0,0.0,0.0,0.0,0.0,0.0,0.0,0.0,0.0,0.0,0.0,0.0,0.0,0.0,0.0,0.0,0.0,0.0,0.0,3.1085,3.024,0.0,0.0,0.0,0.0,2.9814,3.0057,3.0913,3.2492,3.1943,3.2283,3.385,3.3972,3.4351,3.5047,3.4405,3.4038,3.3974,3.252,3.1844,3.1853,3.1156,3.0832,3.0841,3.0894,3.1406,3.2168,3.2167,3.2602,3.3195,3.2279,3.2424,3.3179,3.3062,3.306,3.309,0.0,0.0,0.0,0.0,0.0,0.0,0.0,0.0,0.0,0.0,0.0,0.0,0.0,3.0339,3.036,3.0399,3.0541,3.036,2.9777,0.0,0.0,0.0,0.0,0.0,0.0,0.0,0.0,0.0,0.0,0.0,0.0,0.0,0.0,0.0,0.0,0.0,0.0,0.0,0.0,0.0,0.0,0.0,0.0,0.0,0.0,0.0,0.0,0.0,0.0,0.0,0.0,0.0,0.0,0.0,0.0,0.0,0.0,0.0,0.0,0.0,0.0,0.0,0.0,0.0,0.0,0.0,0.0,0.0,0.0,0.0,0.0,0.0,0.0,0.0,0.0,0.0,0.0,0.0,0.0,3.0972,3.0829,0.0,2.8221,2.8977,2.9392,2.8938,3.0146,3.1384,3.2518,3.2637,3.2693,3.2767,3.3277,3.2934,3.1644,3.1984,3.1913,3.1401,3.0931,3.0725,3.0752,3.051,3.0451,3.0564,3.0594,3.1149,3.2006,3.1482,3.2089,3.333,3.2996,3.3005,3.3198,3.3172,3.3151,3.3154,0.0,0.0,0.0,0.0,0.0,0.0,0.0,0.0,0.0,0.0,0.0,2.9954,3.0085,3.0144,3.0183,3.0222,3.0087,2.9725,2.9072,0.0,0.0,0.0,0.0,0.0,0.0,0.0,0.0,0.0,0.0,0.0,0.0,0.0,0.0,0.0,0.0,0.0,0.0,0.0,0.0,0.0,0.0,0.0,2.9252,0.0,0.0,0.0,0.0,0.0,0.0,0.0,0.0,0.0,0.0,0.0,0.0,0.0,0.0,0.0,0.0,0.0,0.0,0.0,0.0,0.0,0.0,0.0,0.0,0.0,0.0,0.0,0.0,0.0,0.0,0.0,0.0,0.0,0.0,3.121,3.1343,3.1043,3.0956,3.0186,2.832,2.9101,2.953,2.9017,3.0017,3.1132,3.2206,3.208,3.1915,3.1773,3.2281,3.1815,3.0302,3.0714,3.0655,3.0146,3.0079,3.0066,3.0103,3.0138,3.0247,3.037,3.0402,3.0789,3.1423,3.0903,3.1404,3.2513,3.2831,3.308,3.3255,3.3232,3.3231,3.3195,0.0,0.0,0.0,0.0,0.0,0.0,0.0,0.0,0.0,0.0,0.0,2.987,2.9882,2.9988,3.0077,3.0077,2.9401,2.8888,2.8685,2.8075,0.0,0.0,0.0,0.0,0.0,0.0,0.0,0.0,0.0,0.0,0.0,0.0,0.0,0.0,0.0,0.0,0.0,0.0,0.0,0.0,0.0,0.0,2.8365,0.0,0.0,0.0,0.0,0.0,0.0,0.0,0.0,0.0,0.0,0.0,0.0,0.0,0.0,0.0,0.0,0.0,0.0,0.0,0.0,0.0,0.0,0.0,0.0,0.0,0.0,0.0,0.0,0.0,0.0,0.0,0.0,0.0,3.0994,3.0539,3.053,3.1253,3.055,2.9653,2.8798,2.969,3.0315,3.0213,2.9679,3.0052,3.1636,3.0232,2.989,3.1013,3.1031,3.1194,3.1492,3.0854,3.0549,3.053,3.0093,2.9872,2.9888,3.0022,3.0075,3.0109,3.0164,3.0279,3.0395,3.0453,3.0564,3.0774,3.1693,3.2565,3.3317,3.3239,3.3223,3.3103,0.0,0.0,0.0,0.0,0.0,0.0,0.0,0.0,0.0,0.0,2.9153,2.9212,2.9308,2.9345,2.9364,2.9364,2.8783,2.8382,2.827,0.0,0.0,0.0,0.0,0.0,0.0,0.0,0.0,0.0,0.0,0.0,0.0,0.0,0.0,0.0,0.0,0.0,0.0,0.0,0.0,0.0,0.0,0.0,2.8166,0.0,0.0,0.0,0.0,0.0,0.0,0.0,0.0,0.0,0.0,0.0,0.0,0.0,0.0,0.0,0.0,0.0,0.0,0.0,0.0,0.0,0.0,0.0,0.0,0.0,0.0,0.0,0.0,0.0,0.0,0.0,2.9644,3.0292,3.0959,3.1128,3.0838,3.0019,2.9691,2.8783,2.6944,2.8078,2.8691,2.808,2.8384,2.9068,3.0097,2.944,2.9195,2.9496,2.9679,2.9548,2.9052,2.9289,2.9361,2.9361,2.9344,2.9397,2.9532,2.957,2.9734,2.9969,2.9962,3.0061,3.019,3.0251,3.0365,3.0517,3.0925,3.1226,3.1434,3.1415,3.1401,3.1386,0.0,0.0,0.0,0.0,0.0,0.0,0.0,0.0,0.0,0.0,2.8755,2.8725,2.8544,2.8593,2.8501,2.8181,2.7803,2.7333,2.6803,0.0,0.0,0.0,0.0,0.0,0.0,0.0,0.0,0.0,0.0,0.0,0.0,0.0,0.0,0.0,0.0,0.0,0.0,0.0,0.0,0.0,0.0,0.0,2.8371,2.8674,2.9424,3.0246,3.0151,3.0677,3.1306,3.0768,0.0,0.0,0.0,0.0,0.0,0.0,0.0,0.0,0.0,0.0,0.0,0.0,0.0,0.0,0.0,0.0,0.0,0.0,0.0,0.0,0.0,0.0,0.0,0.0,2.9821,3.0287,3.0514,3.0712,3.037,2.9286,2.8566,2.7662,2.6377,2.6824,2.7104,2.6972,2.7224,2.7725,2.8489,2.8199,2.806,2.8185,2.847,2.8472,2.8102,2.8633,2.8905,2.8887,2.9034,2.9169,2.9272,2.9272,2.9209,2.9119,2.9173,2.9066,2.8916,2.9379,2.9685,2.9922,0.0,0.0,0.0,0.0,3.0691,3.0711,0.0,0.0,0.0,0.0,0.0,0.0,0.0,0.0,0.0,0.0,0.0,2.8391,2.7702,2.7787,2.7594,2.6795,2.6631,2.6207,0.0,0.0,0.0,0.0,0.0,0.0,0.0,0.0,0.0,0.0,0.0,0.0,0.0,0.0,0.0,0.0,0.0,0.0,0.0,0.0,0.0,0.0,0.0,0.0,2.8967,2.9619,3.0011,3.0275,3.1086,3.1967,3.2669,3.2094,0.0,0.0,0.0,0.0,0.0,0.0,0.0,0.0,0.0,0.0,0.0,0.0,0.0,0.0,0.0,0.0,0.0,0.0,0.0,0.0,0.0,0.0,0.0,0.0,3.0245,3.0483,2.9765,2.9536,2.9162,2.8537,2.7284,2.6421,2.6357,2.5799,2.5686,2.637,2.6278,2.6468,2.7048,2.6907,0.0,0.0,0.0,2.7806,2.8172,2.8594,2.8815,2.8881,2.8989,2.906,2.9082,2.9082,2.8676,2.8017,2.8143,2.7811,2.725,2.8156,2.8741,2.9148,3.0124,3.0578,3.0694,3.0694,3.0636,3.0559,0.0,0.0,0.0,0.0,0.0,0.0,0.0,0.0,0.0,2.8063,2.8192,2.8001,2.723,2.7266,2.7037,2.6307,2.6095,2.6408,0.0,0.0,0.0,0.0,0.0,0.0,0.0,0.0,0.0,0.0,0.0,0.0,0.0,0.0,0.0,0.0,0.0,0.0,0.0,0.0,0.0,0.0,0.0,0.0,3.0238,3.0392,3.1042,3.2022,3.2845,3.3618,3.4345,3.4866,3.5414,3.5955,3.6132,0.0,0.0,0.0,0.0,0.0,0.0,0.0,0.0,0.0,0.0,0.0,0.0,0.0,0.0,0.0,0.0,0.0,0.0,0.0,0.0,2.9275,2.9506,2.9469,2.8819,2.7781,2.6933,2.656,2.5953,2.5341,2.4782,2.4902,2.5068,2.5211,2.6308,2.6783,2.6336,2.7125,2.7604,2.7674,2.7444,2.7739,2.8639,2.8396,2.8404,2.8662,2.8669,0.0,2.8934,2.8934,2.8603,2.8017,2.8143,2.7774,2.7045,2.7372,2.7988,2.8898,3.0111,3.0598,3.0617,3.0617,3.0172,2.9641,0.0,0.0,0.0,0.0,0.0,0.0,0.0,0.0,0.0,0.0,2.772,2.7343,2.6294,2.6254,2.5828,2.4711,2.4853,0.0,0.0,0.0,0.0,0.0,0.0,0.0,0.0,0.0,0.0,0.0,0.0,0.0,0.0,0.0,0.0,0.0,0.0,0.0,0.0,0.0,0.0,0.0,0.0,0.0,3.236,3.1983,3.2125,3.2618,3.3406,3.4376,3.533,3.5795,3.6249,3.673,3.7386,3.7051,3.6209,0.0,0.0,0.0,0.0,0.0,0.0,0.0,0.0,0.0,0.0,0.0,0.0,0.0,0.0,2.9485,2.9681,0.0,2.8996,2.8914,2.8442,2.7921,2.7632,2.6935,2.6306,2.5857,2.5503,2.5093,2.4526,2.5203,2.5743,2.6002,2.6888,2.7383,2.7267,2.8,2.8399,2.8399,2.798,2.8097,2.8776,2.8326,2.8255,2.8587,2.8587,2.8662,2.8761,2.8761,2.8153,2.7116,2.7267,2.6688,2.5727,2.6843,2.8099,2.9368,3.0081,3.0352,3.0352,3.0352,3.0063,2.9744,0.0,0.0,0.0,0.0,0.0,0.0,0.0,0.0,0.0,0.0,0.0,2.6814,2.5657,2.5417,2.4817,0.0,0.0,0.0,0.0,0.0,0.0,0.0,0.0,0.0,0.0,0.0,0.0,0.0,0.0,0.0,0.0,0.0,0.0,0.0,0.0,0.0,0.0,0.0,0.0,0.0,0.0,0.0,3.4308,3.3759,3.3315,3.3072,3.3894,3.4933,3.597,3.6235,3.6498,3.6858,3.7644,3.7347,3.6586,3.5799,3.5198,0.0,0.0,0.0,0.0,0.0,0.0,0.0,0.0,3.1066,3.0501,3.1441,3.1021,3.0286,2.9679,2.9398,2.9057,2.855,2.7581,2.677,2.6602,2.6379,2.615,2.5699,2.5546,2.5328,2.4972,2.5818,2.6572,2.7063,2.7612,2.8054,2.8379,2.8908,2.9127,2.9011,2.8476,2.8349,2.8701,2.824,2.8174,2.8492,2.8562,2.8677,2.883,2.8496,2.7671,2.6421,2.6166,2.5566,2.4949,2.6615,2.8231,2.9628,2.9905,3.0022,3.0022,3.008,2.9994,2.9865,0.0,0.0,0.0,0.0,0.0,0.0,0.0,0.0,0.0,0.0,0.0,0.0,0.0,0.0,0.0,0.0,0.0,0.0,0.0,0.0,0.0,0.0,0.0,0.0,0.0,0.0,0.0,0.0,0.0,0.0,0.0,0.0,0.0,0.0,0.0,0.0,0.0,0.0,0.0,0.0,0.0,0.0,3.4932,3.5076,3.4816,3.4466,3.5296,3.5931,3.6531,3.7245,3.77,3.7938,3.8098,3.7575,3.6697,3.5706,0.0,3.3527,3.2504,3.2483,3.2799,3.3013,3.3167,3.3499,0.0,3.3594,3.3046,3.3963,3.2692,3.1471,3.1649,3.082,2.9572,2.8139,2.7639,2.7158,2.6127,2.5762,2.5664,2.576,2.6042,2.6181,2.6212,2.6334,2.6572,2.7063,2.8088,2.86,2.8412,2.9412,2.9685,2.9045,2.8266,2.8015,2.8349,2.7949,2.7869,2.8156,2.8466,2.8974,2.9608,2.8196,2.7453,2.7164,2.5218,2.5205,2.6619,2.6934,2.7641,2.8649,2.9437,2.9737,2.9773,3.0007,2.9612,2.905,0.0,0.0,0.0,0.0,0.0,0.0,0.0,0.0,0.0,0.0,0.0,0.0,0.0,0.0,0.0,0.0,0.0,0.0,0.0,0.0,0.0,0.0,0.0,0.0,0.0,0.0,0.0,0.0,0.0,0.0,0.0,0.0,0.0,0.0,0.0,0.0,0.0,0.0,0.0,0.0,0.0,0.0,3.531,3.5557,3.5182,3.4638,3.5361,3.5832,0.0,0.0,3.6947,3.6753,3.778,3.6923,3.5572,3.5624,3.4698,0.0,3.2593,3.2719,3.3035,3.2884,3.3534,3.4295,3.4518,3.3925,3.347,3.402,3.2764,3.1419,3.0925,2.9769,2.8498,2.7157,2.6376,2.5883,2.5743,2.6021,2.6482,2.7284,2.7819,2.7716,2.6623,2.7163,2.7859,2.8618,2.9108,2.9566,2.999,3.0082,2.9973,2.9651,2.845,2.7947,2.8301,2.7702,2.7636,2.8102,2.8255,2.8603,2.9083,2.8413,2.808,2.7978,2.5765,2.6023,2.8043,2.7688,2.8029,2.8851,2.9204,2.9334,2.9395,2.9753,2.9628,2.9366,0.0,0.0,0.0,0.0,0.0,0.0,0.0,0.0,0.0,0.0,0.0,0.0,0.0,0.0,0.0,0.0,0.0,0.0,0.0,0.0,0.0,0.0,0.0,0.0,0.0,0.0,0.0,0.0,0.0,0.0,0.0,0.0,0.0,0.0,0.0,0.0,0.0,0.0,0.0,0.0,0.0,0.0,3.5576,3.5725,3.5226,3.4539,3.5028,3.5115,0.0,0.0,3.531,3.4925,3.6018,3.5239,3.4023,3.4696,3.416,3.3169,3.238,3.258,3.291,3.2621,3.3508,3.4427,3.43,3.3918,3.3603,3.3444,3.2558,3.1442,3.0418,2.9461,2.8436,2.7283,2.6576,2.6159,2.6371,2.7054,2.7815,2.8727,2.9301,2.9138,2.7769,2.8409,2.9203,2.9996,3.0038,3.0269,3.0864,3.0395,2.9922,2.9499,2.8364,2.781,2.7859,2.7425,2.7474,2.7992,2.8075,2.8407,2.8938,2.8938,2.8938,2.883,2.6991,2.7483,2.949,2.8544,2.8669,2.9418,2.9178,2.9233,2.9459,2.9768,2.9717,2.9531,0.0,0.0,0.0,0.0,0.0,0.0,0.0,0.0,0.0,0.0,0.0,0.0,0.0,0.0,0.0,0.0,0.0,0.0,0.0,0.0,0.0,0.0,0.0,0.0,0.0,0.0,0.0,0.0,0.0,0.0,0.0,0.0,0.0,0.0,0.0,0.0,0.0,0.0,0.0,0.0,0.0,0.0,3.5701,3.5697,3.5154,3.4404,3.4433,0.0,0.0,0.0,3.2919,3.2734,3.239,3.2222,0.0,3.253,3.2509,3.223,3.1278,3.1577,3.2219,3.2596,3.3271,3.3902,3.4139,3.4187,3.3857,3.2792,3.2497,3.2095,3.1013,3.0866,3.0529,2.933,2.9319,2.9232,2.8524,2.9079,2.9529,2.9559,3.0053,3.033,3.0283,3.0154,3.0275,3.0739,3.0576,3.0399,3.0137,3.0125,2.9431,2.7908,2.7806,2.7469,2.6775,2.707,2.7369,2.773,2.7982,2.8676,2.9753,2.9753,2.9753,2.9699,2.8866,2.953,3.1111,2.9527,2.9425,3.0189,2.94,2.9584,3.0263,3.0286,2.9787,2.9126,0.0,0.0,0.0,0.0,0.0,0.0,0.0,0.0,0.0,0.0,0.0,0.0,0.0,0.0,0.0,0.0,0.0,0.0,0.0,0.0,0.0,0.0,0.0,0.0,0.0,0.0,0.0,0.0,0.0,0.0,0.0,0.0,0.0,0.0,0.0,0.0,0.0,0.0,0.0,0.0,0.0,0.0,3.6487,3.5779,3.496,3.4108,0.0,0.0,0.0,0.0,3.2357,3.2039,3.1672,3.0863,3.0077,3.0282,3.0508,3.0782,3.0943,3.139,3.1914,3.2542,3.3607,3.4463,3.4266,3.4202,3.3928,3.2719,3.1809,3.0934,3.0105,2.9667,2.9189,2.8453,2.8584,2.8784,2.8998,2.9342,2.9915,3.0731,3.1336,3.1736,3.1736,3.1205,3.1039,3.1496,3.1342,3.1316,3.1562,3.0159,2.9364,2.9347,2.8313,2.7943,2.8213,2.8354,2.8545,2.8828,2.9412,2.9898,3.0263,2.9945,3.0369,3.131,2.997,3.0368,3.1819,3.0747,3.0163,2.994,2.9667,2.9721,2.9977,2.9977,2.9794,2.9606,0.0,0.0,0.0,0.0,0.0,0.0,0.0,0.0,0.0,0.0,0.0,0.0,0.0,0.0,0.0,0.0,0.0,0.0,0.0,0.0,0.0,0.0,0.0,0.0,0.0,0.0,0.0,0.0,0.0,0.0,0.0,0.0,0.0,0.0,0.0,0.0,0.0,0.0,0.0,0.0,0.0,0.0,3.6663,3.5611,3.4864,0.0,0.0,0.0,0.0,3.1442,3.0979,3.055,3.0173,2.9594,2.9045,2.904,2.9634,3.0353,3.0721,3.09,3.1194,3.2163,3.3006,3.3534,3.3581,3.3756,3.3643,3.2374,3.148,3.0678,2.9971,2.9894,2.9572,2.8639,2.917,2.9729,2.9824,3.0027,3.057,3.1566,3.2336,3.2863,3.3068,3.2771,3.2479,3.2256,3.2232,3.2135,3.1918,3.0548,2.9753,2.9702,2.8755,2.8484,2.8975,2.9102,2.9386,2.9804,3.0373,3.0837,3.1088,3.0812,3.1365,3.256,3.1528,3.1673,3.2542,3.1437,3.0695,3.0152,2.959,2.9717,3.0224,3.0224,3.0405,3.0622,0.0,0.0,0.0,0.0,0.0,0.0,0.0,0.0,0.0,0.0,0.0,0.0,0.0,0.0,0.0,0.0,0.0,0.0,0.0,0.0,0.0,0.0,0.0,0.0,0.0,0.0,0.0,0.0,0.0,0.0,0.0,0.0,0.0,0.0,0.0,0.0,0.0,0.0,0.0,0.0,0.0,0.0,3.6344,3.5325,0.0,0.0,0.0,0.0,0.0,2.9567,2.898,2.8502,2.8032,2.8476,2.914,2.8831,2.9782,3.0845,3.0593,3.0156,3.0194,3.1528,3.1518,3.1376,3.2238,3.289,3.3038,3.173,3.1422,3.127,3.0582,3.1272,3.1475,2.9948,3.1152,3.1957,3.1066,3.1125,3.1518,3.217,3.2942,3.365,3.4248,3.4727,3.4489,3.3113,3.3262,3.2848,3.1427,3.1258,3.0565,2.9231,2.9076,2.9059,2.9093,2.9436,2.9927,3.057,3.0908,3.1482,3.2224,3.2252,3.2687,3.3393,3.3393,3.3393,3.3284,3.1745,3.1093,3.0912,2.9391,2.9717,3.1057,3.1057,3.1528,3.1981,0.0,0.0,0.0,0.0,0.0,0.0,0.0,0.0,0.0,0.0,0.0,0.0,0.0,0.0,0.0,0.0,0.0,0.0,0.0,0.0,0.0,0.0,0.0,0.0,0.0,0.0,0.0,0.0,0.0,0.0,0.0,0.0,0.0,0.0,0.0,0.0,0.0,0.0,0.0,0.0,0.0,0.0,3.6956,0.0,0.0,0.0,0.0,0.0,0.0,0.0,3.0252,2.9611,2.9018,2.9025,2.9206,2.9242,2.952,2.9895,3.0361,3.0426,3.056,3.1637,3.2118,3.2318,3.2384,3.2819,3.2796,3.1106,3.0761,3.0567,2.9939,3.0818,3.1549,3.1276,3.243,3.3093,3.2516,3.2581,3.2711,3.278,3.3505,3.4036,3.4089,3.5051,3.5301,3.4363,3.4253,3.4049,3.3677,3.2087,3.1275,3.1467,3.0378,3.0074,3.0632,3.0979,3.1199,3.1411,3.2048,3.2455,3.2652,3.2949,3.3212,3.3393,3.3393,3.3393,3.3375,3.2958,3.2433,3.1854,3.1437,3.1528,3.189,3.189,3.2017,3.2144,0.0,0.0,0.0,0.0,0.0,0.0,0.0,0.0,0.0,0.0,0.0,0.0,0.0,0.0,0.0,0.0,0.0,0.0,0.0,0.0,0.0,0.0,0.0,0.0,0.0,0.0,0.0,0.0,0.0,0.0,0.0,0.0,0.0,0.0,0.0,0.0,0.0,0.0,0.0,0.0,0.0,0.0,0.0,0.0,0.0,0.0,0.0,0.0,0.0,0.0,0.0,2.9659,2.9316,2.9253,2.9295,2.9364,2.9648,2.998,3.041,3.0589,3.0822,3.1357,3.1614,3.1644,3.1581,3.1811,3.1743,3.0734,3.0507,3.0402,3.0058,3.1372,3.233,3.176,3.3292,3.4256,3.3381,3.3091,3.3031,3.3232,3.3787,3.4298,3.4756,3.5465,3.5842,3.5713,3.5268,3.4844,3.4506,3.3305,3.2679,3.278,3.1664,3.1167,3.1428,3.1804,3.2021,3.2196,3.2781,3.3068,3.3068,3.3286,3.3393,3.3393,3.3393,3.3393,3.3375,3.3013,3.2614,3.2162,3.1799,3.189,3.2198,3.2198,3.2198,3.2198,0.0,0.0,0.0,0.0,0.0,0.0,0.0,0.0,0.0,0.0,0.0,0.0,0.0,0.0,0.0,0.0,0.0,0.0,0.0,0.0,0.0,0.0,0.0,0.0,0.0,0.0,0.0,0.0,0.0,0.0,0.0,0.0,0.0,0.0,0.0,0.0,0.0,0.0,0.0,0.0,0.0,0.0,0.0,0.0,0.0,0.0,0.0,0.0,0.0,0.0,3.1074,2.9674,2.95,2.9501,2.9589,2.9566,3.0038,3.0533,3.0533,3.074,3.0923,3.0887,3.0678,3.0474,3.0403,3.0488,3.0588,3.0402,3.0522,3.0612,3.0522,3.2195,3.3246,3.2093,3.4027,3.5262,3.4038,3.3412,3.3282,3.3805,3.3952,3.4542,3.5613,3.5778,3.6037,3.6591,3.5966,3.529,3.4675,3.4539,3.4167,3.3423,3.278,3.2264,3.1929,3.237,3.27,3.2891,3.334,3.3502,3.3393,3.3393,3.3393,3.3393,3.3393,3.3465,3.3502,3.2814,3.2578,3.2596,3.1781,3.189,3.2506,3.2397,3.2361,3.2361,0.0,0.0,0.0,0.0,0.0,0.0,0.0,0.0,0.0,0.0,2.622,2.622,0.0,0.0,0.0,0.0,0.0,0.0,0.0,0.0,0.0,0.0,0.0,0.0,0.0,0.0,0.0,0.0,0.0,0.0,0.0,0.0,0.0,0.0,0.0,0.0,0.0,0.0,0.0,0.0,0.0,0.0,0.0,0.0,0.0,0.0,0.0,0.0,0.0,0.0,3.2926,3.2214,3.1048,3.0712,3.0654,3.041,3.0527,3.0774,3.0774,3.0861,3.0887,3.0525,3.0678,3.0744,2.9954,3.0516,3.096,2.9958,3.0597,3.118,3.0612,3.1704,3.2976,3.3829,3.4831,3.5674,3.5923,3.5459,3.5097,3.5077,3.4699,3.4661,3.5318,3.5382,3.5475,3.5739,3.5605,3.5515,3.5436,3.4827,3.4167,3.3423,3.3288,3.3194,3.31,3.3824,3.388,3.3301,3.4042,3.4045,3.3393,3.3393,3.3393,3.3393,3.3393,3.3791,3.4389,3.4244,3.4588,3.5113,3.4298,3.4063,3.4099,3.3447,3.3194,3.3194,0.0,0.0,0.0,0.0,0.0,0.0,0.0,2.6241,2.6225,2.6203,2.6365,2.6701,2.7288,2.7344,0.0,0.0,0.0,0.0,0.0,0.0,0.0,0.0,0.0,0.0,0.0,0.0,3.3781,3.1786,0.0,0.0,0.0,3.5606,3.6219,0.0,0.0,0.0,0.0,0.0,0.0,0.0,0.0,0.0,0.0,0.0,0.0,0.0,0.0,0.0,0.0,0.0,3.3879,3.3468,3.2006,3.1197,3.0733,3.0568,3.0853,3.1148,3.0862,3.1593,3.2273,3.1428,3.1413,3.1291,3.0247,3.0195,3.0179,2.9672,3.0342,3.1001,3.1031,3.2407,3.3634,3.3918,3.5691,3.699,3.701,3.6755,3.6636,3.6862,3.6064,3.5745,3.6382,3.6125,3.5984,3.6156,3.5785,3.5549,3.5577,3.5267,3.4726,3.3998,3.3964,3.3905,3.3727,3.43,3.4516,3.4323,3.4932,3.4806,3.4027,3.4027,3.4027,3.4027,3.4027,3.448,3.5222,3.5222,3.5457,3.5765,3.5385,3.5222,3.5131,3.4317,3.4298,3.4534,0.0,0.0,0.0,0.0,0.0,0.0,0.0,2.6358,2.6493,2.6452,2.6805,2.7614,2.9052,2.882,2.919,0.0,0.0,0.0,0.0,0.0,0.0,0.0,0.0,0.0,0.0,0.0,0.0,3.1505,3.3702,0.0,0.0,0.0,0.0,0.0,3.5393,3.5892,0.0,0.0,0.0,0.0,0.0,3.4721,0.0,0.0,0.0,0.0,0.0,0.0,0.0,0.0,3.4432,3.3946,3.2622,3.175,3.1156,3.0841,3.1417,3.2015,3.141,3.2349,3.3226,3.2218,3.1826,3.1401,3.0299,2.9797,2.9544,2.9597,3.0193,3.0896,3.1377,3.2796,3.3769,3.3529,3.5773,3.756,3.7517,3.7545,3.7816,3.8428,3.7519,3.6995,3.7569,3.6898,3.6505,3.6679,3.6016,3.5622,3.5622,3.5622,3.5351,3.4742,3.4742,3.461,3.4352,3.5021,3.5398,3.5563,3.6258,3.6164,3.5367,3.5367,3.5276,3.5113,3.5113,3.5476,3.6073,3.6073,3.6164,3.6309,3.6127,3.6073,3.5965,3.5168,3.5276,3.5639,0.0,0.0,0.0,0.0,0.0,0.0,0.0,2.678,2.7222,2.7184,2.781,2.9165,3.1604,3.0292,2.9832,0.0,0.0,0.0,0.0,0.0,0.0,0.0,0.0,0.0,0.0,0.0,0.0,3.0776,3.2463,0.0,0.0,0.0,0.0,0.0,0.0,3.4331,3.3716,0.0,0.0,0.0,0.0,0.0,0.0,0.0,0.0,0.0,0.0,0.0,0.0,0.0,0.0,3.3703,3.289,3.3039,3.3226,3.1901,3.2597,3.3713,3.3,3.2669,3.2354,3.1643,3.1051,3.0322,2.9057,2.9589,3.0233,2.9684,3.0567,3.1465,3.1467,3.1616,3.2168,3.3305,3.425,3.5469,3.7196,3.7961,3.8509,3.9155,3.8537,3.8044,3.8112,3.6987,3.63,3.6413,3.5925,3.5622,3.5622,3.5622,3.5588,3.552,3.552,3.547,3.5447,3.6984,3.7431,3.6767,3.8331,3.8645,3.7866,3.7866,3.7468,3.6761,3.6761,3.6798,3.687,3.687,3.7305,3.7902,3.716,3.687,3.6779,3.6001,3.5747,3.5783,0.0,0.0,0.0,0.0,0.0,0.0,2.6776,2.7147,2.7512,2.7904,2.841,2.9408,3.1331,3.1696,3.2415,0.0,0.0,0.0,0.0,0.0,0.0,0.0,0.0,0.0,0.0,0.0,3.2174,3.2013,3.3122,0.0,0.0,0.0,0.0,0.0,0.0,3.3067,3.2092,3.2538,0.0,0.0,0.0,0.0,0.0,0.0,0.0,0.0,0.0,0.0,3.5504,3.5378,0.0,0.0,3.3574,3.417,0.0,0.0,3.3057,3.3874,3.373,3.4131,3.4214,3.2819,3.2155,3.1514,3.0348,3.0454,3.0658,3.0114,3.082,3.1482,3.1482,3.1854,3.2302,0.0,0.0,3.6211,3.7917,3.8965,4.0003,4.1119,4.0196,3.9574,3.9628,3.7951,3.6785,3.6525,3.6409,3.6518,3.6975,3.6113,3.5622,3.5622,3.6358,3.6844,3.7109,3.8496,3.9121,3.9082,3.9752,3.9659,3.8916,3.8916,3.8464,3.7703,3.7703,3.7703,3.7703,3.7703,3.7902,3.8156,3.783,3.7703,3.7612,3.6816,3.6834,3.7105,0.0,0.0,0.0,0.0,0.0,2.6366,2.6891,2.74,2.7864,2.8339,2.896,2.99,3.128,3.2727,3.4123,3.5356,0.0,0.0,0.0,0.0,0.0,0.0,0.0,0.0,0.0,0.0,3.2449,3.3496,3.3784,3.3399,0.0,0.0,3.3452,3.1497,0.0,0.0,0.0,0.0,0.0,0.0,0.0,0.0,0.0,0.0,0.0,0.0,0.0,0.0,0.0,0.0,0.0,0.0,0.0,0.0,0.0,0.0,3.3746,3.4464,3.4412,3.4917,3.5226,3.4107,3.3072,3.2127,3.1378,3.1025,3.0737,3.0204,3.082,3.1482,3.1482,3.2078,3.2512,0.0,0.0,3.6566,3.7795,3.9388,4.0893,4.2048,4.1511,4.0984,4.0823,3.8866,3.7502,3.7227,3.7087,3.7354,3.8145,3.6945,3.6253,3.6299,3.7154,3.7723,3.8051,3.9265,4.0042,4.0448,4.0813,4.0817,4.0437,4.0437,3.9858,3.888,3.888,3.8608,3.8192,3.8192,3.8192,3.8192,3.8192,3.8192,3.8119,3.754,3.7703,3.8029,0.0,0.0,0.0,0.0,0.0,0.0,2.622,2.7446,2.8412,2.8412,2.9615,3.09,3.2066,3.3322,3.4202,3.4484,0.0,0.0,0.0,0.0,0.0,0.0,0.0,0.0,0.0,0.0,3.3333,3.4889,3.4163,3.4181,3.4854,3.4163,3.3688,3.3424,0.0,0.0,0.0,0.0,0.0,0.0,0.0,0.0,0.0,0.0,0.0,0.0,0.0,0.0,0.0,0.0,0.0,0.0,0.0,0.0,0.0,0.0,3.489,3.5926,3.5162,3.4617,3.4376,3.5094,3.3341,3.142,3.1495,3.0973,3.0313,2.9714,3.0627,3.1482,3.1482,3.2078,3.2512,0.0,0.0,0.0,3.6469,3.8846,4.0768,4.143,4.2106,4.2204,4.1475,3.9545,3.842,3.8589,3.792,3.7885,3.8723,3.8083,3.7728,3.7889,3.7889,3.7889,3.7889,3.9088,3.9936,4.0401,4.16,4.2422,4.2846,4.2846,4.1995,4.0492,4.0492,3.9604,3.8192,3.8192,3.8192,3.8192,3.8192,3.8192,3.8192,3.8174,3.8174,3.8192,0.0,0.0,0.0,0.0,0.0,0.0,0.0,2.7367,2.8014,2.9087,2.9603,3.0249,3.1221,3.2434,3.3329,3.3647,0.0,0.0,0.0,0.0,0.0,0.0,0.0,0.0,0.0,0.0,3.407,3.496,3.4319,3.3718,3.323,3.4005,3.3829,3.2757,3.3336,3.3143,0.0,0.0,0.0,0.0,0.0,0.0,3.6433,0.0,0.0,0.0,0.0,0.0,0.0,0.0,0.0,0.0,0.0,0.0,0.0,0.0,0.0,0.0,3.4553,3.4403,3.4029,3.2928,3.2573,3.2178,3.099,3.1133,3.1588,3.1488,3.1814,3.2332,3.2796,3.3036,3.3484,3.4412,0.0,3.692,3.8958,4.0808,4.2172,4.2867,4.2654,4.1839,4.0117,3.9412,3.8902,3.847,3.8388,3.874,3.9514,3.9429,3.8888,3.7939,3.9015,3.9633,3.9633,4.1144,4.1962,4.2121,4.2508,4.2768,4.2882,4.2882,4.2013,4.051,4.051,3.9641,3.8192,3.8192,3.8192,3.8192,3.8192,3.8192,3.8192,3.8192,3.783,3.7449,0.0,0.0,0.0,0.0,0.0,0.0,0.0,2.7135,2.767,2.8643,2.9243,2.9799,3.0386,3.1965,3.2939,3.2843,0.0,0.0,0.0,0.0,0.0,0.0,0.0,0.0,0.0,3.4338,3.4659,3.5311,3.4659,3.3969,3.3283,3.3933,3.4038,3.3705,3.4091,3.4214,0.0,0.0,0.0,0.0,0.0,0.0,3.5363,0.0,0.0,0.0,0.0,0.0,0.0,0.0,0.0,0.0,0.0,0.0,0.0,0.0,3.3505,3.3598,0.0,3.4403,3.406,3.3084,3.2631,3.2155,3.131,3.1334,3.1528,3.1576,3.189,3.2347,3.3006,3.332,3.3933,3.528,3.6252,3.7637,3.9791,4.1519,4.2975,4.3878,4.3131,4.1988,4.063,4.0038,3.9578,3.9199,3.9072,3.9277,3.9816,3.9935,3.9614,3.8751,3.9714,4.0262,4.0216,4.147,4.218,4.232,4.2537,4.2711,4.2882,4.2882,4.2013,4.051,4.051,3.9641,0.0,3.8192,3.8192,3.8192,3.8192,3.8192,3.8192,3.8192,3.7866,3.7468,0.0,0.0,0.0,0.0,0.0,0.0,0.0,0.0,2.7288,2.7394,2.8632,2.9538,2.9677,3.1757,3.286,3.2127,0.0,0.0,0.0,0.0,0.0,0.0,0.0,0.0,0.0,3.4727,3.4969,3.5741,3.4969,3.4619,3.4512,3.381,3.4284,3.5671,3.4265,3.4881,3.6812,3.5302,3.4721,3.4809,3.4332,3.3962,0.0,0.0,0.0,0.0,0.0,0.0,0.0,0.0,0.0,0.0,0.0,0.0,0.0,0.0,0.0,0.0,0.0,3.4447,3.4172,3.4809,3.3224,3.1597,3.2222,3.146,0.0,3.0642,3.1165,3.1839,3.2587,3.3185,3.4038,3.5474,3.6671,3.7918,3.9431,4.1402,4.3152,4.4549,4.3446,4.2535,4.2386,4.121,4.0415,4.0315,3.9831,3.9537,3.9677,3.9833,3.9952,4.0087,4.0087,4.0037,3.9935,4.058,4.1019,4.1348,4.1931,4.2458,4.2882,4.2828,4.1959,4.051,4.0456,3.9586,3.8192,3.8192,3.8192,3.8192,3.8192,3.8192,3.8192,3.8192,3.8156,3.7993,0.0,0.0,0.0,0.0,0.0,0.0,0.0,0.0,0.0,0.0,2.7894,2.8605,2.9732,3.093,3.1713,0.0,0.0,0.0,0.0,0.0,0.0,0.0,0.0,0.0,0.0,3.4341,3.4323,3.4951,3.4323,3.3653,3.295,3.3301,3.4003,3.4969,3.5179,3.5583,3.5983,3.4812,3.4992,3.5943,3.4123,3.377,0.0,0.0,0.0,0.0,3.1288,3.1653,0.0,0.0,0.0,0.0,0.0,0.0,0.0,0.0,3.2914,3.3071,3.3493,0.0,3.2046,3.1708,3.1885,3.1949,0.0,3.1506,3.1972,3.1987,3.2168,3.2796,3.4487,3.4502,3.4996,3.733,3.7539,3.8273,4.072,4.2349,4.3678,4.4622,4.391,4.2717,4.1044,4.1061,4.0713,3.962,3.9531,3.9484,3.9554,3.9746,3.9901,3.9952,3.9952,4.0121,4.0417,4.1157,4.1587,4.1853,4.2297,4.2652,4.2864,4.2266,4.1452,4.0492,3.9894,3.9097,3.8192,3.8192,3.8192,3.8192,3.8192,3.8192,3.8192,3.8192,3.7794,3.7232,0.0,0.0,0.0,0.0,0.0,0.0,0.0,0.0,0.0,0.0,0.0,0.0,0.0,0.0,0.0,0.0,0.0,0.0,0.0,0.0,0.0,0.0,0.0,0.0,3.4235,3.3882,3.3829,3.4144,3.3812,3.323,3.2406,3.2809,3.3406,3.4196,3.532,3.5945,3.6068,3.5109,3.5106,3.5538,3.3516,0.0,0.0,0.0,0.0,0.0,3.152,3.1553,0.0,3.1007,3.0892,3.093,0.0,0.0,0.0,0.0,3.1983,3.2407,3.2407,3.216,3.1819,3.144,3.1678,3.1819,3.1117,0.0,0.0,3.2047,0.0,3.2946,3.4322,3.4786,3.5609,3.7614,3.8159,3.9302,4.2139,4.2859,4.3558,4.4605,4.4059,4.3032,4.1508,4.1392,4.0961,3.9868,3.9631,3.9501,3.9501,3.9694,3.9798,3.9798,3.9798,3.9918,4.017,4.0784,4.1258,4.1578,4.2098,4.2318,4.2339,4.1922,4.1089,3.9967,3.9568,3.8934,3.8192,3.8192,3.8192,3.8192,3.8192,3.8192,3.8192,3.8192,3.7902,3.7486,0.0,0.0,0.0,0.0,0.0,0.0,0.0,0.0,0.0,0.0,0.0,0.0,0.0,0.0,0.0,0.0,0.0,0.0,0.0,0.0,0.0,0.0,0.0,3.2792,3.344,3.3493,3.3512,3.3476,3.3476,3.3108,3.2406,3.2406,3.2862,3.3721,3.5104,3.5998,3.6451,3.5514,3.505,3.4729,3.3026,0.0,0.0,0.0,0.0,0.0,0.0,0.0,0.0,2.9989,2.9544,2.9182,2.786,0.0,0.0,0.0,0.0,0.0,3.124,3.1682,3.2149,3.2256,3.1853,3.1482,3.1482,0.0,0.0,0.0,0.0,3.2811,3.3784,3.4801,3.5983,3.7479,3.891,4.0685,4.3347,4.3167,4.3203,4.4379,4.3992,4.3297,4.2435,4.1789,4.1127,4.0431,3.981,3.9448,3.9448,3.959,3.9677,3.9677,3.9729,3.9781,3.9781,4.0237,4.0703,4.1251,4.1644,4.1801,4.1668,4.147,4.0655,3.9387,3.926,3.8826,3.8192,3.8192,3.8192,3.8192,3.8192,3.8192,3.8192,3.8192,3.8192,3.8083,0.0,0.0,0.0,0.0,0.0,0.0,0.0,0.0,0.0,0.0,0.0,0.0,0.0,0.0,0.0,0.0,0.0,0.0,0.0,0.0,0.0,0.0,3.3166,3.2988,3.3164,3.3368,3.3512,3.3476,3.3476,3.3108,3.2406,3.2406,3.3161,3.4547,3.514,3.5798,3.6409,3.5053,3.48,3.5217,3.4018,0.0,0.0,0.0,0.0,0.0,0.0,0.0,0.0,2.8547,2.8054,2.7752,2.8044,0.0,0.0,0.0,0.0,0.0,2.9879,3.0308,3.0904,3.1489,3.1582,3.1482,3.1482,0.0,0.0,0.0,0.0,0.0,3.5594,3.5744,3.6297,3.8721,4.0247,4.1791,4.34,4.3538,4.3542,4.3717,4.3694,4.3098,4.1707,4.1475,4.1127,4.0431,3.9757,3.9325,3.9325,3.9432,3.9537,3.9537,3.9884,4.0037,4.0037,4.0385,4.0984,4.1853,4.1416,4.1396,4.1669,4.0347,3.9623,3.9351,3.8663,3.8301,3.8192,3.8192,3.8192,3.8192,3.8192,3.8192,3.8192,3.8192,3.8192,3.8032,0.0,0.0,0.0,0.0,0.0,0.0,0.0,0.0,0.0,0.0,0.0,0.0,0.0,0.0,0.0,0.0,0.0,0.0,0.0,0.0,0.0,3.2589,3.2523,3.2444,3.2242,3.2375,3.2412,3.2431,3.2431,3.2258,3.191,3.2291,3.3069,3.4194,3.4777,3.5385,3.5854,3.5188,3.4968,3.5052,0.0,0.0,0.0,0.0,0.0,0.0,0.0,0.0,0.0,0.0,2.7007,2.6765,2.6428,0.0,0.0,0.0,0.0,0.0,2.9579,2.9789,3.0163,3.0806,3.1255,3.1482,3.1482,3.1482,0.0,0.0,0.0,0.0,3.5594,3.6267,3.7286,3.9631,4.0547,4.1413,4.286,4.3053,4.3174,4.3568,4.3959,4.3462,4.1591,4.1773,4.1392,3.9901,3.9471,3.9272,3.9272,3.9379,3.9379,3.9379,3.9833,4.0221,4.0483,4.0772,4.0993,4.1209,4.0931,4.0667,4.0437,3.9713,3.9152,3.8717,3.8355,3.8192,3.8192,3.8192,3.8192,3.8192,3.8192,3.8192,3.8192,3.8192,3.8124,3.7823,0.0,0.0,0.0,0.0,0.0,0.0,0.0,0.0,0.0,0.0,0.0,0.0,0.0,0.0,0.0,0.0,0.0,0.0,0.0,0.0,3.2017,3.1593,3.1692,3.1611,3.1368,3.1466,3.1504,3.1504,3.1504,3.1504,3.1521,3.22,3.2912,3.3738,3.438,3.4955,3.5379,3.5333,3.5118,3.4849,0.0,0.0,0.0,0.0,0.0,0.0,0.0,0.0,0.0,0.0,0.0,0.0,0.0,0.0,0.0,2.7385,2.8173,2.9116,2.9116,2.9235,2.9505,3.0133,0.0,3.1375,3.1631,3.1884,3.2228,0.0,0.0,3.4607,3.5923,3.7105,3.8406,3.9978,4.0547,4.1205,4.2414,4.2761,4.3035,4.3568,4.3959,4.3512,4.1839,4.1889,4.1326,3.9653,3.9425,3.9272,3.9272,3.9272,3.9272,3.9272,3.9867,4.0336,4.0707,4.11,4.1077,4.063,4.0453,3.9996,3.9317,3.9188,3.8771,3.8192,3.8192,3.8192,3.8192,3.8192,3.8192,3.8192,3.8192,3.8192,3.8192,3.8158,3.7929,3.7449,0.0,0.0,0.0,0.0,0.0,0.0,0.0,0.0,0.0,0.0,0.0,0.0,0.0,0.0,0.0,0.0,0.0,0.0,0.0,0.0,3.0957,3.1543,3.0957,3.0742,3.1015,3.1329,3.1504,3.1504,3.1504,3.1504,3.1521,3.22,3.2912,3.3697,3.4141,3.4734,3.5379,3.5071,3.4947,3.4899,3.4833,0.0,0.0,0.0,0.0,0.0,0.0,0.0,0.0,0.0,0.0,0.0,0.0,0.0,2.6662,2.6662,2.7156,2.776,2.776,2.8188,2.8831,2.949,3.0118,3.0911,3.2153,3.2916,0.0,3.5026,3.5818,3.6656,3.7943,3.8781,3.9305,3.9466,4.0615,4.168,4.2394,4.3116,4.3568,4.3568,4.3065,4.2618,4.2452,4.1293,4.0464,4.0315,3.9669,3.9272,3.9272,3.9272,3.9272,3.9272,3.9986,4.04,4.0449,4.1209,4.1417,4.1052,4.0299,3.9631,3.9104,3.854,3.8246,3.8192,3.8192,3.8192,3.8192,3.8192,3.8192,3.8192,3.8192,3.8192,3.8192,3.7969,3.7431,3.6716,0.0,0.0,0.0,0.0,0.0,0.0,0.0,0.0,0.0,0.0,0.0,0.0,0.0,0.0,0.0,0.0,0.0,0.0,0.0,0.0,3.0361,3.1527,3.0865,3.0568,3.0692,3.0797,3.0878,3.0878,3.0878,3.0878,3.0895,3.1633,3.2077,3.2437,3.3044,3.3484,3.3768,3.4097,3.4016,3.3762,3.4219,3.3746,0.0,0.0,0.0,0.0,0.0,0.0,0.0,0.0,2.5615,2.542,0.0,2.4911,2.5899,2.5495,2.6123,2.6961,2.6961,2.7769,2.8757,2.9415,3.0043,0.0,0.0,3.3021,3.3634,3.4143,3.5444,3.6746,3.7629,3.8676,3.9155,3.8302,4.0044,4.1304,4.0639,4.1931,4.2767,4.2303,4.2402,4.217,4.1276,4.1094,4.0647,3.9752,3.9437,3.9272,3.9272,3.9272,3.9432,3.9694,3.9713,3.9877,4.0279,4.0691,4.0711,4.036,4.0574,4.0157,3.9264,3.9045,3.8663,3.8192,3.8192,3.8192,3.8192,3.8192,3.8192,3.8192,3.8192,3.8106,3.8003,3.7934,3.756,3.6968,0.0,0.0,0.0,0.0,0.0,0.0,0.0,0.0,0.0,0.0,0.0,0.0,0.0,0.0,0.0,0.0,0.0,0.0,2.9417,2.9019,2.94,3.0815,3.0444,3.0278,3.0468,3.0526,3.0526,3.0526,3.0526,3.0526,3.0543,3.1229,3.1576,3.1609,3.2365,3.268,3.2713,3.309,3.3025,3.274,3.3304,3.2828,0.0,0.0,0.0,0.0,0.0,0.0,0.0,0.0,2.5779,0.0,0.0,0.0,0.0,2.4716,2.5555,2.6587,2.6587,2.7408,2.853,2.9361,0.0,0.0,3.2452,3.3499,3.4247,3.4651,3.5983,3.715,3.736,3.8167,3.8422,3.73,3.921,4.053,3.9519,4.0973,4.1988,4.1475,4.1674,4.1458,4.0464,4.0597,4.0332,3.9355,3.9272,3.9272,3.9272,3.9272,3.9368,3.9496,3.9372,3.9456,3.9722,3.9991,4.0041,3.9914,4.0467,4.0231,3.9317,3.9099,3.8717,3.8192,3.8192,3.8337,3.8572,3.8572,3.8572,3.8536,3.8282,3.809,3.7899,3.7828,3.7594,3.7226,0.0,0.0,0.0,0.0,0.0,0.0,0.0,0.0,0.0,0.0,0.0,0.0,0.0,0.0,0.0,0.0,0.0,0.0,2.7267,2.7317,2.7909,2.9334,2.9417,2.9764,3.0493,3.0468,3.0468,3.051,3.0526,3.0526,3.0526,3.1212,3.1576,3.1593,3.2348,3.2663,3.2618,3.218,3.1994,3.2012,3.2137,3.1744,3.1092,0.0,0.0,0.0,0.0,0.0,0.0,0.0,2.6168,2.551,0.0,0.0,0.0,2.4582,2.5555,2.6587,2.6587,2.7071,2.7948,2.9238,0.0,0.0,3.3063,3.4532,3.5863,3.7135,3.7913,3.8167,3.7524,3.7404,3.721,3.6582,3.8129,3.9424,3.9408,4.0534,4.1409,4.1392,4.0779,4.0365,4.0365,3.9702,3.9272,3.9272,3.9272,3.9272,3.9325,3.9272,3.9135,3.8706,3.9084,3.9105,3.872,3.9118,3.9494,3.9914,3.9914,3.9654,3.9067,3.8504,3.821,3.8192,3.821,3.8663,3.9405,3.9387,3.9387,3.9315,3.85,3.809,3.7864,3.7667,3.7466,3.7259,0.0,0.0,0.0,0.0,0.0,0.0,0.0,0.0,0.0,0.0,0.0,0.0,0.0,0.0,0.0,0.0,0.0,0.0,2.7267,2.7317,2.7732,2.8655,2.9152,2.9516,2.9731,2.9444,2.9444,2.9748,3.0261,3.0245,2.9764,3.0493,3.0858,3.0815,3.0697,3.0663,3.0652,3.0699,3.0481,3.0185,3.1203,3.1228,3.0684,0.0,0.0,0.0,0.0,0.0,0.0,0.0,0.0,0.0,0.0,0.0,0.0,2.442,2.4955,2.59,2.5494,2.6534,2.7893,2.8755,3.007,3.1619,3.3124,3.4158,0.0,3.6492,3.6552,3.6447,3.6716,3.712,3.7181,3.6557,3.8122,3.9215,3.8707,3.9797,4.0498,3.9967,3.9736,3.9603,3.9603,3.9404,3.9272,3.9272,3.9272,3.9432,3.9694,3.9432,3.9377,3.9547,3.8963,3.8695,3.8709,3.9394,3.9914,4.0329,4.0738,4.0362,3.9335,3.966,3.9532,3.9061,3.9586,3.9948,4.013,3.9604,3.9387,3.9315,3.85,3.809,3.7899,3.7828,3.7594,3.7297,0.0,0.0,0.0,0.0,0.0,0.0,0.0,0.0,0.0,0.0,0.0,0.0,0.0,0.0,0.0,0.0,0.0,0.0,0.0,2.6849,2.7181,2.7947,2.8431,2.8854,2.9274,2.9291,2.9145,2.8851,2.9333,2.9564,2.9559,2.9815,2.9924,2.9941,2.9661,2.9528,2.9515,2.947,2.9228,2.8978,2.9892,3.0235,3.0163,0.0,0.0,0.0,0.0,0.0,0.0,0.0,0.0,0.0,0.0,0.0,0.0,2.4592,2.4901,2.5684,2.5596,2.6775,2.8257,2.9192,3.0454,3.1797,3.2856,3.4023,3.5265,3.6582,3.6133,3.5699,3.6372,3.6582,3.6571,3.6444,3.7654,3.8559,3.8351,3.9276,3.9785,3.9322,3.9272,3.9272,3.9272,3.9272,3.9272,3.9272,3.9432,3.9508,3.9412,3.9328,3.9238,3.912,3.8495,3.8168,3.814,3.902,3.9564,3.9842,4.0615,4.0581,3.9858,4.0311,4.0274,3.9858,4.0311,4.051,4.0437,3.9351,3.9097,3.9278,3.8156,3.7801,3.7899,3.7828,3.7558,3.7297,0.0,0.0,0.0,0.0,0.0,0.0,0.0,0.0,0.0,0.0,0.0,0.0,0.0,0.0,0.0,0.0,0.0,0.0,0.0,0.0,2.6501,2.7094,2.7476,2.8057,2.8993,2.958,2.9234,2.7987,2.8091,2.863,2.9609,2.9207,2.9057,2.9074,2.9028,2.9028,2.8982,2.8448,2.8255,2.8268,2.8447,2.8898,2.9564,3.0123,0.0,0.0,0.0,0.0,0.0,0.0,0.0,0.0,2.6972,2.6153,2.5604,2.4926,2.5157,2.585,2.645,2.7524,2.8837,3.0179,3.1102,3.1816,3.2467,3.3963,3.5564,3.6716,3.6088,3.5504,3.6103,3.5779,3.5631,3.626,3.6917,3.7642,3.8278,3.8849,3.9206,3.9272,3.9156,3.9123,3.9309,3.9156,3.9159,3.9226,3.9527,3.9379,3.8722,3.8999,3.8803,3.7982,3.793,3.7777,3.7458,3.8449,3.899,3.9062,3.9983,4.0492,4.0619,4.0619,4.0582,4.051,4.0437,4.0365,4.0184,3.8699,3.85,3.9025,3.7558,3.7332,3.7791,3.7667,3.7521,3.7334,0.0,0.0,0.0,0.0,0.0,0.0,0.0,0.0,0.0,0.0,0.0,0.0,0.0,0.0,0.0,0.0,0.0,0.0,0.0,0.0,2.6109,2.5896,2.7182,2.804,2.8237,2.8545,2.8436,2.7987,2.8091,2.8199,2.8386,2.8357,2.8614,2.9074,2.8638,2.848,2.8448,2.7944,2.7745,2.7755,2.7845,2.8281,2.8823,2.8998,2.9359,0.0,0.0,0.0,0.0,0.0,0.0,0.0,2.5859,2.5519,2.5666,2.4984,2.5258,2.5906,2.658,2.73,2.8344,3.0178,3.187,3.3092,3.3275,3.3215,3.323,3.3514,3.3754,3.3963,3.4113,3.4348,3.4983,3.6178,3.6835,3.7663,3.8887,3.8722,3.8642,3.9206,3.8278,3.803,3.9156,3.8245,3.79,3.8757,3.8387,3.8275,3.8665,3.8465,3.8353,3.8311,3.8139,3.8267,3.8725,3.9662,4.0474,4.1088,4.1324,4.1433,4.1452,4.1452,4.1107,4.0492,3.9894,3.9278,3.8608,3.7649,3.7341,3.7468,3.7123,3.7087,3.7257,3.7665,3.7828,3.7757,0.0,0.0,0.0,0.0,0.0,0.0,0.0,0.0,0.0,0.0,0.0,0.0,0.0,0.0,0.0,0.0,0.0,0.0,0.0,0.0,0.0,2.5835,2.7308,2.8031,2.7796,2.8229,2.8244,2.7796,2.7519,2.7659,2.8139,2.7937,2.8044,2.8367,2.774,2.7507,2.7458,2.7244,2.6932,2.6724,2.7074,2.7418,2.7723,2.7751,2.8179,2.8679,2.8382,0.0,0.0,0.0,0.0,0.0,0.0,0.0,2.6553,2.5581,2.577,2.6427,2.7002,2.7683,2.8633,3.0587,3.2273,3.3335,3.2706,3.2542,3.2422,3.2108,3.2557,3.3125,3.344,3.3924,3.4635,3.5701,3.6341,3.7031,3.8127,3.8228,3.8212,3.8228,3.788,3.7798,3.8195,3.7549,3.7403,3.8135,3.7993,3.795,3.8174,3.8209,3.8181,3.7996,3.7998,3.8165,3.8528,3.9481,3.9949,3.9896,4.0745,4.1144,4.1144,4.1144,4.0709,3.993,3.9152,3.8355,3.7522,3.6327,3.6073,3.6381,3.6001,3.6309,3.7033,3.7248,3.7575,3.7864,0.0,0.0,0.0,0.0,0.0,0.0,0.0,0.0,0.0,0.0,0.0,0.0,0.0,0.0,0.0,0.0,0.0,0.0,0.0,0.0,0.0,2.6166,2.73,2.7838,2.761,2.8128,2.8143,2.7625,2.6916,2.7146,2.8158,2.7569,2.734,2.743,2.6722,2.6374,2.6325,2.6325,2.5938,2.5467,2.6026,2.6332,2.6511,2.6512,2.6862,2.7412,2.7369,2.7425,2.7682,2.7812,0.0,0.0,0.0,0.0,2.7148,2.6339,2.6436,2.7004,2.7849,2.8693,2.9736,3.1304,3.2602,3.3215,3.2123,3.2287,3.2497,3.1839,3.2048,3.2512,3.3171,3.3752,3.4374,3.5134,3.5712,3.6323,3.6967,3.7533,3.7649,3.7168,3.7417,3.75,3.7135,3.687,3.6953,3.7475,3.7687,3.7676,3.7384,3.7747,3.7782,3.7238,3.7416,3.7557,3.7736,3.8576,3.8648,3.7952,3.9281,3.9912,3.9894,3.9767,3.9441,3.8916,3.7975,3.7105,3.6272,3.4932,3.4806,3.5349,3.4824,3.5494,3.6798,3.6726,3.7216,3.7934,0.0,0.0,0.0,0.0,0.0,0.0,0.0,0.0,0.0,0.0,0.0,0.0,0.0,0.0,0.0,0.0,0.0,0.0,2.5075,0.0,0.0,2.6166,2.6574,2.7075,2.761,2.7715,2.7715,2.7625,2.6916,2.698,2.7695,2.6456,2.6183,2.6692,2.6033,2.5497,2.5112,2.5112,2.4838,2.4289,2.4415,2.4773,2.5233,2.5245,2.5591,2.6035,2.5562,2.6062,2.6693,2.5226,2.5401,0.0,0.0,0.0,2.5675,2.7017,2.7115,2.7216,2.9507,3.1043,3.2035,3.2273,3.2946,3.344,3.3275,3.3305,3.3185,3.2512,3.2003,3.1805,3.242,3.3014,3.3725,3.4929,3.5642,3.6257,3.7019,3.6638,3.6489,3.7052,3.6059,3.581,3.7003,3.5943,3.5716,3.6956,3.6529,3.6232,3.6277,3.6355,3.6221,3.5783,3.5798,3.624,3.7109,3.725,3.7594,3.814,3.7685,3.7449,3.7431,3.6761,3.6761,3.7232,3.5729,3.4624,3.3864,3.3647,3.3628,3.3791,3.4371,3.5168,3.6023,3.6528,3.7318,3.8124,0.0,0.0,0.0,0.0,0.0,0.0,0.0,0.0,0.0,0.0,0.0,0.0,0.0,0.0,0.0,2.4902,2.4679,2.4436,2.4173,2.4599,2.5004,2.5274,2.5768,2.6183,2.6467,2.6467,2.65,2.6526,2.6247,0.0,0.0,2.5662,2.5741,2.6629,2.5629,2.4932,2.4348,2.4026,2.3576,2.316,2.3849,2.4069,2.4027,2.438,2.4664,2.4821,2.4549,2.4838,2.5216,2.4758,2.4949,2.544,2.5451,0.0,0.0,0.0,2.7783,2.8182,2.9668,3.097,3.1958,3.1958,3.3021,3.3844,3.311,3.3514,3.3754,3.2721,3.2551,3.252,3.2404,3.3124,3.3912,3.4438,3.4677,3.5015,3.576,3.5595,3.5495,3.5827,3.5661,3.5691,3.6117,3.5549,3.5633,3.6817,3.6582,3.6369,3.6256,3.6364,3.6164,3.5544,3.5624,3.5869,3.6327,3.6327,3.6508,3.6852,3.6037,3.5892,3.6309,3.5494,3.5331,3.562,3.4914,3.4154,3.3393,3.3393,3.3665,3.4117,3.4461,3.5367,3.6508,3.6754,3.75,3.8336,0.0,0.0,0.0,0.0,0.0,0.0,0.0,0.0,0.0,0.0,0.0,0.0,0.0,0.0,0.0,0.0,2.4313,2.3952,2.3638,2.4422,2.4787,2.4627,2.5091,2.5388,2.5411,2.5248,2.5217,2.5272,0.0,0.0,2.5598,2.5149,2.542,0.0,2.4963,2.4085,2.3529,2.2902,2.2358,2.1995,2.3165,2.3375,2.308,2.3838,2.4112,2.4112,2.4112,2.4112,2.4171,2.4778,2.4914,2.4899,2.5772,2.6582,0.0,0.0,0.0,2.9474,2.9839,3.0834,3.1824,3.1988,3.326,3.4262,3.3455,3.4038,3.4415,3.3201,3.3429,3.3681,3.2975,3.3523,3.4151,3.43,3.4182,3.427,3.4816,3.4733,3.4618,3.4618,3.4932,3.5074,3.4875,3.4869,3.5205,3.608,3.6138,3.6022,3.5793,3.5948,3.569,3.4997,3.5123,3.5204,3.5204,3.5204,3.5294,3.5494,3.4679,3.4733,3.5476,3.4661,3.4298,3.4298,3.4298,3.3954,3.3393,3.3393,3.3755,3.4317,3.4534,3.5457,3.6739,3.6985,3.7676,3.851,0.0,0.0,0.0,0.0,0.0,0.0,0.0,0.0,0.0,0.0,0.0,0.0,2.4385,2.3994,2.3681,2.3681,2.3638,2.3638,2.3595,2.3683,2.3939,2.4552,2.4612,0.0,2.4932,2.4305,2.4038,0.0,0.0,0.0,2.5033,2.499,2.5061,2.5036,2.3673,2.2817,2.2369,2.1757,2.122,2.0906,2.2035,2.2481,2.2585,2.3681,2.4112,2.4112,2.4112,2.4112,2.4171,2.4778,2.4633,2.4429,2.6136,2.6287,2.6345,0.0,0.0,0.0,3.0615,3.1407,3.2617,3.3245,3.3933,3.4637,3.522,3.54,3.5232,3.4361,3.467,3.4897,3.414,3.405,3.425,3.4804,3.4866,3.4849,3.4883,3.4286,3.3856,3.3856,3.3259,3.2979,3.3295,3.3338,3.3592,3.4276,3.4354,3.4257,3.412,3.4151,3.3942,3.3508,3.352,3.352,3.352,3.352,3.3918,3.4661,3.3846,3.3882,3.4643,3.3828,3.3465,3.3465,3.3465,3.3447,3.3393,3.3393,3.3429,3.3538,3.4298,3.5131,3.5996,3.6936,3.7796,3.8541,0.0,0.0,0.0,0.0,0.0,0.0,0.0,0.0,0.0,0.0,0.0,0.0,0.0,2.4135,2.3909,2.3638,2.3595,2.3595,2.3595,2.3334,2.326,2.351,2.3178,2.3048,2.3089,2.2861,2.2822,0.0,0.0,2.2852,2.3353,2.3353,2.3312,2.3336,2.3185,2.2848,2.2273,2.1358,2.1059,2.1276,2.2086,2.2609,2.3001,2.3812,2.4112,2.4171,2.4563,2.4686,2.4774,2.5326,2.5925,2.6437,2.6614,2.7107,2.7854,2.9218,3.0507,3.1422,3.124,3.1824,3.2572,3.2811,3.3679,3.4658,3.5307,3.5415,3.5278,3.5018,3.5031,3.4872,3.4212,3.4399,3.4707,3.4851,3.4502,3.4352,3.4833,3.427,3.4064,3.4743,3.4158,3.3953,3.4487,3.4134,3.412,3.4781,3.4835,3.4711,3.4389,3.4384,3.4086,3.3429,3.3393,3.3393,3.3393,3.3393,3.3538,3.3828,3.3538,3.3556,3.3828,3.3538,3.3393,3.3393,3.3393,3.3481,3.3577,3.3452,3.408,3.5162,3.5447,3.6358,3.7612,3.8132,3.8586,3.897,0.0,0.0,0.0,0.0,0.0,0.0,0.0,0.0,0.0,0.0,0.0,0.0,0.0,0.0,2.3867,2.3421,2.3377,2.3377,2.3377,2.292,2.2694,2.2889,2.2374,2.2035,2.186,2.186,2.1828,0.0,0.0,0.0,0.0,2.2073,2.2191,2.2428,2.2551,2.2432,2.2047,2.1118,2.0989,2.1564,2.2165,2.2727,2.3289,2.389,2.4112,2.4171,2.4778,2.4976,2.5127,2.5827,2.6553,2.7072,2.7006,2.7876,2.9042,2.9456,3.0507,3.1482,3.1482,3.2018,3.2557,3.2781,3.3664,3.4645,3.5217,3.5507,3.5595,3.5284,3.5289,3.5169,3.4513,3.4643,3.4899,3.4899,3.4485,3.4336,3.4833,3.427,3.411,3.4942,3.4398,3.4228,3.4966,3.461,3.4436,3.4813,3.4829,3.4623,3.4104,3.4099,3.3876,3.3411,3.3393,3.3393,3.3393,3.3393,3.3393,3.3393,3.3393,3.3393,3.3393,3.3393,3.3393,3.3393,3.3393,3.3481,3.3605,3.3452,3.4127,3.5334,3.5904,3.6776,3.7893,3.8699,3.9092,3.921,0.0,0.0,0.0,0.0,0.0,0.0,0.0,0.0,0.0,0.0,0.0,0.0,0.0,0.0,0.0,2.2934,2.2889,2.2889,2.2889,2.2374,2.2314,2.2844,2.2314,2.186,2.1375,2.1375,2.118,0.0,0.0,0.0,0.0,0.0,2.1799,2.2335,2.1747,2.1485,2.1446,2.0961,2.1015,2.159,2.2191,2.2766,2.3302,2.389,2.4125,2.4197,2.4805,2.5046,2.5242,2.6394,2.6408,2.6167,2.7314,2.8532,2.9579,2.9579,3.0507,3.1482,0.0,0.0,0.0,3.3305,3.3948,3.46,3.5217,3.583,3.6071,3.5225,3.5602,3.586,3.5051,3.4899,3.4899,3.4899,3.4899,3.4899,3.4899,3.427,3.3943,3.433,3.37,3.3605,3.4486,3.4544,3.4428,3.4151,3.4112,3.382,3.3158,3.3135,3.3196,3.3393,3.3393,3.3393,3.3393,3.3393,3.3393,3.3393,3.3393,3.3393,3.3393,3.3393,3.3393,3.3393,3.3393,3.3393,3.3422,3.3393,3.3538,3.3909,3.5512,3.625,3.6675,3.8515,3.921,3.9256,0.0,0.0,0.0,0.0,0.0,0.0,0.0,0.0,0.0,0.0,0.0,0.0,2.304,2.2725,2.2452,2.2314,2.2314,2.2314,2.2314,2.186,2.1636,2.1827,2.1361,2.1033,2.0898,2.0898,0.0,0.0,0.0,0.0,0.0,0.0,0.0,0.0,2.1013,2.0948,2.0961,2.1172,2.1603,2.2178,2.2766,2.3341,2.389,2.406,2.4374,2.4906,2.5903,2.6583,2.7083,2.7792,2.8569,2.9189,2.908,2.928,2.9579,2.9579,3.0507,3.1482,3.1482,0.0,0.0,0.0,0.0,0.0,3.5642,3.5425,3.511,3.6261,3.5827,3.5152,3.4918,3.4899,3.4899,3.4899,3.4899,3.4899,3.4899,3.4935,3.515,3.5626,3.5225,3.5157,3.5793,3.5386,3.5098,3.5101,3.4577,3.4245,3.4189,3.3641,3.3334,3.3393,3.3393,3.3393,3.3393,3.3393,3.3393,3.3393,3.3393,3.3393,3.3393,3.3393,3.3481,3.3633,3.3633,3.3698,3.3815,3.3671,3.4164,3.5106,3.6189,3.6994,3.7724,3.9013,3.9483,3.9502,0.0,0.0,0.0,0.0,0.0,0.0,0.0,0.0,0.0,0.0,0.0,0.0,2.2218,2.2172,2.1937,2.1486,2.1661,2.1813,2.1813,2.1361,2.118,2.1375,2.0947,2.0699,2.0699,2.0935,0.0,0.0,0.0,0.0,0.0,0.0,0.0,0.0,0.0,0.0,2.0751,2.1538,2.2073,2.2467,2.2988,2.3576,2.4112,2.4112,2.4321,2.4774,2.5936,2.6621,2.7065,2.7871,2.8693,2.9204,2.886,2.8936,2.9175,2.9175,2.9909,3.0776,3.1031,3.1106,3.133,3.2273,0.0,0.0,3.4698,3.5022,3.5112,3.5613,3.5528,3.5263,3.4965,3.4899,3.4899,3.4899,3.4899,3.4947,3.5071,3.5407,3.5793,3.6266,3.611,3.6229,3.6845,3.6524,3.6217,3.6143,3.5692,3.5182,3.4643,3.4172,3.3755,3.3411,3.3393,3.3393,3.3393,3.3393,3.3393,3.3393,3.3393,3.3393,3.3393,3.3481,3.3605,3.3698,3.3807,3.3947,3.4124,3.3998,3.4351,3.5107,3.6329,3.7144,3.7798,3.912,3.9602,3.9602,0.0,0.0,0.0,0.0,0.0,0.0,0.0,0.0,0.0,0.0,2.0873,2.1265,2.1327,2.1667,2.1545,2.059,2.1002,2.1326,2.1326,2.0947,2.0898,2.1277,2.0947,2.0738,2.0804,2.125,0.0,0.0,0.0,0.0,0.0,0.0,0.0,0.0,0.0,0.0,2.0777,2.1904,2.2387,2.2467,2.3054,2.3642,2.4112,2.4112,2.4151,2.4379,2.5508,2.5937,2.6212,2.741,2.7745,2.7625,2.7715,2.8113,2.8607,2.8607,2.9071,2.9699,3.0253,3.0503,3.0904,3.2047,3.2901,0.0,3.3345,3.467,3.5532,3.4325,3.5015,3.5678,3.5015,3.4965,3.5015,3.5015,3.511,3.5202,3.5424,3.5817,3.6217,3.6689,3.6771,3.7053,3.7719,3.7721,3.7523,3.7178,3.7065,3.6327,3.4824,3.4661,3.428,3.3556,3.3447,3.3393,3.3393,3.3393,3.3393,3.3393,3.3422,3.3422,3.3452,3.3643,3.3753,3.378,3.3947,3.4148,3.434,3.434,3.434,3.4507,3.6074,3.6807,3.7155,3.885,3.9445,3.9489,2.3646,0.0,0.0,0.0,0.0,0.0,0.0,0.0,0.0,0.0,2.1194,2.139,2.1377,2.1148,2.0894,2.0677,2.0782,2.0848,2.0848,2.0749,2.0749,2.0848,2.0749,2.0922,2.1328,2.1459,2.1747,0.0,0.0,0.0,0.0,0.0,0.0,0.0,0.0,0.0,0.0,2.193,2.2415,2.2507,2.3511,2.4008,2.4112,2.4112,2.44,2.4971,2.6201,2.6905,2.7541,2.8769,2.8472,2.7715,2.8218,2.8487,2.8607,2.8607,2.9071,2.9609,2.9729,3.05,3.1282,3.1558,3.2423,0.0,3.4487,3.4597,3.4706,3.5431,3.533,3.5065,3.4932,3.5396,3.5794,3.5794,3.6253,3.6384,3.5711,3.649,3.7342,3.8033,3.8391,3.8706,3.9012,3.8451,3.8052,3.7957,3.7392,3.6562,3.5639,3.4969,3.4534,3.4371,3.3737,3.3393,3.3393,3.3393,3.3393,3.3393,3.3549,3.3643,3.3661,3.3842,3.4023,3.4197,3.4221,3.434,3.4539,3.4539,3.4539,3.4652,3.5664,3.61,3.6329,3.7962,3.8544,3.8657,2.3274,0.0,0.0,0.0,0.0,0.0,0.0,0.0,0.0,2.0454,2.0818,2.0926,2.0633,2.0677,2.0594,2.0257,2.0542,2.0699,2.0699,2.0699,2.0699,2.0699,2.0699,2.0974,2.1498,2.1786,2.223,0.0,0.0,0.0,0.0,0.0,0.0,0.0,0.0,0.0,0.0,2.2048,2.2518,2.2871,2.3759,2.4112,2.4112,2.4112,2.4458,2.5105,2.598,2.6885,2.7773,2.8405,2.818,2.7685,2.7979,2.8083,2.8083,2.8083,2.8323,2.8756,2.9282,3.0158,3.1041,3.1628,3.2708,0.0,0.0,3.4333,3.4806,3.5428,3.526,3.511,3.5459,3.5542,3.5754,3.6357,3.6457,3.6749,3.7565,3.7836,3.8216,3.8947,3.9325,3.9461,3.9283,3.8886,3.8506,3.821,3.7812,3.7232,3.6435,3.5639,3.5023,3.4624,3.3828,3.3393,3.3393,3.3393,3.3452,3.3549,3.3643,3.3753,3.386,3.4049,3.4197,3.4293,3.4404,3.4517,3.4602,3.4602,3.4602,3.4677,3.5559,3.6141,3.6629,3.785,3.8582,3.8995,2.2815,0.0,0.0,0.0,0.0,0.0,0.0,0.0,0.0,1.9824,2.0213,2.0369,2.0018,2.039,2.0568,2.0165,2.0348,2.0633,2.0856,2.0764,2.0751,2.0869,2.0974,2.1249,2.1668,2.223,2.2805,0.0,0.0,0.0,0.0,0.0,0.0,0.0,0.0,0.0,0.0,2.2283,2.2792,2.3263,2.3877,2.4112,2.4112,2.4229,2.4563,2.5118,2.5742,2.6654,2.7625,2.7625,2.7625,2.7625,2.7625,2.7625,2.7625,2.7625,2.7625,2.7831,2.8847,2.9728,3.0647,3.1776,3.306,3.3925,0.0,0.0,0.0,3.5088,3.5105,3.5318,3.5902,3.5566,3.5564,3.6514,3.649,3.7074,3.9297,3.9292,3.9278,3.9921,3.9917,3.9801,3.9607,3.9445,3.9031,3.8264,3.8337,3.8065,3.7283,3.6472,3.5729,3.5077,3.428,3.3791,3.3628,3.3658,3.3684,3.3698,3.378,3.3895,3.4074,3.4269,3.434,3.4381,3.4517,3.4602,3.4602,3.4602,3.4602,3.4658,3.5371,3.6047,3.6723,3.7718,3.8507,3.9169,2.2122,2.1874,0.0,0.0,0.0,0.0,0.0,0.0,2.0395,1.9864,1.9876,2.0078,2.0532,2.0669,2.0882,2.1276,2.0453,2.0335,2.1342,2.0936,2.0935,2.1394,2.1904,2.2258,2.2323,2.2831,2.3406,2.4021,0.0,0.0,0.0,0.0,0.0,0.0,2.2219,2.2258,2.235,2.2884,2.3158,2.3263,2.3877,2.4112,2.4171,2.4677,2.4948,2.5174,2.619,2.7049,2.7625,2.7625,2.7625,2.7625,2.7625,2.7625,2.7625,2.7625,2.7625,2.7725,2.8266,2.9309,3.0513,3.1693,3.2943,3.3961,3.4539,0.0,3.5088,3.5088,0.0,3.5325,3.5408,0.0,0.0,3.5895,3.7005,3.8199,3.9183,4.0339,4.1153,4.1412,4.0293,3.9968,4.1288,4.0764,3.975,3.8301,3.8844,3.8898,3.8101,3.7286,3.6816,3.6725,3.5946,3.5186,3.448,3.4652,3.4383,3.3698,3.4074,3.4245,3.4269,3.4473,3.458,3.458,3.4602,3.4602,3.4602,3.4602,3.4602,3.4602,3.4714,3.4789,3.5071,3.6648,3.7286,3.7587,2.156,2.1254,0.0,0.0,0.0,0.0,0.0,0.0,2.0011,1.9797,1.9731,1.9951,2.0446,2.0291,2.0501,2.1339,2.1011,2.1106,2.1969,2.1799,2.1773,2.1995,2.2284,2.2572,2.2844,2.3093,2.3511,2.4112,2.4112,0.0,0.0,0.0,0.0,0.0,2.2387,2.2557,2.2871,2.3106,2.342,2.3759,2.4021,2.4112,2.4171,2.4778,2.5149,2.5516,2.6425,2.6668,2.6642,2.7082,2.7218,2.7229,2.767,2.779,2.7775,2.814,2.8174,2.8271,2.9088,2.995,3.0806,3.1585,3.2541,3.335,3.3665,3.3868,3.4102,3.4566,0.0,0.0,0.0,0.0,0.0,0.0,3.7584,3.8264,3.9797,3.9733,4.0185,4.2006,4.174,4.1325,4.1053,4.0311,3.9405,3.8264,3.8934,3.9043,3.8228,3.7431,3.7011,3.7011,3.6218,3.5483,3.4798,3.4867,3.4596,3.4049,3.4221,3.4363,3.4473,3.4561,3.4602,3.4602,3.4602,3.4602,3.4602,3.4602,3.4602,3.4602,3.4602,3.4902,3.5446,3.6141,3.6686,3.7192,2.0837,0.0,0.0,0.0,0.0,0.0,0.0,0.0,1.9515,1.9613,1.9625,1.9826,2.0346,2.0273,2.0569,2.1506,2.1516,2.1754,2.2583,2.2465,2.2452,2.2583,2.2753,2.2962,2.321,2.338,2.3681,2.4112,0.0,0.0,0.0,0.0,0.0,0.0,2.2871,2.3093,2.3459,2.3459,2.372,2.4112,2.4112,2.4274,2.4593,2.4871,2.5424,2.605,2.6587,2.6494,2.621,2.6803,2.7043,2.7225,2.7771,2.7984,2.8155,2.8732,2.8826,2.8919,2.9777,3.0489,3.1087,3.1576,3.233,3.2967,3.295,3.3064,3.3371,3.4023,3.4167,0.0,0.0,0.0,3.623,3.7392,0.0,3.8187,3.966,3.9278,3.9607,4.1751,4.2372,4.2031,4.0637,4.0419,3.984,3.8608,3.926,3.926,3.8246,3.7631,3.7323,3.7323,3.6761,3.6181,3.5564,3.5373,3.509,3.4628,3.4452,3.4473,3.4602,3.4602,3.4602,3.4602,3.4602,3.4602,3.4602,3.4602,3.4623,3.4645,3.4604,3.5042,3.5711,3.5848,3.6273,3.6821,1.9736,1.9837,0.0,0.0,1.9344,0.0,1.9593,1.9177,1.8977,1.9481,1.9479,1.9721,2.0346,2.1001,2.1587,2.2138,2.1786,2.1955,2.3119,2.2675,2.2609,2.3158,2.3746,2.3799,2.3223,2.3785,2.4099,2.4112,0.0,0.0,0.0,0.0,0.0,0.0,2.406,2.4073,2.4086,2.4086,2.4099,2.4112,2.4112,2.4765,2.5672,2.5138,2.5676,2.6748,2.6796,2.6844,2.6988,2.7018,2.7443,2.7902,2.7783,2.8155,2.8779,2.9225,2.9361,2.9496,2.9935,3.0631,3.132,3.1833,3.2545,3.3098,3.3004,3.3074,3.3305,3.3738,3.3917,3.4116,3.4504,3.4889,3.5135,3.5205,3.689,0.0,0.0,3.9514,4.0474,4.0546,4.1252,4.1433,4.06,4.1886,4.1832,3.9514,4.0057,3.9804,3.8264,3.8174,3.8156,3.8156,3.8138,3.7834,3.7211,3.6646,3.6046,3.5448,3.4869,3.4583,3.4602,3.4602,3.4602,3.4602,3.4602,3.4602,3.4602,3.4602,3.4666,3.4788,3.4645,3.4811,3.5205,3.5708,3.5916,3.6092,1.9198,0.0,0.0,1.9211,1.8705,1.8556,1.8939,1.913,1.9337,1.9835,1.9614,1.9654,2.0153,2.0534,2.1081,2.2031,2.2414,2.2898,2.3728,2.3629,2.3616,2.3799,2.4008,2.4021,2.3825,2.4008,2.4112,2.4112,2.4112,0.0,0.0,0.0,0.0,0.0,0.0,2.4112,2.4112,2.4112,2.4112,2.4112,2.4203,2.4694,2.5439,2.545,2.5749,2.6148,2.6257,2.5788,2.5299,2.6214,2.6673,2.6979,2.7874,2.8451,2.8935,2.9512,2.9821,3.0123,3.0576,3.0842,3.1041,3.124,3.1482,3.1691,3.1674,3.1385,3.1557,3.2943,3.2814,3.3144,3.5367,3.5812,3.6165,3.7032,3.7745,3.8192,0.0,3.8776,3.9385,3.9899,4.0525,4.0619,3.9858,4.0256,3.9804,3.7938,3.8536,3.8518,3.7449,3.7902,3.8192,3.8192,3.8322,3.8125,3.7503,3.6906,3.6335,3.5768,3.4974,3.4602,3.4602,3.4602,3.4602,3.4602,3.4602,3.4602,3.4604,3.4753,3.4832,3.487,3.4959,3.5078,3.5165,3.523,3.5325,3.5488,1.9159,1.9114,1.9174,1.9079,1.8782,1.8742,1.9142,1.9626,2.0041,2.0358,2.0129,2.004,2.0442,2.0774,2.1374,2.2384,2.31,2.3662,2.4054,2.4112,2.4112,2.4112,2.4112,2.4112,2.4112,2.4321,2.4321,2.4112,2.4321,2.4321,0.0,0.0,0.0,0.0,0.0,2.4112,2.4112,2.4112,2.4112,2.4112,2.4247,2.4851,2.5618,2.5892,2.5821,2.5631,2.5682,2.5223,2.4771,2.592,2.6473,2.6826,2.8154,2.8854,2.9348,3.0011,3.0368,3.0617,3.0935,3.1177,3.1271,3.1059,3.1217,3.1375,3.1122,3.084,3.0991,3.2031,3.216,3.2581,3.4196,3.5388,3.6317,3.6837,3.7395,3.7667,0.0,3.7767,3.824,3.8692,3.9595,4.0177,4.0042,3.9872,3.9184,3.7744,3.8063,3.7976,3.7265,3.769,3.8109,3.8451,3.859,3.8497,3.8174,3.7511,3.6883,3.631,3.5465,3.4902,3.4602,3.4602,3.4602,3.4583,3.4645,3.4689,3.4713,3.4889,3.5013,3.5098,3.517,3.5273,3.5353,3.5111,3.5139,3.5301,1.9511,1.9171,1.9044,1.9576,1.9571,1.9648,2.0074,2.0587,2.0939,2.0961,2.0939,2.093,2.1053,2.1678,2.2347,2.3027,2.3721,2.4112,2.4112,2.4112,2.4112,2.4112,2.4112,2.4112,2.4112,2.4674,2.47,2.4151,2.47,0.0,0.0,0.0,0.0,0.0,2.4112,2.4112,2.4112,2.4112,2.4112,2.4112,2.4305,2.5106,2.624,2.6265,2.5836,2.5277,2.5257,2.5277,2.5426,2.6149,2.6842,2.7566,2.8533,2.9259,2.9968,3.0757,3.0975,3.1015,3.1015,3.152,3.1931,3.132,3.1732,3.2144,3.145,3.1555,3.1649,3.1357,3.2092,3.2496,3.1472,3.3755,3.5584,3.4896,3.605,3.6739,3.5928,3.665,3.7235,3.7057,3.8492,3.9905,4.0972,4.0623,3.9865,3.8748,3.853,3.8169,3.7571,3.7645,3.8069,3.8873,3.891,3.9007,3.9183,3.8409,3.771,3.708,3.6291,3.5446,3.4602,3.4623,3.4623,3.4623,3.4747,3.4831,3.4925,3.5069,3.5232,3.5386,3.5278,3.5419,3.5667,3.5347,3.5341,3.5516,1.9816,2.0709,2.1454,2.1592,2.1028,2.0653,2.1144,2.1013,2.1059,2.1352,2.109,2.093,2.1053,2.1678,2.2347,2.3027,2.3721,2.4112,2.4112,2.4112,2.4112,2.4112,2.4112,2.4112,2.4112,2.4674,2.4896,2.4753,2.4896,0.0,2.4739,0.0,0.0,0.0,0.0,2.4112,2.4112,2.4112,2.4157,2.4305,2.5021,2.519,2.5107,2.5544,2.5304,2.4836,2.5651,2.5676,2.5426,2.6149,2.6842,2.7612,2.8663,2.9383,2.9924,3.0477,3.0878,3.1151,3.1151,3.1286,3.1388,3.1241,3.1732,3.2343,3.2436,3.2538,3.2887,3.3932,3.3476,3.3387,3.5155,3.5657,3.6127,3.7105,3.7249,3.6924,3.614,3.6509,3.7081,3.7683,3.7062,3.7248,3.9038,3.8551,3.7796,3.7072,3.7386,3.7338,3.675,3.8272,3.9068,3.891,3.9064,3.9156,3.921,3.8565,3.7858,3.7103,3.6343,3.5496,3.4583,3.4687,3.4747,3.4749,3.4851,3.4944,3.5069,3.5311,3.5432,3.55,3.559,3.5689,3.5765,3.5679,3.5689,3.5717,2.0904,2.2095,2.2936,2.2936,2.2302,2.1887,2.216,2.2149,2.2062,2.1931,2.1483,2.1386,2.1836,2.1996,2.2482,2.3471,2.3865,2.4112,2.4112,2.4112,2.4112,2.4112,2.4112,2.4112,2.4112,2.4945,2.5249,2.5022,2.5249,0.0,2.5022,0.0,0.0,0.0,0.0,2.4112,2.4112,2.4157,2.4421,2.4851,2.5398,2.5511,0.0,2.5819,2.5483,2.494,2.5588,2.5413,2.5025,2.6026,2.6746,2.7527,2.8939,2.975,3.0182,3.0617,3.0935,3.1112,3.1112,3.1112,3.1027,3.0801,3.1258,3.1817,3.1863,3.2258,3.2808,3.3499,3.3351,3.3394,3.4214,3.5168,3.6109,3.6997,3.6934,3.6358,3.5206,3.5687,3.6329,3.6734,3.6656,3.7058,3.818,3.6783,3.6168,3.7034,3.6961,3.6757,3.6525,3.8412,3.9246,3.8734,3.8794,3.8995,3.9427,3.867,3.7906,3.7099,3.6678,3.5832,3.4583,3.4747,3.481,3.4851,3.498,3.5114,3.5283,3.55,3.5609,3.564,3.5754,3.5799,3.5799,3.5834,3.5834,3.5799,2.2302,2.3274,2.3919,2.3919,2.3569,2.3241,2.311,2.3296,2.3132,2.2237,2.1756,2.1834,2.2603,2.2315,2.2616,2.3995,2.4112,2.4112,2.4112,2.4047,2.4034,2.4112,2.4047,2.4034,2.4229,2.5271,2.5606,2.5187,2.5606,0.0,0.0,0.0,0.0,0.0,0.0,2.4112,2.4157,2.435,2.4851,2.5439,2.563,2.5963,2.6344,2.6366,2.5849,2.5179,2.5179,2.4918,2.4764,2.5889,2.6782,2.7667,2.9274,3.014,3.0559,3.0918,3.1015,3.0998,3.0914,3.0881,3.0735,3.0104,3.062,3.1181,3.0886,3.1777,3.2488,3.1956,3.2733,3.3103,3.1582,3.3712,3.5652,3.5543,3.572,3.5329,3.3835,3.4636,3.5367,3.5295,3.6545,0.0,3.7846,3.581,3.5443,3.7877,3.7192,3.6702,3.6758,3.8316,3.8995,3.8546,3.8395,3.879,3.9717,3.8903,3.7991,3.6975,3.6998,3.6058,3.4325,3.4562,3.4642,3.462,3.4923,3.5114,3.5187,3.5445,3.565,3.5799,3.5799,3.5818,3.5807,3.5878,3.5852,3.583,2.3209,2.4257,2.4923,2.4923,2.4847,2.4519,2.3722,2.2663,2.1756,2.1188,2.1035,2.1319,2.2118,2.2161,2.2616,2.3995,2.4112,2.4112,2.4112,2.3642,2.3589,2.4099,2.3642,2.3817,2.4835,2.5445,2.5986,2.6378,2.5986,2.5761,0.0,0.0,0.0,0.0,0.0,2.4157,2.4305,2.4964,2.5342,2.5631,2.6148,2.606,2.5659,2.5545,2.5078,2.4487,2.4487,2.5149,2.6057,2.6257,2.7377,2.8849,2.9581,3.014,3.0601,3.1015,3.1151,3.1016,3.0425,3.0256,3.0087,2.9364,3.0421,3.1696,3.1987,3.3404,3.4329,3.3298,3.3798,3.4099,3.3158,3.4055,3.4772,3.4181,3.4381,3.4303,3.3337,3.4106,3.5004,3.5712,3.4854,3.503,3.7152,3.7306,3.756,3.819,3.851,3.8238,3.7167,3.8484,3.9102,3.8693,3.8634,3.9031,3.9848,3.9694,3.8521,3.6364,3.6425,3.5154,3.2807,3.3598,3.3644,3.3127,3.3949,3.4012,3.3587,3.4378,3.515,3.5799,3.5799,3.5842,3.5878,3.5825,3.5851,3.588,2.4301,2.5054,2.5469,2.5218,2.476,2.4104,2.3143,2.1985,2.1221,2.1232,2.133,2.1647,2.2357,2.2579,2.304,2.3995,2.4112,2.4112,2.4112,2.355,2.3598,2.4536,2.3976,2.4053,2.4956,2.5813,2.6413,2.6693,2.639,2.6262,2.6316,0.0,0.0,2.4112,0.0,2.4421,2.4794,2.5287,2.5877,2.65,2.65,2.6296,2.5864,2.5477,2.4902,2.4302,2.4302,2.4964,2.587,2.6041,2.6851,2.7939,2.8746,2.9608,3.0325,3.0538,3.0903,3.1038,3.0311,3.0108,2.9837,2.867,2.9467,3.0525,3.0582,3.17,3.2608,3.2231,3.2795,3.3404,3.3538,3.3915,3.3991,3.3285,3.3815,3.4027,3.3208,3.3612,3.4132,3.4545,3.4287,3.4576,3.5845,3.6607,3.7009,3.6986,3.766,3.7403,3.5873,3.8094,3.8809,3.7489,3.743,3.8017,3.9332,3.8435,3.737,3.6196,3.5761,3.4453,3.2426,3.3451,3.3731,3.3484,3.4494,3.4775,3.4544,3.4986,3.543,3.5799,3.5842,3.584,3.585,3.5853,3.5879,3.5909,2.5109,2.5404,2.5448,2.4956,2.4071,2.3143,2.2496,2.1614,2.1218,2.1437,2.1575,2.1957,2.2802,2.3046,2.3339,2.4054,2.4112,2.406,2.3942,2.348,2.3681,2.4774,2.4327,2.4484,2.5279,2.6199,2.6759,2.6877,2.6933,2.6889,2.6763,2.5988,2.5295,2.4722,2.4709,2.4959,2.5508,2.5823,2.6505,2.7274,2.6696,2.6411,2.6241,2.541,2.4779,2.4302,2.4302,2.4683,2.5299,2.5683,2.6278,2.7006,2.8003,2.9025,2.9871,2.9871,3.0277,3.0565,2.982,2.9617,2.9296,2.7926,2.8442,2.9242,2.8969,2.9781,3.0639,3.0713,3.1266,3.2092,3.3241,3.335,3.3125,3.2588,3.325,3.3556,3.2754,3.309,3.3344,3.3177,3.4086,3.4619,3.4357,3.5287,3.5759,3.5449,3.644,3.644,3.4973,3.7555,3.8329,3.6652,3.673,3.7547,3.9089,3.7566,3.6615,3.6255,3.5192,3.3939,3.253,3.3372,3.3805,3.3935,3.4977,3.5456,3.5527,3.5535,3.564,3.5811,3.5872,3.586,3.5822,3.589,3.5898,3.5896,2.5164,2.488,2.4454,2.3951,2.3078,2.2474,2.2536,2.2092,2.1578,2.119,2.1163,2.1624,2.2921,2.3113,2.3339,2.4054,2.4112,2.389,2.3341,2.3177,2.3433,2.4137,2.4055,2.477,2.65,2.664,2.6987,2.7501,2.757,2.731,2.6735,2.7297,2.7256,2.6694,2.6084,2.6022,2.639,2.6938,2.7297,2.7395,2.6641,2.6366,2.6241,2.4902,2.4364,2.4302,2.4302,2.4564,2.4997,2.541,2.6451,2.7689,2.8168,2.8674,2.9093,2.9093,2.9127,2.9008,2.8247,2.8009,2.7841,2.7012,2.7868,2.8947,2.8908,2.9969,3.0758,3.0043,3.0126,3.0782,3.2326,3.2256,3.1953,3.1901,3.2128,3.2028,3.122,3.2422,3.3139,3.2486,3.3826,3.4282,3.2949,3.4257,3.492,3.4225,3.6141,3.7011,3.6179,3.7167,3.7719,3.7561,3.8344,3.9203,4.0158,3.9222,3.7982,3.6455,3.4852,3.3651,3.2851,3.2954,3.3068,3.3239,3.4148,3.4565,3.4641,3.4697,3.5145,3.5802,3.5869,3.5901,3.5898,3.5895,3.5903,3.5907,2.5451,2.488,2.4157,2.4085,2.3802,2.3398,2.2838,2.2598,2.246,2.2297,2.2286,2.247,2.3027,2.3153,2.3264,2.3519,2.3289,2.3086,2.3137,2.2841,2.3173,2.4422,2.449,2.5017,2.6037,2.6804,2.7388,2.7587,2.8031,2.8175,2.8049,2.7897,2.7357,2.6503,2.6368,2.6551,2.7004,2.7297,2.768,2.7951,2.6811,2.638,2.6241,2.4841,2.4302,2.4302,2.4302,2.4574,2.4942,2.5351,2.6043,2.6796,2.7234,2.7767,2.8281,2.8281,2.8619,2.8805,2.8027,2.7789,2.7673,2.7144,2.7594,2.8217,2.8386,2.9008,2.9481,2.9156,2.9234,2.9752,3.0956,3.1117,3.0942,3.0597,3.1014,3.1279,3.0998,3.1544,3.1864,3.1673,3.2275,3.2477,3.1879,3.2953,3.3538,3.3242,3.5944,3.7242,3.6458,3.7202,3.7677,3.7693,3.7578,3.8151,3.9508,3.8667,3.7884,3.7196,3.5063,3.3911,3.3582,3.2694,3.289,3.3999,3.4863,3.5286,3.5339,3.5326,3.5237,3.5127,3.5691,3.5586,3.517,3.5706,3.59,3.589,2.5468,2.4837,2.4096,2.4133,2.4054,2.3713,2.3001,2.2994,2.3121,2.333,2.3399,2.3399,2.3399,2.3418,2.3463,2.3448,2.3078,2.2911,2.3032,2.2876,2.328,2.4438,2.4736,2.5213,2.5946,2.6861,2.748,2.774,2.8364,2.863,2.8616,2.8175,2.7605,2.7059,2.7035,2.7247,2.763,2.773,2.8008,2.8288,2.6934,2.638,2.6241,2.4841,2.4385,2.4492,2.4492,2.4823,2.5313,2.5577,2.5944,2.6315,2.6607,2.7063,2.7486,2.7486,2.7875,2.8197,2.7638,2.7486,2.7419,2.7255,2.7461,2.7771,2.8047,2.8352,2.8612,2.8687,2.8839,2.9246,3.022,3.0544,3.056,3.0114,3.0547,3.0847,3.0658,3.0882,3.1011,3.0905,3.1561,3.1762,3.1051,3.2256,3.2993,3.2711,3.5362,3.6604,3.5821,3.7005,3.7597,3.7349,3.7273,3.7693,3.861,3.8053,3.763,3.736,3.4937,3.391,3.4141,3.289,3.2981,3.4206,3.5076,3.5339,3.5145,3.5368,3.5106,3.4658,3.5293,3.5322,3.5067,3.5674,3.5904,3.5897,2.5075,2.4716,2.4258,2.3785,2.3345,2.3016,2.3067,2.31,2.3352,2.3995,2.4112,2.4112,2.4112,2.4112,2.4081,2.4014,2.396,2.3712,2.3042,2.3483,2.3829,2.3909,2.4491,2.5409,2.6766,2.6811,2.7191,2.802,2.852,2.852,2.8,2.8025,2.8427,2.9114,2.8465,2.8261,2.8411,2.8411,2.8411,2.8288,2.6934,2.638,2.6241,2.4841,2.4533,2.4902,2.4902,2.5427,2.6104,2.6087,2.635,2.6691,2.6691,2.6708,2.6708,2.6708,2.6708,2.6725,2.6708,2.6708,2.6808,2.7117,2.7461,2.7771,2.8047,2.8352,2.8662,2.8858,2.8989,2.941,3.0416,3.0747,3.0884,3.0884,3.0941,3.0713,2.994,3.0595,3.0942,3.0202,3.2276,3.2822,3.0452,3.2497,3.3624,3.2749,3.4273,3.4885,3.4063,3.6356,3.7349,3.6547,3.8113,3.8572,3.7712,3.783,3.7471,3.6584,3.4173,3.3495,3.4361,3.363,3.3293,3.3351,3.425,3.4133,3.3395,3.4251,3.4608,3.4617,3.4683,3.5182,3.5889,3.5898,3.5905,3.5905,2.4988,2.4205,2.3642,2.3923,2.4198,2.4208,2.3824,2.4116,2.4471,2.466,2.4734,2.4835,2.5203,2.4556,2.4068,2.3986,2.3645,2.3245,2.2962,2.3103,2.339,2.3821,2.4388,2.5168,2.6228,2.6617,2.7127,2.7855,2.8571,2.8885,2.8824,2.8921,2.8834,2.867,2.8458,2.8335,2.8411,2.8411,2.815,2.7642,2.6749,2.6087,2.5564,2.4656,2.4533,2.4902,2.4902,2.5427,2.6104,2.6104,2.6367,2.6691,2.6691,2.6691,2.6691,2.6691,2.6691,2.6691,2.6691,2.6691,2.6825,2.7382,2.7612,2.7829,2.8344,2.8518,2.8612,2.8687,2.8897,2.92,2.9524,2.9846,3.0077,3.0077,3.0132,3.0108,2.9895,3.0203,3.0392,3.018,3.0882,3.1035,3.0261,3.1465,3.242,3.2672,3.4792,3.5974,3.5725,3.6451,3.7024,3.7311,3.7311,3.746,3.7846,3.8469,3.8093,3.6722,3.5396,3.3771,3.1903,3.2861,3.2979,3.2461,3.3336,3.3587,3.3434,3.4257,3.4271,3.39,3.5065,3.5304,3.51,3.5671,3.5823,3.5688,2.4927,2.4348,2.403,2.4635,2.5057,2.5156,2.4801,2.5074,2.5297,2.5313,2.5314,2.5536,2.6068,2.55,2.4871,2.4319,2.3729,2.3339,2.3246,2.3246,2.3508,2.4063,2.449,2.5277,2.6554,2.69,2.7535,2.8574,2.8879,2.9012,2.8912,2.8978,2.8812,2.8411,2.8411,2.8411,2.8381,2.8134,2.778,2.7319,2.6364,2.5718,2.5241,2.4715,2.4799,2.516,2.5313,2.5762,2.6315,2.6315,2.6505,2.6691,2.6691,2.6691,2.6691,2.6691,2.6691,2.6691,2.6691,2.6791,2.7021,2.7565,2.7771,2.8,2.8492,2.8587,2.8612,2.8712,2.892,2.9126,2.9209,2.9472,2.9701,2.9701,2.9773,2.9857,2.9888,3.0038,3.0161,3.0204,3.0491,3.0548,3.0223,3.1255,3.1904,3.1771,3.412,3.542,3.5078,3.6279,3.6891,3.6776,3.6616,3.6834,3.7448,3.8036,3.7681,3.6361,3.4923,3.3001,3.073,3.1838,3.2213,3.2036,3.2599,3.2877,3.2948,3.3451,3.3568,3.3505,3.4525,3.4983,3.5139,3.5585,3.567,3.556,2.4925,2.5077,2.5183,2.572,2.5778,2.5819,2.5812,2.5783,2.5837,2.5837,2.5837,2.6068,2.6683,2.673,2.6272,2.4999,2.4326,2.3994,2.3902,2.39,2.4151,2.4623,2.4759,2.5631,2.7396,2.7476,2.8243,2.9793,2.9348,2.892,2.8493,2.8444,2.8444,2.8444,2.8396,2.8411,2.8365,2.7688,2.7365,2.7211,2.5901,2.533,2.525,2.5035,2.5198,2.5577,2.598,2.635,2.6691,2.6691,2.6691,2.6691,2.6691,2.6691,2.6691,2.6691,2.6691,2.6691,2.6691,2.6956,2.7276,2.7612,2.7926,2.8228,2.8518,2.8587,2.8662,2.8858,2.8989,2.9148,2.9332,2.955,2.972,2.972,2.9806,2.9905,2.9905,3.0064,3.0204,3.0204,3.0911,3.1083,3.028,3.1675,3.2019,3.0581,3.2722,3.3757,3.3012,3.5933,3.6889,3.5283,3.6078,3.656,3.6628,3.676,3.6375,3.5505,3.3067,3.1488,3.0703,3.0709,3.1178,3.2006,3.2077,3.2129,3.2192,3.2241,3.2744,3.3487,3.3472,3.4471,3.583,3.56,3.5492,3.5469,2.5688,2.5619,2.5675,2.5786,2.5786,2.5786,2.5811,2.5783,2.596,2.6457,2.651,2.6721,2.7306,2.7361,2.7177,2.6856,2.6374,2.5816,2.5075,2.5126,2.517,2.5192,2.5121,2.5598,2.6719,2.7259,2.8243,2.9793,2.9601,2.9467,2.9454,2.909,2.8904,2.8904,2.8573,2.8411,2.8365,2.7688,2.7088,2.6594,2.5987,2.5466,2.5019,2.5262,2.5615,2.598,2.6068,2.635,2.6691,2.6691,2.6691,2.6691,2.6691,2.6691,2.6691,2.6691,2.6691,2.6691,2.6691,2.6956,2.7276,2.7612,2.8083,2.8492,2.8587,2.8587,2.8612,2.8662,2.8897,2.9107,2.9169,2.9513,2.9773,2.9773,2.9926,3.0038,3.0038,3.0147,3.0204,3.0204,3.0385,3.0423,3.0213,3.1211,3.222,3.3116,3.4297,3.5197,3.5649,3.6488,3.6445,3.5388,3.5617,3.5823,3.5933,3.5977,3.5262,3.3852,3.1929,3.0936,3.0774,3.0781,3.125,3.2081,3.2088,3.2483,3.3135,3.3754,3.4135,3.4374,3.5029,3.5402,3.559,3.5527,3.538,3.5181,2.5853,2.5783,2.5892,2.6176,2.6229,2.6283,2.6602,2.6602,2.6759,2.7152,2.7203,2.7444,2.8042,2.8076,2.8108,2.8338,2.7592,2.6736,2.5926,2.5986,2.5911,2.5738,2.5652,2.6089,2.7052,2.7811,2.882,3.014,3.0038,2.9951,2.9793,2.9528,2.9438,2.9377,2.859,2.828,2.8202,2.7159,2.652,2.6143,2.5837,2.5511,2.5198,2.5615,2.5908,2.6123,2.6315,2.6505,2.6691,2.6691,2.6691,2.6691,2.6691,2.6791,2.6923,2.6923,2.6923,2.6923,2.6923,2.7272,2.7695,2.8027,2.8362,2.8587,2.8587,2.8587,2.8637,2.8712,2.8966,2.9323,2.98,2.987,2.9973,3.0387,3.0257,3.0102,3.0102,3.0161,3.0338,3.0739,3.0442,3.0513,3.1312,3.1851,3.2544,3.3526,3.471,3.5449,3.5528,3.601,3.6026,3.5422,3.5519,3.5813,3.629,3.556,3.4365,3.2745,3.1382,3.0755,3.0802,3.0799,3.1499,3.2656,3.1841,3.2228,3.3403,3.3444,3.3437,3.3524,3.47,3.5078,3.4971,3.5232,3.5228,3.5088,2.6054,2.6054,2.6215,2.6721,2.6878,2.7137,2.766,2.7795,2.7894,2.8008,2.8057,2.8238,2.8732,2.8873,2.9088,2.9496,2.8602,2.7632,2.6814,2.6766,2.6586,2.6208,2.621,2.6651,2.7603,2.8518,2.9534,3.0617,3.0617,3.0393,3.0027,2.9924,2.9924,2.9848,2.8814,2.8275,2.8084,2.6741,2.6122,2.5948,2.5718,2.5577,2.5652,2.6052,2.621,2.6245,2.6573,2.6691,2.6691,2.6691,2.6691,2.6725,2.6758,2.6989,2.7213,2.7276,2.7289,2.7321,2.7276,2.7678,2.8183,2.8518,2.8677,2.8793,2.8793,2.8909,2.9046,2.9106,2.9329,2.977,3.0488,3.0242,3.0205,3.1075,3.0586,3.0185,3.0318,3.0261,3.0546,3.1426,3.0879,3.1072,3.2697,3.2968,3.3089,3.3216,3.4654,3.524,3.4544,3.5329,3.5706,3.5463,3.5631,3.5965,3.6431,3.5094,3.3629,3.209,3.1354,3.1079,3.1181,3.1063,3.1953,3.3504,3.1889,3.2175,3.3721,3.2981,3.2628,3.2667,3.3964,3.4464,3.4475,3.4917,3.5088,3.5053,2.7291,2.7291,2.7357,2.7458,2.778,2.811,2.8319,2.8717,2.9027,2.9134,2.9134,2.918,2.9271,2.9761,3.0081,3.0166,3.0442,2.9822,2.7991,2.7964,2.7599,2.664,2.6624,2.6674,2.686,2.8264,2.9702,3.1095,3.1095,3.1055,3.0975,3.0576,3.0393,3.0393,2.9811,2.9205,2.8533,2.7743,2.7034,2.6373,2.6114,2.6016,2.6052,2.647,2.6624,2.6624,2.6691,2.6691,2.6691,2.6691,2.6691,2.6758,2.7021,2.7149,2.7244,2.7552,2.7783,2.7908,2.7683,2.7869,2.8183,2.8518,2.9119,2.9608,2.9608,3.0355,3.0846,3.0147,3.036,3.049,2.9963,2.9967,3.0338,3.1137,3.0715,3.0535,3.1264,3.0782,3.0687,3.1584,3.1592,3.1952,3.2967,3.3761,3.4232,3.4268,3.5135,3.5611,3.5491,3.567,3.5781,3.5737,3.5827,3.5229,3.3885,3.3624,3.3035,3.2097,3.196,3.228,3.2966,3.2226,3.2844,3.444,3.3438,3.3955,3.5503,3.5366,3.5177,3.4988,3.5218,3.5174,3.498,3.5064,3.5035,3.4927,2.7625,2.7625,2.766,2.7929,2.8158,2.84,2.8795,2.9042,2.9239,2.9361,2.9451,2.9629,2.9935,3.0251,3.0518,3.074,3.1055,3.06,2.9276,2.8879,2.825,2.7316,2.6911,2.708,2.7909,2.8655,2.9702,3.119,3.119,3.119,3.119,3.0572,3.0291,3.0218,2.8949,2.8207,2.7846,2.7126,2.6618,2.6295,2.6378,2.6436,2.6419,2.6624,2.6691,2.6691,2.6691,2.6825,2.6956,2.6956,2.7085,2.7258,2.7413,2.7547,2.7725,2.7869,2.7992,2.8102,2.8183,2.8291,2.8448,2.8694,2.9424,3.0106,3.0142,3.096,3.1622,3.1334,3.1486,3.1711,3.1895,3.1689,3.1615,3.1977,3.1459,3.0976,3.0919,3.1022,3.1242,3.165,3.1768,3.2337,3.3682,3.3802,3.419,3.5185,3.5606,3.5814,3.585,3.589,3.5919,3.5914,3.589,3.5305,3.4062,3.4055,3.3633,3.2801,3.2795,3.3001,3.3398,3.2982,3.3487,3.4593,3.3721,3.403,3.5142,3.5072,3.4681,3.4237,3.5033,3.4955,3.4459,3.4846,3.4927,3.4849,2.7959,2.808,2.8274,2.8431,2.8715,2.8999,2.9273,2.9496,2.9657,2.9805,2.9892,3.0166,3.0601,3.0707,3.0925,3.1274,3.1389,3.1227,3.0663,2.9757,2.8901,2.8112,2.7623,2.793,2.9211,2.9416,3.0114,3.1329,3.1329,3.1206,3.092,3.0362,3.0023,2.9803,2.8293,2.7528,2.7311,2.6745,2.6412,2.628,2.659,2.6691,2.6691,2.6691,2.6758,2.6825,2.6825,2.7053,2.7307,2.7307,2.7504,2.7742,2.78,2.7982,2.8156,2.821,2.8264,2.8342,2.8543,2.8764,2.9009,2.9185,3.0065,3.0946,3.1083,3.1869,3.2557,3.2505,3.2599,3.2874,3.3451,3.308,3.2707,3.2718,3.2281,3.1705,3.1049,3.1609,3.2145,3.2357,3.2413,3.3056,3.4602,3.4204,3.4438,3.5827,3.5929,3.5942,3.5991,3.5991,3.5994,3.5999,3.5946,3.5525,3.4706,3.4705,3.4361,3.3697,3.371,3.3808,3.3964,3.3768,3.4125,3.4856,3.392,3.3984,3.4719,3.4603,3.4129,3.359,3.473,3.4702,3.4106,3.4661,3.483,3.4747,2.8982,2.9564,2.9801,2.9138,2.9982,3.0554,3.0109,3.0452,3.0855,3.1055,3.1072,3.1112,3.1151,3.1449,3.164,3.1657,3.2003,3.2196,3.2126,3.0742,2.9606,2.8926,2.9144,2.9469,2.9919,3.067,3.122,3.164,3.164,3.1127,3.0192,3.0142,2.9736,2.9059,2.8941,2.8448,2.7737,2.7687,2.7299,2.6657,2.6691,2.6691,2.6691,2.6691,2.6891,2.7149,2.7149,2.7369,2.7654,2.7654,2.7713,2.784,2.8075,2.8237,2.8324,2.8576,2.8779,2.8879,2.8669,2.9289,3.0009,3.0162,3.1506,3.2813,3.2892,3.378,3.4357,3.3564,3.3669,3.3646,3.2921,3.273,3.2718,3.2766,3.2846,3.2894,3.289,3.3061,3.3468,3.4289,3.438,3.4759,3.57,3.5798,3.5851,3.5988,3.5988,3.5991,3.5991,3.5991,3.6001,3.5994,3.6001,3.5581,3.4705,3.47,3.4666,3.4607,3.4608,3.4988,3.5692,3.487,3.4973,3.5749,3.4689,3.468,3.5419,3.5342,3.5172,3.4966,3.5064,3.4963,3.4734,3.479,3.4727,3.4561,2.9074,2.969,3.01,2.9746,3.081,3.1487,3.0734,3.1182,3.1601,3.1479,3.1487,3.16,3.1841,3.2003,3.2074,3.2074,3.2214,3.2317,3.2317,3.1772,3.0464,2.8291,2.8331,2.8893,2.9966,3.0314,3.0742,3.1342,3.1342,3.075,2.9638,2.9195,2.8731,2.8247,2.7774,2.7402,2.7131,2.7131,2.6962,2.6691,2.6691,2.6825,2.7021,2.7021,2.7258,2.7577,2.7577,2.7754,2.801,2.8047,2.8201,2.8378,2.8525,2.8664,2.8952,2.9714,2.9993,3.0129,3.0524,3.0565,3.0631,3.1304,3.2422,3.3389,3.3507,3.4319,3.494,3.4617,3.4713,3.4764,3.4438,3.4414,3.4276,3.3814,3.382,3.3692,3.3171,3.3641,3.3976,3.3802,3.4266,3.4754,3.5123,3.5181,3.5423,3.595,3.5995,3.5996,3.5996,3.5996,3.5996,3.5995,3.5996,3.584,3.5508,3.5507,3.5507,3.5507,3.5469,3.56,3.588,3.5515,3.5457,3.5641,3.5212,3.5179,3.5378,3.5262,3.5168,3.5088,3.4964,3.4869,3.4768,3.458,3.4404,3.4245,2.9528,3.0151,3.0561,3.0201,3.1331,3.1988,3.1183,3.1642,3.2034,3.1856,3.186,3.1986,3.2283,3.2401,3.2468,3.2468,3.2586,3.2636,3.2636,3.2157,3.092,2.8676,2.8588,2.9124,3.0277,3.0574,3.0871,3.1255,3.1255,3.055,2.9193,2.8689,2.8228,2.7741,2.7112,2.6858,2.6858,2.6758,2.6758,2.6858,2.6873,2.71,2.7382,2.7413,2.7636,2.7964,2.7964,2.8129,2.8404,2.8438,2.8633,2.8868,2.891,2.9056,2.9423,3.0465,3.0788,3.1072,3.2163,3.2108,3.1883,3.2487,3.3355,3.4091,3.4213,3.477,3.5258,3.5258,3.5345,3.543,3.543,3.5464,3.523,3.4466,3.4594,3.4514,3.3685,3.4367,3.4739,3.4179,3.4647,3.5028,3.5091,3.5116,3.5351,3.5957,3.5994,3.5991,3.5991,3.5738,3.5716,3.5964,3.5712,3.5708,3.5977,3.5962,3.5964,3.5979,3.5919,3.5883,3.5852,3.576,3.564,3.5504,3.5419,3.5331,3.5219,3.5088,3.5018,3.5001,3.4849,3.4708,3.4539,3.4316,3.408,3.3778,3.051,3.1123,3.1388,3.0642,3.1489,3.2111,3.1517,3.1825,3.2162,3.2283,3.2317,3.2317,3.2317,3.2601,3.2813,3.2813,3.3178,3.3411,3.3393,3.189,3.0846,3.0517,3.0499,3.0646,3.0985,3.1781,3.2,3.1599,3.1599,3.0645,2.8776,2.8776,2.8403,2.7701,2.7338,2.7213,2.7181,2.6858,2.6891,2.7213,2.7272,2.7517,2.7811,2.7869,2.8075,2.8298,2.8298,2.8515,2.881,2.881,2.8984,2.9209,2.9209,2.9357,2.9683,3.0621,3.1016,3.1482,3.3239,3.3853,3.3955,3.3693,3.4375,3.5127,3.5193,3.5304,3.5412,3.5412,3.5438,3.5495,3.5495,3.5507,3.5267,3.4525,3.5138,3.5457,3.471,3.5341,3.5891,3.5898,3.5898,3.5937,3.5992,3.5991,3.5991,3.5991,3.5991,3.5991,3.5991,3.5172,3.5087,3.5864,3.5123,3.5088,3.5889,3.5908,3.5892,3.5909,3.5905,3.5857,3.5791,3.559,3.5485,3.5492,3.5212,3.5086,3.5088,3.4945,3.4869,3.4788,3.4788,3.4517,3.4099,3.4099,3.3752,3.3262,3.0855,3.1587,3.2083,3.1568,3.2647,3.3214,3.2194,3.2599,3.2932,3.2672,3.2634,3.2962,3.3827,3.3993,3.4055,3.4055,3.4165,3.4009,3.3447,3.189,3.0975,3.0864,2.9755,2.9737,3.0966,3.0677,3.074,3.1171,3.0612,2.9645,2.8319,2.8319,2.8081,2.7701,2.7612,2.7565,2.7607,2.75,2.7577,2.7695,2.7707,2.7908,2.8139,2.8166,2.8394,2.8725,2.8725,2.8892,2.9097,2.9123,2.9254,2.9437,2.9626,2.9734,2.999,3.1013,3.1743,3.2476,3.3655,3.4461,3.4955,3.4871,3.5082,3.5335,3.5397,3.5451,3.5464,3.5464,3.556,3.5648,3.5648,3.5709,3.5705,3.5486,3.5666,3.5754,3.5538,3.5735,3.5894,3.5898,3.5898,3.5937,3.5992,3.5962,3.5932,3.5932,3.5935,3.5923,3.5923,3.5669,3.5646,3.589,3.5574,3.5514,3.5757,3.5853,3.5853,3.5764,3.566,3.5579,3.55,3.4822,3.4765,3.5174,3.4544,3.4504,3.4888,3.4849,3.4687,3.445,3.434,3.4105,3.3787,3.3447,3.3232,3.3037,3.1257,3.1769,3.2135,3.1963,3.2823,3.33,3.256,3.2993,3.3301,3.306,3.3019,3.3327,3.4051,3.4135,3.4262,3.457,3.4951,3.475,3.3706,3.2419,3.1561,3.1269,2.9655,2.9325,3.0504,3.0122,3.0173,3.0646,3.0173,2.9406,2.8412,2.836,2.8255,2.8083,2.7982,2.7964,2.7992,2.788,2.7908,2.8075,2.8075,2.8264,2.854,2.8565,2.8779,2.9052,2.9052,2.9188,2.9357,2.9397,2.9514,2.9697,2.9937,3.0019,3.0278,3.1647,3.2149,3.2546,3.3788,3.4526,3.4937,3.4986,3.5219,3.5451,3.5523,3.556,3.5485,3.5175,3.5456,3.566,3.5334,3.5607,3.5908,3.5896,3.5897,3.5898,3.5896,3.5895,3.587,3.5832,3.5828,3.5838,3.5846,3.5813,3.5775,3.5775,3.5463,3.5266,3.5266,3.4652,3.4438,3.4788,3.4356,3.4274,3.4633,3.469,3.4827,3.5057,3.4662,3.4436,3.4345,3.3767,3.3719,3.4063,3.384,3.3923,3.4256,3.4513,3.445,3.4197,3.3961,3.368,3.3372,3.3019,3.2784,3.2588,3.175,3.1787,3.186,3.2056,3.2453,3.2734,3.2766,3.3117,3.3393,3.3393,3.3422,3.3459,3.3531,3.356,3.3869,3.4594,3.5422,3.5376,3.409,3.3192,3.2379,3.1634,2.9991,2.9297,2.974,2.991,3.0064,3.0137,3.0064,2.9643,2.891,2.8815,2.8743,2.8694,2.8471,2.8376,2.8324,2.8102,2.8129,2.8376,2.842,2.8633,2.8929,2.8998,2.9138,2.9293,2.9314,2.9455,2.9626,2.9644,2.9787,2.9972,3.0233,3.0256,3.0552,3.2282,3.2231,3.1955,3.3566,3.411,3.4262,3.4396,3.4971,3.5549,3.5611,3.5621,3.5386,3.4666,3.5191,3.5538,3.4741,3.531,3.5898,3.5891,3.5886,3.5874,3.5866,3.5875,3.5827,3.5721,3.5685,3.5669,3.5618,3.5607,3.5607,3.5607,3.4863,3.4418,3.4418,3.2938,3.2493,3.3277,3.2473,3.2394,3.3197,3.2979,3.3276,3.4064,3.3269,3.2872,3.2867,3.2657,3.2545,3.2574,3.3185,3.3443,3.3468,3.4018,3.413,3.3954,3.3579,3.3225,3.2912,3.2702,3.242,3.2055,3.2248,3.247,3.2687,3.2848,3.2943,3.3055,3.3226,3.3334,3.3393,3.3393,3.352,3.387,3.4509,3.4734,3.4871,3.5055,3.4686,3.4315,3.4016,3.265,3.1782,3.1616,2.9991,2.9156,2.9251,2.9296,2.9673,3.0428,2.978,2.9289,2.8971,2.9172,2.9042,2.8718,2.8855,2.8879,2.8773,2.87,2.8749,2.8839,2.8863,2.8929,2.9017,2.9163,2.9251,2.9314,2.9494,2.9662,2.9855,3.0019,3.0094,3.0271,3.1046,3.0836,3.0515,3.1686,3.1862,3.1777,3.2271,3.3394,3.4452,3.4534,3.5185,3.5822,3.5822,3.5321,3.4783,3.4613,3.4744,3.4823,3.4628,3.5266,3.5816,3.5813,3.5721,3.5657,3.5679,3.567,3.566,3.563,3.562,3.562,3.5588,3.5607,3.5607,3.5607,3.5372,3.5245,3.5245,3.4855,3.4708,3.4901,3.4655,3.4592,3.4717,3.3299,3.3035,3.394,3.3077,3.2896,3.3335,3.2674,3.2561,3.2901,3.3041,3.331,3.3633,3.3668,3.3514,3.3202,3.297,3.2684,3.242,3.2301,3.2126,3.1789,3.2734,3.3184,3.3503,3.3298,3.355,3.3707,3.3436,3.3481,3.3421,3.3011,3.3488,3.3687,3.3311,3.4105,3.467,3.4772,3.5484,3.5268,3.3804,3.3306,3.2505,3.1328,3.0044,2.9394,2.9394,2.9394,2.9578,2.9983,2.958,2.9338,2.9256,2.9379,2.9318,2.9064,2.9169,2.9166,2.9075,2.8998,2.9003,2.9138,2.9138,2.9185,2.9291,2.9395,2.9513,2.9608,2.9698,3.0137,3.0674,3.0819,3.1142,3.15,3.1621,3.1361,3.1127,3.1676,3.1814,3.1819,3.1917,3.3227,3.4371,3.3592,3.4335,3.5231,3.5273,3.5253,3.498,3.4105,3.4592,3.5037,3.4559,3.513,3.5706,3.5697,3.565,3.5568,3.543,3.5367,3.5162,3.4616,3.4894,3.5097,3.5037,3.5037,3.5002,3.4986,3.4552,3.4323,3.4323,3.3908,3.3682,3.3682,3.3617,3.3563,3.3545,3.2541,3.2484,3.3374,3.2241,3.2053,3.2727,3.2131,3.1994,3.2212,3.2471,3.2742,3.2958,3.3063,3.3032,3.2848,3.2521,3.2318,3.2161,3.1965,3.1637,3.1249,3.3332,3.3885,3.4266,3.3912,3.4195,3.4268,3.3782,3.3734,3.3515,3.2855,3.3515,3.3531,3.2138,3.3259,3.4173,3.434,3.6373,3.6422,3.3585,3.402,3.3344,3.1016,3.0152,2.9719,2.9738,2.9738,2.9645,2.9492,2.9533,2.957,2.9551,2.9607,2.957,2.9495,2.9436,2.9395,2.9334,2.9181,2.9185,2.9355,2.9355,2.9455,2.9608,2.9644,2.9751,2.9905,2.9953,3.0552,3.1325,3.138,3.1987,3.2608,3.2113,3.1893,3.1867,3.2077,3.2045,3.1916,3.181,3.3046,3.3984,3.2448,3.3275,3.4443,3.4348,3.4783,3.4804,3.3439,3.4295,3.5057,3.4348,3.4901,3.5456,3.5456,3.5412,3.5309,3.5085,3.5021,3.4606,3.3677,3.4148,3.4519,3.4383,3.4379,3.4357,3.4292,3.3635,3.3202,3.3202,3.2583,3.2225,3.2225,3.2121,3.208,3.208,3.1834,3.2138,3.2976,3.1611,3.1309,3.1986,3.1713,3.1506,3.1381,3.2065,3.226,3.2146,3.2417,3.2519,3.2453,3.2002,3.1839,3.1785,3.1449,3.1027,3.0551,3.4395,3.4485,3.483,3.5597,3.4676,3.4092,3.4833,3.4389,3.391,3.3799,3.4074,3.4152,3.3948,3.4278,3.4517,3.4561,3.5552,3.5405,3.3531,3.3513,3.2802,3.1072,3.0224,2.9806,2.9874,2.9874,2.9855,2.9839,2.9839,2.982,2.9748,3.0,2.9886,2.9514,2.9715,2.9716,2.957,2.9532,2.9532,2.957,2.957,2.9589,2.9626,2.9786,2.9872,2.9937,3.0155,3.0386,3.0543,3.0554,3.1186,3.2068,3.2783,3.2499,3.2051,3.2862,3.2616,3.1914,3.1161,3.2147,3.3142,3.2162,3.3142,3.4129,3.3382,3.277,3.2471,3.2938,3.3079,3.3287,3.3846,3.4439,3.4829,3.4829,3.4679,3.4557,3.4515,3.4454,3.4352,3.4192,3.4285,3.4338,3.4334,3.4292,3.4311,3.4311,3.4153,3.4032,3.4032,3.3929,3.3887,3.3887,3.3759,3.3673,3.3673,3.2933,3.2939,3.3739,3.2564,3.2153,3.2433,3.2375,3.2092,3.1691,3.2547,3.267,3.2262,3.188,3.175,3.1677,3.0988,3.0707,3.0666,3.026,3.0074,2.9864,3.5036,3.5695,3.6311,3.6315,3.6122,3.5929,3.5945,3.5303,3.4693,3.4228,3.434,3.4117,3.3181,3.3152,3.34,3.3888,3.4282,3.3794,3.2123,3.2542,3.2109,3.0463,3.0159,3.0045,3.0075,3.0071,3.0095,3.0117,3.0045,3.0007,2.9972,3.0128,3.0094,2.9886,2.9905,2.9855,2.9751,2.9644,2.9662,2.9787,2.9787,2.9869,3.0007,3.0099,3.0155,3.0196,3.0367,3.1061,3.1922,3.195,3.2861,3.3985,3.3973,3.3727,3.3389,3.3319,3.3361,3.3134,3.1773,3.2934,3.4107,3.2249,3.2913,3.3788,3.2864,3.2244,3.2168,3.3234,3.3612,3.3853,3.4129,3.4337,3.4475,3.4475,3.4386,3.4311,3.4189,3.4074,3.3975,3.3884,3.3453,3.329,3.3552,3.3561,3.3413,3.3099,3.3021,3.301,3.2949,3.2955,3.2973,3.2973,3.2924,3.2893,3.2893,3.238,3.2317,3.267,3.2062,3.208,3.2658,3.2595,3.2197,3.1619,3.2039,3.1986,3.1603,3.13,3.1106,3.0948,3.0642,3.0377,3.0107,2.9657,2.9496,2.9329]},{"header":{"parameterUnit":"m.s-1","parameterCategory":1,"la1":30.6,"la2":28.766,"lo1":-90.7593,"lo2":-88.6598,"dy":0.0162,"dx":0.0183,"nx":116,"ny":114,"refTime":"2023-08-14T12:00:00:Z","depth":0,"parameterNumber":3,"parameterNumberName":"V-component_of_WINDS"},"data":[0.0,0.0,0.0,0.0,0.0,0.0,0.0,0.0,0.0,0.0,0.0,0.0,0.0,0.0,0.0,0.0,0.0,0.0,0.0,0.0,0.0,0.0,0.0,0.0,0.0,0.0,0.0,0.0,0.0,0.0,0.0,0.0,0.0,0.0,0.0,0.0,0.0,0.0,0.0,0.0,0.0,0.0,0.0,0.0,0.0,0.0,0.0,0.0,0.0,0.0,0.0,0.0,0.0,0.0,0.0,0.0,0.0,0.0,0.0,0.0,0.0,0.0,0.0,0.0,0.0,0.0,0.0,0.0,0.0,0.0,0.0,0.0,0.0,0.0,0.0,0.0,0.0,0.0,0.0,0.0,0.0,0.0,0.0,0.0,0.0,0.0,0.0,0.0,0.0,0.0,0.0,0.0,0.0,0.0,0.0,0.0,0.0,0.0,0.0,0.0,0.0,0.0,0.0,0.0,0.0,0.0,0.0,0.0,0.0,0.0,0.0,0.0,0.0,0.0,0.0,0.0,0.0,0.0,0.0,0.0,0.0,0.0,0.0,0.0,0.0,0.0,0.0,0.0,0.0,0.0,0.0,0.0,0.0,0.0,0.0,0.0,0.0,0.0,0.0,0.0,0.0,0.0,0.0,0.0,0.0,0.0,0.0,0.0,0.0,0.0,0.0,0.0,0.0,0.0,0.0,0.0,0.0,0.0,0.0,0.0,0.0,0.0,0.0,0.0,0.0,0.0,0.0,0.0,0.0,0.0,0.0,0.0,0.0,0.0,0.0,0.0,0.0,0.0,0.0,0.0,0.0,0.0,0.0,0.0,0.0,0.0,0.0,0.0,0.0,0.0,0.0,0.0,0.0,0.0,0.0,0.0,0.0,0.0,0.0,0.0,0.0,0.0,0.0,0.0,0.0,0.0,0.0,0.0,0.0,0.0,0.0,0.0,0.0,0.0,0.0,0.0,0.0,0.0,0.0,0.0,0.0,0.0,0.0,0.0,0.0,0.0,0.0,0.0,0.0,0.0,0.0,0.0,0.0,0.0,0.0,0.0,0.0,0.0,0.0,0.0,0.0,0.0,0.0,0.0,0.0,0.0,0.0,0.0,0.0,0.0,0.0,0.0,0.0,0.0,0.0,0.0,0.0,0.0,0.0,0.0,0.0,0.0,0.0,0.0,0.0,0.0,0.0,0.0,0.0,0.0,0.0,0.0,0.0,0.0,0.0,0.0,0.0,0.0,0.0,0.0,0.0,0.0,0.0,0.0,0.0,0.0,0.0,0.0,0.0,0.0,0.0,0.0,0.0,0.0,0.0,0.0,0.0,0.0,0.0,0.0,0.0,0.0,0.0,0.0,0.0,0.0,0.0,0.0,0.0,0.0,0.0,0.0,0.0,0.0,0.0,0.0,0.0,0.0,0.0,0.0,0.0,0.0,0.0,0.0,0.0,0.0,0.0,0.0,0.0,0.0,0.0,0.0,0.0,0.0,0.0,0.0,0.0,0.0,0.0,0.0,0.0,0.0,0.0,0.0,0.0,0.0,0.0,0.0,0.0,0.0,0.0,0.0,0.0,0.0,0.0,0.0,0.0,0.0,0.0,0.0,0.0,0.0,0.0,0.0,0.0,0.0,0.0,0.0,0.0,0.0,0.0,0.0,0.0,0.0,0.0,0.0,0.0,0.0,0.0,0.0,0.0,0.0,0.0,0.0,0.0,0.0,0.0,0.0,0.0,0.0,0.0,0.0,0.0,0.0,0.0,0.0,0.0,0.0,0.0,0.0,0.0,0.0,0.0,0.0,0.0,0.0,0.0,0.0,0.0,0.0,0.0,0.0,0.0,0.0,0.0,0.0,0.0,0.0,0.0,0.0,0.0,0.0,0.0,0.0,0.0,0.0,0.0,0.0,0.0,0.0,0.0,0.0,0.0,0.0,0.0,0.0,0.0,0.0,0.0,0.0,0.0,0.0,0.0,0.0,0.0,0.0,0.0,0.0,0.0,0.0,0.0,0.0,0.0,0.0,0.0,0.0,0.0,0.0,0.0,0.0,0.0,0.0,0.0,0.0,0.0,0.0,0.0,0.0,0.0,0.0,0.0,0.0,0.0,0.0,0.0,0.0,0.0,0.0,0.0,0.0,0.0,0.0,0.0,0.0,0.0,0.0,0.0,0.0,0.0,0.0,0.0,0.0,0.0,0.0,0.0,0.0,0.0,0.0,0.0,0.0,0.0,0.0,0.0,0.0,0.0,0.0,0.0,0.0,0.0,0.0,0.0,0.0,0.0,0.0,0.0,0.0,0.0,0.0,0.0,0.0,0.0,0.0,0.0,0.0,0.0,0.0,0.0,0.0,0.0,0.0,0.0,0.0,0.0,0.0,0.0,0.0,0.0,0.0,0.0,0.0,0.0,0.0,0.0,0.0,0.0,0.0,0.0,0.0,0.0,0.0,0.0,0.0,0.0,0.0,0.0,0.0,0.0,0.0,0.0,0.0,0.0,0.0,0.0,0.0,0.0,0.0,0.0,0.0,0.0,0.0,0.0,0.0,0.0,0.0,0.0,0.0,0.0,0.0,0.0,0.0,0.0,0.0,0.0,0.0,0.0,0.0,0.0,0.0,0.0,0.0,0.0,0.0,0.0,0.0,0.0,0.0,0.0,0.0,0.0,0.0,0.0,0.0,0.0,0.0,0.0,0.0,0.0,0.0,0.0,0.0,0.0,0.0,0.0,0.0,0.0,0.0,0.0,0.0,0.0,0.0,0.0,0.0,0.0,0.0,0.0,0.0,0.0,0.0,0.0,0.0,0.0,0.0,0.0,0.0,0.0,0.0,0.0,0.0,0.0,0.0,0.0,0.0,0.0,0.0,0.0,0.0,0.0,0.0,0.0,0.0,0.0,0.0,0.0,0.0,0.0,0.0,0.0,0.0,0.0,0.0,0.0,0.0,0.0,0.0,0.0,0.0,0.0,0.0,0.0,0.0,0.0,0.0,0.0,0.0,0.0,0.0,0.0,0.0,0.0,0.0,0.0,0.0,0.0,0.0,0.0,0.0,0.0,0.0,0.0,0.0,0.0,0.0,0.0,0.0,0.0,0.0,0.0,0.0,0.0,0.0,0.0,0.0,0.0,0.0,0.0,0.0,0.0,0.0,0.0,0.0,0.0,0.0,0.0,0.0,0.0,0.0,0.0,0.0,0.0,0.0,0.0,0.0,0.0,0.0,0.0,0.0,0.0,0.0,0.0,0.0,0.0,0.0,0.0,0.0,0.0,0.0,0.0,0.0,0.0,0.0,0.0,0.0,0.0,0.0,0.0,0.0,0.0,0.0,0.0,0.0,0.0,0.0,0.0,0.0,0.0,0.0,0.0,0.0,0.0,0.0,0.0,0.0,0.0,0.0,0.0,0.0,0.0,0.0,0.0,0.0,0.0,0.0,0.0,0.0,0.0,0.0,0.0,0.0,0.0,0.0,0.0,0.0,0.0,0.0,0.0,0.0,0.0,0.0,0.0,0.0,0.0,0.0,0.0,0.0,0.0,0.0,0.0,0.0,0.0,0.0,0.0,0.0,0.0,0.0,0.0,0.0,0.0,0.0,0.0,0.0,0.0,0.0,0.0,0.0,0.0,0.0,0.0,0.0,0.0,0.0,0.0,0.0,0.0,0.0,0.0,0.0,0.0,0.0,0.0,0.0,0.0,0.0,0.0,0.0,0.0,0.0,0.0,0.0,0.0,0.0,0.0,0.0,0.0,0.0,0.0,0.0,0.0,0.0,0.0,0.0,0.0,0.0,0.0,0.0,0.0,0.0,0.0,0.0,0.0,0.0,0.0,0.0,0.0,0.0,0.0,0.0,0.0,0.0,0.0,0.0,0.0,0.0,0.0,0.0,0.0,0.0,0.0,0.0,0.0,0.0,0.0,0.0,0.0,0.0,0.0,0.0,0.0,0.0,0.0,0.0,0.0,0.0,0.0,0.0,0.0,0.0,0.0,0.0,0.0,0.0,0.0,0.0,0.0,0.0,0.0,0.0,0.0,0.0,0.0,0.0,0.0,0.0,0.0,0.0,0.0,0.0,0.0,0.0,0.0,0.0,0.0,0.0,0.0,0.0,0.0,0.0,0.0,0.0,0.0,0.0,0.0,0.0,0.0,0.0,0.0,0.0,0.0,0.0,0.0,0.0,0.0,0.0,0.0,0.0,0.0,0.0,0.0,0.0,0.0,0.0,0.0,0.0,0.0,0.0,0.0,0.0,0.0,0.0,0.0,0.0,0.0,0.0,0.0,0.0,0.0,0.0,0.0,0.0,0.0,0.0,0.0,0.0,0.0,0.0,0.0,0.0,0.0,0.0,0.0,0.0,0.0,0.0,0.0,0.0,0.0,0.0,0.0,0.0,0.0,0.0,0.0,0.0,0.0,0.0,0.0,0.0,0.0,0.0,0.0,0.0,0.0,0.0,0.0,0.0,0.0,0.0,0.0,0.0,0.0,0.0,0.0,0.0,0.0,0.0,0.0,0.0,0.0,0.0,0.0,0.0,0.0,0.0,0.0,0.0,0.0,0.0,0.0,0.0,0.0,0.0,0.0,0.0,0.0,0.0,0.0,0.0,0.0,0.0,0.0,0.0,0.0,0.0,0.0,0.0,0.0,0.0,0.0,0.0,0.0,0.0,0.0,0.0,0.0,0.0,0.0,0.0,0.0,0.0,0.0,0.0,0.0,0.0,0.0,0.0,0.0,0.0,0.0,0.0,0.0,0.0,0.0,0.0,0.0,0.0,0.0,0.0,0.0,0.0,0.0,0.0,0.0,0.0,0.0,0.0,0.0,0.0,0.0,0.0,0.0,0.0,0.0,0.0,0.0,0.0,0.0,0.0,0.0,0.0,0.0,0.0,0.0,0.0,0.0,0.0,0.0,0.0,0.0,0.0,0.0,0.0,0.0,0.0,0.0,0.0,0.0,0.0,0.0,0.0,0.0,0.0,0.0,0.0,0.0,0.0,0.0,0.0,0.0,0.0,0.0,0.0,0.0,0.0,0.0,0.0,0.0,0.0,0.0,0.0,0.0,0.0,0.0,0.0,0.0,0.0,0.0,0.0,0.0,0.0,0.0,0.0,0.0,0.0,0.0,0.0,0.0,0.0,0.0,0.0,0.0,0.0,0.0,0.0,0.0,0.0,0.0,0.0,0.0,0.0,0.0,0.0,0.0,0.0,0.0,0.0,0.0,0.0,0.0,0.0,0.0,0.0,0.0,0.0,0.0,0.0,0.0,0.0,0.0,0.0,0.0,0.0,0.0,0.0,0.0,0.0,0.0,0.0,0.0,0.0,0.0,0.0,0.0,0.0,0.0,0.0,0.0,0.0,0.0,0.0,0.0,0.0,0.0,0.0,0.0,0.0,0.0,0.0,0.0,0.0,0.0,0.0,0.0,0.0,0.0,0.0,0.0,0.0,0.0,0.0,0.0,0.0,0.0,0.0,0.0,0.0,0.0,0.0,0.0,0.0,0.0,0.0,0.0,0.0,0.0,0.0,0.0,0.0,0.0,0.0,0.0,0.0,0.0,0.0,0.0,0.0,0.0,0.0,0.0,0.0,0.0,0.0,0.0,0.0,0.0,0.0,0.0,0.0,0.0,0.0,0.0,0.0,0.0,0.0,0.0,0.0,0.0,0.0,0.0,0.0,0.0,0.0,0.0,0.0,0.0,0.0,0.0,0.0,0.0,0.0,0.0,0.0,0.0,0.0,0.0,0.0,0.0,0.0,0.0,0.0,0.0,0.0,0.0,0.0,0.0,0.0,0.0,0.0,0.0,0.0,0.0,0.0,0.0,0.0,0.0,0.0,0.0,0.0,0.0,0.0,0.0,0.0,0.0,0.0,0.0,0.0,0.0,0.0,0.0,0.0,0.0,0.0,0.0,0.0,0.0,0.0,0.0,0.0,0.0,0.0,0.0,0.0,0.0,0.0,0.0,0.0,0.0,0.0,0.0,0.0,0.0,0.0,0.0,0.0,0.0,0.0,0.0,0.0,0.0,0.0,0.0,0.0,0.0,0.0,0.0,0.0,0.0,0.0,0.0,0.0,0.0,0.0,0.0,0.0,0.0,0.0,0.0,0.0,0.0,0.0,0.0,0.0,-0.4885,-0.509,0.0,0.0,0.0,0.0,0.0,0.0,0.0,0.0,0.0,0.0,0.0,0.0,0.0,0.0,0.0,0.0,0.0,0.0,0.0,0.0,0.0,0.0,0.0,0.0,0.0,0.0,0.0,0.0,0.0,0.0,0.0,0.0,0.0,0.0,0.0,0.0,0.0,0.0,0.0,0.0,0.0,0.0,0.0,0.0,0.0,0.0,0.0,0.0,0.0,0.0,0.0,0.0,0.0,0.0,0.0,0.0,0.0,0.0,0.0,0.0,0.0,0.0,0.0,0.0,0.0,0.0,0.0,0.0,0.0,0.0,0.0,0.0,0.0,0.0,0.0,0.0,0.0,0.0,0.0,0.0,0.0,0.0,0.0,0.0,0.0,0.0,0.0,0.0,0.0,0.0,0.0,0.0,0.0,0.0,0.0,0.0,0.0,0.0,0.0,0.0,0.0,0.0,0.0,0.0,0.0,0.0,0.0,0.0,0.0,0.0,0.0,0.0,0.0,0.0,-0.5089,-0.5218,0.0,0.0,0.0,0.0,0.0,0.0,0.0,0.0,0.0,0.0,0.0,0.0,0.0,0.0,0.0,0.0,0.0,0.0,0.0,0.0,0.0,0.0,0.0,0.0,0.0,0.0,0.0,0.0,0.0,0.0,0.0,0.0,0.0,0.0,0.0,0.0,0.0,0.0,0.0,0.0,0.0,0.0,0.0,0.0,0.0,0.0,0.0,0.0,0.0,0.0,0.0,0.0,0.0,0.0,0.0,0.0,0.0,0.0,0.0,0.0,0.0,0.0,0.0,0.0,0.0,0.0,0.0,0.0,0.0,0.0,0.0,0.0,0.0,0.0,0.0,0.0,0.0,0.0,0.0,0.0,0.0,0.0,0.0,0.0,0.0,0.0,0.0,0.0,0.0,0.0,0.0,0.0,0.0,0.0,0.0,0.0,0.0,0.0,0.0,0.0,0.0,0.0,0.0,0.0,0.0,0.0,0.0,0.0,-0.4149,-0.3337,-0.225,-0.2172,-0.2896,-0.4349,-0.5072,-0.5092,-0.4602,-0.478,0.0,0.0,0.0,0.0,0.0,0.0,0.0,0.0,0.0,0.0,0.0,0.0,0.0,0.0,0.0,0.0,0.0,0.0,0.0,0.0,0.0,0.0,0.0,0.0,0.0,0.0,0.0,0.0,0.0,0.0,0.0,0.0,0.0,0.0,0.0,0.0,0.0,0.0,-0.7524,-0.7481,-0.8768,-1.1141,0.0,0.0,0.0,0.0,0.0,0.0,0.0,0.0,0.0,0.0,0.0,0.0,0.0,0.0,0.0,0.0,0.0,0.0,0.0,0.0,0.0,0.0,0.0,0.0,0.0,0.0,0.0,0.0,0.0,0.0,0.0,0.0,0.0,0.0,0.0,0.0,0.0,0.0,0.0,0.0,0.0,0.0,0.0,0.0,-0.0868,-0.1672,0.0,0.0,0.0,0.0,0.0,0.0,0.0,0.0,0.0,0.0,0.0,0.0,0.0,-0.2395,-0.2364,-0.3619,-0.4295,-0.4297,-0.1811,-0.0508,-0.0364,-0.1566,-0.2893,-0.4245,-0.3085,0.0,-0.4527,-0.4405,0.0,0.0,0.0,0.0,0.0,0.0,0.0,0.0,0.0,0.0,0.0,0.0,0.0,0.0,0.0,0.0,0.0,0.0,0.0,0.0,0.0,0.0,0.0,0.0,0.0,0.0,0.0,0.0,0.0,0.0,0.0,0.0,0.0,0.0,0.0,0.0,0.0,0.0,-0.9799,-0.9777,-1.0431,-1.1646,-1.2952,-1.3209,-1.2714,-1.3035,0.0,0.0,0.0,0.0,0.0,0.0,0.0,0.0,0.0,0.0,0.0,0.0,0.0,0.0,0.0,0.0,0.0,0.0,0.0,0.0,0.0,0.0,0.0,0.0,0.0,0.0,0.0,0.0,0.0,0.0,0.0,0.0,0.0,0.0,0.0,0.0,0.0,0.0,0.0,0.163,0.2456,0.1878,0.0914,0.0,0.0,0.0,0.0,0.0,0.0,0.0,0.0,0.0,0.0,-0.1883,-0.1149,-0.0574,-0.0139,-0.0501,-0.1083,-0.1849,0.0213,0.0789,-0.0,-0.0648,-0.129,-0.1865,-0.2007,-0.2508,-0.3224,-0.4161,-0.4556,-0.463,0.0,0.0,0.0,0.0,-0.4948,-0.5151,0.0,0.0,0.0,0.0,0.0,0.0,0.0,0.0,0.0,0.0,0.0,0.0,0.0,0.0,0.0,0.0202,0.0,0.0,0.0,0.0,0.0,0.0,0.0,0.0,0.0,0.0,0.0,0.0,0.0,0.0,0.0,0.0,-1.1582,-1.1632,-1.294,-1.3428,-1.3372,-1.4206,-1.4609,0.0,0.0,0.0,0.0,0.0,0.0,0.0,0.0,0.0,0.0,0.0,0.0,0.0,0.0,0.0,0.0,0.0,0.0,0.0,0.0,0.0,0.0,0.0,0.0,0.0,0.0,0.0,0.0,0.0,0.0,0.0,0.0,0.0,0.0,0.0,0.0,0.0,0.0,0.4665,0.5446,0.5029,0.3883,0.3124,0.0,0.0,0.0,0.0,0.0,0.0,0.2975,0.2521,0.2137,0.1913,0.1913,0.2272,0.2924,0.3099,0.2682,0.163,0.2315,0.2118,0.1079,0.0716,0.0571,0.0428,-0.0928,-0.1578,-0.166,-0.2961,-0.3623,-0.3923,-0.4388,-0.4765,-0.5075,-0.4909,-0.5148,-0.5528,0.0,0.0,0.0,0.0,0.0,0.0,0.0,0.0,0.0,0.0,0.0,0.0,0.0,0.0,0.0134,0.0,0.0,0.0,0.0,0.0,0.0,0.0,0.0,0.0,0.0,0.0,0.0,0.0,0.0,0.0,0.0,0.0,0.0,0.0,0.0,0.0,-1.4328,-1.4823,-1.5466,-1.627,0.0,0.0,0.0,0.0,0.0,0.0,0.0,0.0,0.0,0.0,0.0,0.0,0.0,0.0,0.0,0.0,0.0,0.0,0.0,0.0,0.0,0.0,0.0,0.0,0.0,0.0,0.0,0.0,0.0,0.0,0.0,0.0,0.0,0.0,0.0,0.0,0.0,0.0,0.0,0.6963,0.6981,0.0,0.0,0.0,0.0,0.869,0.8406,0.7851,0.7203,0.7155,0.7157,0.7118,0.6912,0.6911,0.721,0.6532,0.6155,0.6067,0.4788,0.4122,0.4052,0.2657,0.2021,0.1886,0.0539,-0.0137,-0.014,-0.0211,-0.0996,-0.2394,-0.4106,-0.4773,-0.4737,-0.4867,-0.5384,-0.5909,0.0,0.0,0.0,0.0,0.0,0.0,0.0,0.0,0.0,0.0,0.0,0.0,0.0,0.339,0.279,0.2793,0.2739,0.279,0.2736,0.0,0.0,0.0,0.0,0.0,0.0,0.0,0.0,0.0,0.0,0.0,0.0,0.0,0.0,0.0,0.0,0.0,0.0,0.0,0.0,0.0,0.0,0.0,0.0,0.0,0.0,0.0,0.0,0.0,0.0,0.0,0.0,0.0,0.0,0.0,0.0,0.0,0.0,0.0,0.0,0.0,0.0,0.0,0.0,0.0,0.0,0.0,0.0,0.0,0.0,0.0,0.0,0.0,0.0,0.0,0.0,0.0,0.0,0.0,0.0,0.7938,0.8622,0.0,0.836,0.9415,1.0264,1.0604,1.0233,0.9971,0.9942,0.8898,0.8303,0.8246,0.822,0.8059,0.7743,0.7237,0.6929,0.689,0.6082,0.5487,0.5215,0.4628,0.4077,0.3482,0.3013,0.2246,0.1258,0.0343,-0.028,-0.08,-0.1441,-0.3033,-0.474,-0.3706,-0.4364,-0.5771,0.0,0.0,0.0,0.0,0.0,0.0,0.0,0.0,0.0,0.0,0.0,0.6915,0.4563,0.518,0.5731,0.5738,0.5712,0.5308,0.4345,0.0,0.0,0.0,0.0,0.0,0.0,0.0,0.0,0.0,0.0,0.0,0.0,0.0,0.0,0.0,0.0,0.0,0.0,0.0,0.0,0.0,0.0,0.0,-2.0673,0.0,0.0,0.0,0.0,0.0,0.0,0.0,0.0,0.0,0.0,0.0,0.0,0.0,0.0,0.0,0.0,0.0,0.0,0.0,0.0,0.0,0.0,0.0,0.0,0.0,0.0,0.0,0.0,0.0,0.0,0.0,0.0,0.0,0.0,1.0065,1.0411,1.0387,1.1114,1.1286,1.0588,1.1758,1.2459,1.2168,1.1673,1.1485,1.1961,1.0734,0.991,0.9638,0.9715,0.95,0.8832,0.8302,0.8071,0.8007,0.7152,0.6597,0.633,0.6063,0.5606,0.5014,0.4815,0.4053,0.2749,0.1822,0.1165,0.0638,0.0215,-0.1734,-0.401,-0.2907,-0.3713,-0.5406,0.0,0.0,0.0,0.0,0.0,0.0,0.0,0.0,0.0,0.0,0.0,0.6009,0.4599,0.6854,0.8482,0.8482,0.85,0.7337,0.4543,0.4008,0.0,0.0,0.0,0.0,0.0,0.0,0.0,0.0,0.0,0.0,0.0,0.0,0.0,0.0,0.0,0.0,0.0,0.0,0.0,0.0,0.0,0.0,-2.2161,0.0,0.0,0.0,0.0,0.0,0.0,0.0,0.0,0.0,0.0,0.0,0.0,0.0,0.0,0.0,0.0,0.0,0.0,0.0,0.0,0.0,0.0,0.0,0.0,0.0,0.0,0.0,0.0,0.0,0.0,0.0,0.0,0.0,1.2444,1.3279,1.4155,1.4408,1.4572,1.4543,1.4202,1.3924,1.3735,1.3769,1.2905,1.2679,1.3347,1.2755,1.2152,1.175,1.1757,1.1431,1.0767,1.0025,0.9632,0.9626,0.8204,0.7587,0.7521,0.6793,0.6461,0.64,0.5932,0.5203,0.4339,0.4348,0.3482,0.2017,0.0622,-0.0924,-0.233,-0.2324,-0.3419,-0.4579,0.0,0.0,0.0,0.0,0.0,0.0,0.0,0.0,0.0,0.0,0.9755,0.9703,0.8542,0.8484,0.8489,0.8489,0.8526,0.7871,0.6397,0.0,0.0,0.0,0.0,0.0,0.0,0.0,0.0,0.0,0.0,0.0,0.0,0.0,0.0,0.0,0.0,0.0,0.0,0.0,0.0,0.0,0.0,0.0,-2.0842,0.0,0.0,0.0,0.0,0.0,0.0,0.0,0.0,0.0,0.0,0.0,0.0,0.0,0.0,0.0,0.0,0.0,0.0,0.0,0.0,0.0,0.0,0.0,0.0,0.0,0.0,0.0,0.0,0.0,0.0,0.0,1.7288,1.7843,1.485,1.535,1.5882,1.5296,1.6373,1.6786,1.5792,1.6211,1.6398,1.613,1.5013,1.4493,1.4924,1.4042,1.3459,1.3365,1.2905,1.2466,1.2034,1.0951,1.0469,1.0469,0.9676,0.9128,0.8818,0.8619,0.8037,0.7195,0.7055,0.6527,0.58,0.547,0.4674,0.3544,0.2095,0.1227,0.0823,0.0823,0.0548,0.0205,0.0,0.0,0.0,0.0,0.0,0.0,0.0,0.0,0.0,0.0,1.1254,1.117,0.9968,0.9015,0.885,0.9703,0.9778,0.9345,0.8194,0.0,0.0,0.0,0.0,0.0,0.0,0.0,0.0,0.0,0.0,0.0,0.0,0.0,0.0,0.0,0.0,0.0,0.0,0.0,0.0,0.0,0.0,0.0,-1.9958,-2.0171,-1.9383,-1.8263,-1.8117,-1.7092,-1.5694,-1.4841,0.0,0.0,0.0,0.0,0.0,0.0,0.0,0.0,0.0,0.0,0.0,0.0,0.0,0.0,0.0,0.0,0.0,0.0,0.0,0.0,0.0,0.0,0.0,0.0,1.9274,1.9669,1.7617,1.7821,1.7979,1.7165,1.7677,1.7793,1.7048,1.7254,1.7434,1.7349,1.6277,1.5766,1.6201,1.5152,1.4452,1.4206,1.358,1.2975,1.2512,1.1351,1.0807,1.08,1.0281,0.9831,0.9582,0.9582,0.914,0.835,0.8159,0.7585,0.6809,0.6446,0.5636,0.4472,0.0,0.0,0.0,0.0,0.3023,0.3025,0.0,0.0,0.0,0.0,0.0,0.0,0.0,0.0,0.0,0.0,0.0,1.1112,0.9946,0.9096,0.9367,1.1305,1.1441,1.099,0.0,0.0,0.0,0.0,0.0,0.0,0.0,0.0,0.0,0.0,0.0,0.0,0.0,0.0,0.0,0.0,0.0,0.0,0.0,0.0,0.0,0.0,0.0,0.0,-1.9082,-1.9512,-1.8572,-1.7129,-1.732,-1.6376,-1.4974,-1.4541,0.0,0.0,0.0,0.0,0.0,0.0,0.0,0.0,0.0,0.0,0.0,0.0,0.0,0.0,0.0,0.0,0.0,0.0,0.0,0.0,0.0,0.0,0.0,0.0,2.0787,2.0853,2.0553,2.03,1.9949,1.9339,1.8577,1.8074,1.803,1.7566,1.7489,1.7871,1.6984,1.6539,1.6901,1.6008,0.0,0.0,0.0,1.3338,1.2691,1.1553,1.0989,1.087,1.0408,1.0148,1.0085,1.0085,0.9944,0.9579,0.9076,0.837,0.7493,0.7282,0.6438,0.5205,0.4569,0.4298,0.4314,0.4314,0.4306,0.4295,0.0,0.0,0.0,0.0,0.0,0.0,0.0,0.0,0.0,1.3161,1.2258,1.1456,1.1071,1.0059,0.9774,1.0696,1.0279,1.0603,0.0,0.0,0.0,0.0,0.0,0.0,0.0,0.0,0.0,0.0,0.0,0.0,0.0,0.0,0.0,0.0,0.0,0.0,0.0,0.0,0.0,0.0,0.0,0.0,-1.6675,-1.676,-1.6419,-1.5878,-1.6108,-1.5056,-1.3529,-1.3646,-1.2628,-1.0992,-0.9513,0.0,0.0,0.0,0.0,0.0,0.0,0.0,0.0,0.0,0.0,0.0,0.0,0.0,0.0,0.0,0.0,0.0,0.0,0.0,0.0,2.2261,2.2538,2.2714,2.313,2.1608,2.0112,1.9033,1.9204,1.927,1.8844,1.8259,1.7963,1.8066,1.7331,1.6736,1.6456,1.6138,1.5937,1.5817,1.4823,1.4134,1.3814,1.2717,1.1911,1.1435,1.1365,0.0,1.0674,1.0674,1.0269,0.9579,0.9076,0.8624,0.8204,0.7784,0.7303,0.6539,0.4904,0.43,0.4303,0.4303,0.424,0.4232,0.0,0.0,0.0,0.0,0.0,0.0,0.0,0.0,0.0,0.0,1.2926,1.2533,1.2471,1.1279,1.037,1.011,1.1589,0.0,0.0,0.0,0.0,0.0,0.0,0.0,0.0,0.0,0.0,0.0,0.0,0.0,0.0,0.0,0.0,0.0,0.0,0.0,0.0,0.0,0.0,0.0,0.0,0.0,-1.3487,-1.4407,-1.4135,-1.3427,-1.3667,-1.2682,-1.1224,-1.1114,-1.0053,-0.8564,-0.7267,-0.6034,-0.4928,0.0,0.0,0.0,0.0,0.0,0.0,0.0,0.0,0.0,0.0,0.0,0.0,0.0,0.0,1.9609,2.0879,0.0,2.2654,2.4154,2.3866,2.3636,2.3914,2.2502,2.1113,2.0201,1.9925,1.9782,1.9773,1.9514,1.9223,1.8805,1.8222,1.7613,1.6956,1.6576,1.6396,1.6396,1.535,1.4549,1.4113,1.3059,1.2212,1.1622,1.1622,1.1435,1.1185,1.1185,1.0807,1.0071,0.9656,0.9059,0.8359,0.7571,0.7267,0.7186,0.5847,0.5352,0.5352,0.5352,0.5301,0.5312,0.0,0.0,0.0,0.0,0.0,0.0,0.0,0.0,0.0,0.0,0.0,1.3884,1.3858,1.2534,1.1245,0.0,0.0,0.0,0.0,0.0,0.0,0.0,0.0,0.0,0.0,0.0,0.0,0.0,0.0,0.0,0.0,0.0,0.0,0.0,0.0,0.0,0.0,0.0,0.0,0.0,0.0,0.0,-1.0162,-1.1378,-1.1471,-1.0906,-1.1095,-1.0182,-0.8802,-0.8449,-0.7426,-0.6003,-0.4956,-0.3596,-0.1997,-0.0312,0.1075,0.0,0.0,0.0,0.0,0.0,0.0,0.0,0.0,1.7398,1.8783,1.9267,2.0826,2.241,2.3397,2.3594,2.4166,2.5707,2.4943,2.421,2.4163,2.3032,2.204,2.1756,2.0686,2.0147,2.0586,2.0628,2.0297,1.9572,1.9066,1.848,1.7647,1.7113,1.6816,1.6665,1.5785,1.4994,1.431,1.3244,1.2397,1.1802,1.1685,1.1659,1.1648,1.1586,1.118,1.0675,1.0044,0.9305,0.8348,0.7444,0.7301,0.7593,0.7042,0.6793,0.6793,0.6531,0.6375,0.6416,0.0,0.0,0.0,0.0,0.0,0.0,0.0,0.0,0.0,0.0,0.0,0.0,0.0,0.0,0.0,0.0,0.0,0.0,0.0,0.0,0.0,0.0,0.0,0.0,0.0,0.0,0.0,0.0,0.0,0.0,0.0,0.0,0.0,0.0,0.0,0.0,0.0,0.0,0.0,0.0,0.0,0.0,-0.7186,-0.6659,-0.7639,-0.9316,-0.954,-0.8461,-0.6853,-0.7071,-0.6055,-0.449,-0.2831,-0.1312,0.04,0.3517,0.0,0.6745,0.9014,1.1423,1.3754,1.5394,1.6991,1.8569,0.0,2.1094,2.1873,2.3342,2.3752,2.4148,2.5063,2.5406,2.582,2.647,2.5661,2.4886,2.4902,2.2994,2.1919,2.279,2.1468,2.0547,2.0571,2.0574,2.0297,1.9572,1.9304,1.8751,1.7668,1.7412,1.7139,1.6685,1.6237,1.5689,1.4994,1.3935,1.307,1.2389,1.1864,1.1706,1.1963,1.1392,1.1092,1.0975,0.968,0.8925,0.8585,0.8299,0.8188,0.8147,0.8233,0.8247,0.8117,0.6859,0.6294,0.6307,0.0,0.0,0.0,0.0,0.0,0.0,0.0,0.0,0.0,0.0,0.0,0.0,0.0,0.0,0.0,0.0,0.0,0.0,0.0,0.0,0.0,0.0,0.0,0.0,0.0,0.0,0.0,0.0,0.0,0.0,0.0,0.0,0.0,0.0,0.0,0.0,0.0,0.0,0.0,0.0,0.0,0.0,-0.4727,-0.3816,-0.4009,-0.5022,-0.6076,-0.5355,0.0,0.0,-0.2179,-0.0561,0.0989,0.2825,0.4683,0.6602,0.841,0.0,1.243,1.4142,1.5668,1.7027,1.8302,1.9701,2.1569,2.2561,2.3436,2.4717,2.5254,2.5785,2.6764,2.657,2.6459,2.7395,2.6491,2.5547,2.5188,2.3844,2.3122,2.3509,2.2628,2.185,2.1559,2.151,2.1089,1.9946,1.9819,1.9201,1.7931,1.7543,1.7305,1.7119,1.6426,1.5811,1.5127,1.4421,1.3554,1.2512,1.2212,1.1994,1.175,1.148,1.1417,1.1304,0.989,0.9536,0.9862,0.9332,0.9175,0.9235,0.9348,0.939,0.9198,0.8042,0.7593,0.7595,0.0,0.0,0.0,0.0,0.0,0.0,0.0,0.0,0.0,0.0,0.0,0.0,0.0,0.0,0.0,0.0,0.0,0.0,0.0,0.0,0.0,0.0,0.0,0.0,0.0,0.0,0.0,0.0,0.0,0.0,0.0,0.0,0.0,0.0,0.0,0.0,0.0,0.0,0.0,0.0,0.0,0.0,-0.1864,-0.1092,-0.0769,-0.0904,-0.2757,-0.2378,0.0,0.0,0.1233,0.2825,0.4263,0.5976,0.7699,0.9135,1.1099,1.3317,1.5271,1.6422,1.7315,1.8456,1.9346,2.0482,2.2703,2.375,2.4526,2.5779,2.6365,2.6972,2.763,2.7114,2.6867,2.7764,2.6926,2.6045,2.5466,2.4682,2.4179,2.4104,2.3622,2.3074,2.2688,2.2296,2.1609,2.0424,1.9976,1.9191,1.7909,1.7549,1.7275,1.7031,1.6458,1.5814,1.5205,1.4736,1.3923,1.2757,1.2573,1.2205,1.1692,1.1692,1.1692,1.1648,1.0564,1.0481,1.1026,1.0319,1.0082,1.0129,1.0047,1.0066,1.0072,0.9314,0.9015,0.8888,0.0,0.0,0.0,0.0,0.0,0.0,0.0,0.0,0.0,0.0,0.0,0.0,0.0,0.0,0.0,0.0,0.0,0.0,0.0,0.0,0.0,0.0,0.0,0.0,0.0,0.0,0.0,0.0,0.0,0.0,0.0,0.0,0.0,0.0,0.0,0.0,0.0,0.0,0.0,0.0,0.0,0.0,0.1715,0.1793,0.2073,0.218,-0.0075,0.0,0.0,0.0,0.3315,0.4673,0.6149,0.707,0.0,1.0805,1.3383,1.572,1.7696,1.8508,1.9073,2.0073,2.0689,2.1702,2.4351,2.4952,2.5397,2.6912,2.7268,2.7291,2.7198,2.7069,2.7009,2.7112,2.6749,2.6321,2.591,2.5167,2.4668,2.4693,2.412,2.3803,2.3767,2.262,2.1595,2.0929,1.9762,1.8537,1.7488,1.7393,1.6992,1.6194,1.6135,1.5859,1.5381,1.4775,1.4172,1.345,1.2826,1.232,1.2021,1.2021,1.2021,1.1999,1.1663,1.1632,1.171,1.104,1.0637,1.0469,1.0123,1.0187,1.0494,1.0428,1.0257,0.9958,0.0,0.0,0.0,0.0,0.0,0.0,0.0,0.0,0.0,0.0,0.0,0.0,0.0,0.0,0.0,0.0,0.0,0.0,0.0,0.0,0.0,0.0,0.0,0.0,0.0,0.0,0.0,0.0,0.0,0.0,0.0,0.0,0.0,0.0,0.0,0.0,0.0,0.0,0.0,0.0,0.0,0.0,0.3353,0.3761,0.406,0.4112,0.0,0.0,0.0,0.0,0.6216,0.7692,0.9157,1.0552,1.2,1.404,1.5713,1.7063,1.8045,1.8861,1.9653,2.0236,2.1,2.2167,2.4442,2.4964,2.5335,2.6971,2.6691,2.6304,2.6752,2.6479,2.6282,2.6649,2.6423,2.6031,2.5319,2.495,2.466,2.4554,2.4703,2.4795,2.4795,2.3302,2.2038,2.1344,2.016,1.9097,1.8223,1.7412,1.6953,1.6943,1.6429,1.6133,1.6289,1.6042,1.566,1.5007,1.3872,1.3233,1.308,1.2327,1.227,1.265,1.2109,1.2115,1.2534,1.2112,1.173,1.1493,1.1388,1.1409,1.1507,1.1507,1.1437,1.1217,0.0,0.0,0.0,0.0,0.0,0.0,0.0,0.0,0.0,0.0,0.0,0.0,0.0,0.0,0.0,0.0,0.0,0.0,0.0,0.0,0.0,0.0,0.0,0.0,0.0,0.0,0.0,0.0,0.0,0.0,0.0,0.0,0.0,0.0,0.0,0.0,0.0,0.0,0.0,0.0,0.0,0.0,0.5479,0.6119,0.6304,0.0,0.0,0.0,0.0,0.7331,0.8591,1.0074,1.1431,1.3099,1.4799,1.6097,1.7109,1.7969,1.8459,1.9215,2.0065,2.0688,2.1434,2.2619,2.4622,2.5207,2.5583,2.6806,2.6414,2.5971,2.6284,2.5986,2.582,2.59,2.5921,2.5729,2.5136,2.4863,2.4755,2.4885,2.5264,2.5445,2.5146,2.381,2.2637,2.1859,2.0435,1.9214,1.8428,1.7637,1.7178,1.7148,1.6602,1.6445,1.6728,1.6465,1.5872,1.4941,1.3842,1.3328,1.3437,1.2684,1.2672,1.3155,1.2738,1.2797,1.3148,1.2701,1.2401,1.2182,1.1955,1.2006,1.2211,1.2211,1.2284,1.2217,0.0,0.0,0.0,0.0,0.0,0.0,0.0,0.0,0.0,0.0,0.0,0.0,0.0,0.0,0.0,0.0,0.0,0.0,0.0,0.0,0.0,0.0,0.0,0.0,0.0,0.0,0.0,0.0,0.0,0.0,0.0,0.0,0.0,0.0,0.0,0.0,0.0,0.0,0.0,0.0,0.0,0.0,0.8057,0.8562,0.0,0.0,0.0,0.0,0.0,0.975,1.0548,1.1879,1.2997,1.4666,1.6319,1.6898,1.7631,1.8442,1.8931,1.9584,2.027,2.1366,2.2069,2.3006,2.4849,2.5697,2.6045,2.6389,2.6483,2.6239,2.5661,2.5779,2.5716,2.5018,2.5339,2.5648,2.5382,2.5093,2.5071,2.5475,2.5853,2.5704,2.4768,2.4091,2.3263,2.2335,2.0483,1.8965,1.8144,1.8047,1.7646,1.6792,1.6787,1.6777,1.6797,1.6066,1.5002,1.3691,1.2961,1.2799,1.3101,1.3031,1.3206,1.3492,1.3492,1.3492,1.3448,1.2826,1.2562,1.2489,1.1875,1.2006,1.2548,1.2548,1.2738,1.2921,0.0,0.0,0.0,0.0,0.0,0.0,0.0,0.0,0.0,0.0,0.0,0.0,0.0,0.0,0.0,0.0,0.0,0.0,0.0,0.0,0.0,0.0,0.0,0.0,0.0,0.0,0.0,0.0,0.0,0.0,0.0,0.0,0.0,0.0,0.0,0.0,0.0,0.0,0.0,0.0,0.0,0.0,0.9043,0.0,0.0,0.0,0.0,0.0,0.0,0.0,1.2299,1.4045,1.5106,1.5759,1.644,1.7658,1.8178,1.85,1.8971,1.9198,1.9751,2.1239,2.1258,2.1697,2.4625,2.4956,2.4826,2.5642,2.5812,2.5649,2.5121,2.5745,2.6239,2.5896,2.6615,2.7038,2.6448,2.6149,2.5672,2.4814,2.502,2.4728,2.3538,2.309,2.2597,2.1997,2.0581,1.9658,1.9443,1.8525,1.8057,1.8076,1.7539,1.7363,1.7686,1.6908,1.6415,1.6005,1.4689,1.4112,1.4198,1.3648,1.3418,1.3492,1.3492,1.3492,1.3484,1.3316,1.3104,1.287,1.2701,1.2738,1.2884,1.2884,1.2936,1.2987,0.0,0.0,0.0,0.0,0.0,0.0,0.0,0.0,0.0,0.0,0.0,0.0,0.0,0.0,0.0,0.0,0.0,0.0,0.0,0.0,0.0,0.0,0.0,0.0,0.0,0.0,0.0,0.0,0.0,0.0,0.0,0.0,0.0,0.0,0.0,0.0,0.0,0.0,0.0,0.0,0.0,0.0,0.0,0.0,0.0,0.0,0.0,0.0,0.0,0.0,0.0,1.544,1.6,1.6635,1.7342,1.8171,1.8526,1.8733,1.9003,1.9488,2.0208,2.1753,2.1931,2.2467,2.4897,2.5078,2.4912,2.5448,2.5598,2.5511,2.5222,2.6208,2.6889,2.6414,2.7566,2.8238,2.7395,2.6917,2.6274,2.5156,2.5001,2.4464,2.3005,2.2703,2.2288,2.1565,2.0671,2.0117,1.9922,1.9228,1.8867,1.8926,1.8281,1.7813,1.751,1.6733,1.6228,1.5877,1.4681,1.4122,1.4122,1.3702,1.3492,1.3492,1.3492,1.3492,1.3484,1.3338,1.3177,1.2994,1.2848,1.2884,1.3009,1.3009,1.3009,1.3009,0.0,0.0,0.0,0.0,0.0,0.0,0.0,0.0,0.0,0.0,0.0,0.0,0.0,0.0,0.0,0.0,0.0,0.0,0.0,0.0,0.0,0.0,0.0,0.0,0.0,0.0,0.0,0.0,0.0,0.0,0.0,0.0,0.0,0.0,0.0,0.0,0.0,0.0,0.0,0.0,0.0,0.0,0.0,0.0,0.0,0.0,0.0,0.0,0.0,0.0,1.6609,1.6364,1.6436,1.7377,1.84,1.8475,1.8861,1.9358,1.9358,2.0154,2.1352,2.2648,2.3223,2.3809,2.5174,2.5469,2.544,2.5511,2.5611,2.5686,2.5611,2.6776,2.7528,2.6929,2.83,2.9197,2.8561,2.7665,2.6712,2.5822,2.5238,2.4186,2.2688,2.2465,2.2084,2.1232,2.0869,2.0477,2.0019,1.9941,1.9727,1.9297,1.8926,1.8254,1.7246,1.6316,1.5509,1.4816,1.398,1.3536,1.3492,1.3492,1.3492,1.3492,1.3492,1.3521,1.3536,1.3258,1.3162,1.317,1.284,1.2884,1.3133,1.3089,1.3075,1.3075,0.0,0.0,0.0,0.0,0.0,0.0,0.0,0.0,0.0,0.0,1.6384,1.6384,0.0,0.0,0.0,0.0,0.0,0.0,0.0,0.0,0.0,0.0,0.0,0.0,0.0,0.0,0.0,0.0,0.0,0.0,0.0,0.0,0.0,0.0,0.0,0.0,0.0,0.0,0.0,0.0,0.0,0.0,0.0,0.0,0.0,0.0,0.0,0.0,0.0,0.0,1.7784,1.7128,1.7746,1.8091,1.8419,1.8818,1.973,2.0563,2.0563,2.1509,2.2648,2.3423,2.3223,2.3167,2.4583,2.4821,2.4737,2.4916,2.5674,2.6163,2.5686,2.6603,2.767,2.8386,2.9227,2.9802,3.0143,2.8586,2.693,2.572,2.396,2.2509,2.1537,2.147,2.1316,2.0947,2.0868,2.0712,2.0459,2.0107,1.9727,1.9297,1.9219,1.9068,1.8918,1.7421,1.6524,1.6063,1.4626,1.3755,1.3492,1.3492,1.3492,1.3492,1.3492,1.3653,1.3894,1.3836,1.3975,1.4187,1.3857,1.3762,1.3777,1.3514,1.3411,1.3411,0.0,0.0,0.0,0.0,0.0,0.0,0.0,1.6239,1.6228,1.6374,1.5999,1.6123,1.7217,1.6757,0.0,0.0,0.0,0.0,0.0,0.0,0.0,0.0,0.0,0.0,0.0,0.0,1.4688,1.3986,0.0,0.0,0.0,1.4839,1.3994,0.0,0.0,0.0,0.0,0.0,0.0,0.0,0.0,0.0,0.0,0.0,0.0,0.0,0.0,0.0,0.0,0.0,1.9168,1.8743,1.8665,1.8652,1.8741,1.9008,1.9655,2.0422,2.0817,2.141,2.2181,2.3362,2.2823,2.2423,2.3845,2.3911,2.3899,2.4678,2.546,2.6013,2.6038,2.7193,2.8222,2.8461,2.9291,2.9954,2.9837,2.8331,2.6863,2.5811,2.4211,2.2882,2.1968,2.1599,2.1302,2.1086,2.0869,2.0731,2.0644,2.0361,2.0049,1.9629,1.9609,1.928,1.8599,1.7477,1.6556,1.6005,1.4828,1.4062,1.3748,1.3748,1.3748,1.3748,1.3748,1.3931,1.4231,1.4231,1.4326,1.445,1.4296,1.4231,1.4194,1.3865,1.3857,1.3953,0.0,0.0,0.0,0.0,0.0,0.0,0.0,1.6311,1.6314,1.6529,1.6026,1.6347,1.8154,1.7488,1.7366,0.0,0.0,0.0,0.0,0.0,0.0,0.0,0.0,0.0,0.0,0.0,0.0,1.3945,1.4917,0.0,0.0,0.0,0.0,0.0,1.2273,1.1835,0.0,0.0,0.0,0.0,0.0,1.3852,0.0,0.0,0.0,0.0,0.0,0.0,0.0,0.0,2.0587,2.0296,1.9504,1.9361,1.9468,1.9272,1.9823,2.0593,2.1087,2.1615,2.2306,2.3408,2.3017,2.2605,2.346,2.3595,2.3818,2.4616,2.5335,2.5925,2.6445,2.7519,2.8335,2.8134,2.9098,2.9743,2.9576,2.8292,2.7099,2.6535,2.4951,2.3682,2.291,2.2171,2.161,2.1391,2.0899,2.0566,2.0566,2.0566,2.041,2.0059,2.0059,1.9581,1.8555,1.7652,1.6884,1.6113,1.5204,1.4611,1.4289,1.4289,1.4253,1.4187,1.4187,1.4333,1.4575,1.4575,1.4611,1.467,1.4596,1.4575,1.4531,1.4209,1.4253,1.4399,0.0,0.0,0.0,0.0,0.0,0.0,0.0,1.6815,1.7176,1.7235,1.7378,1.7785,1.8616,1.8563,1.8192,0.0,0.0,0.0,0.0,0.0,0.0,0.0,0.0,0.0,0.0,0.0,0.0,1.3222,1.3947,0.0,0.0,0.0,0.0,0.0,0.0,1.3351,1.2606,0.0,0.0,0.0,0.0,0.0,0.0,0.0,0.0,0.0,0.0,0.0,0.0,0.0,0.0,2.0958,2.0452,2.0545,2.0762,1.9934,2.1169,2.2633,2.2258,2.3518,2.4826,2.4501,2.481,2.4996,2.4166,2.4718,2.5256,2.4908,2.5649,2.6402,2.6521,2.6647,2.6992,2.7946,2.8612,2.9499,3.0935,2.9261,2.8107,2.8448,2.5749,2.3888,2.3815,2.2777,2.2028,2.1879,2.1056,2.0566,2.0566,2.0566,2.0547,2.0508,2.0508,2.0478,2.0362,1.9048,1.8155,1.7734,1.6369,1.5613,1.5299,1.5299,1.5138,1.4853,1.4853,1.4867,1.4896,1.4896,1.5072,1.5313,1.5013,1.4896,1.486,1.4545,1.4443,1.4457,0.0,0.0,0.0,0.0,0.0,0.0,1.6894,1.6964,1.7191,1.7777,1.741,1.7496,1.8272,1.7751,1.7783,0.0,0.0,0.0,0.0,0.0,0.0,0.0,0.0,0.0,0.0,0.0,1.4073,1.4003,1.4488,0.0,0.0,0.0,0.0,0.0,0.0,1.336,1.2319,1.2735,0.0,0.0,0.0,0.0,0.0,0.0,0.0,0.0,0.0,0.0,2.1757,2.1999,0.0,0.0,2.0979,2.1352,0.0,0.0,2.0958,2.1998,2.2537,2.313,2.3735,2.4174,2.3362,2.2582,2.3077,2.358,2.3953,2.4169,2.5406,2.6533,2.6533,2.6728,2.7105,0.0,0.0,2.8803,2.9094,2.831,2.7622,2.7475,2.5855,2.4609,2.4522,2.3371,2.2321,2.173,2.1233,2.1084,2.1348,2.085,2.0566,2.0566,2.0258,1.9901,1.9318,1.8465,1.7725,1.6994,1.6466,1.6023,1.5723,1.5723,1.554,1.5233,1.5233,1.5233,1.5233,1.5233,1.5313,1.5416,1.5284,1.5233,1.5196,1.4874,1.4882,1.4992,0.0,0.0,0.0,0.0,0.0,1.6555,1.6967,1.7038,1.7327,1.7967,1.7747,1.77,1.8242,1.7493,1.748,1.8997,0.0,0.0,0.0,0.0,0.0,0.0,0.0,0.0,0.0,0.0,1.4703,1.5089,1.5307,1.5397,0.0,0.0,1.5422,1.4106,0.0,0.0,0.0,0.0,0.0,0.0,0.0,0.0,0.0,0.0,0.0,0.0,0.0,0.0,0.0,0.0,0.0,0.0,0.0,0.0,0.0,0.0,2.1292,2.2274,2.2993,2.3221,2.3426,2.4328,2.305,2.1875,2.2903,2.3379,2.3692,2.4025,2.5406,2.6533,2.6533,2.6917,2.7281,0.0,0.0,2.8826,2.861,2.8225,2.7843,2.7699,2.6445,2.5485,2.5262,2.3934,2.2757,2.2038,2.1737,2.1784,2.2134,2.1438,2.1036,2.0957,2.0595,2.0163,1.9493,1.8939,1.8248,1.7378,1.7219,1.6803,1.6338,1.6338,1.6104,1.5709,1.5709,1.5599,1.5431,1.5431,1.5431,1.5431,1.5431,1.5431,1.5401,1.5167,1.5233,1.5365,0.0,0.0,0.0,0.0,0.0,0.0,1.6384,1.715,1.7668,1.7668,1.8506,1.9028,1.8794,1.8281,1.771,1.7287,0.0,0.0,0.0,0.0,0.0,0.0,0.0,0.0,0.0,0.0,1.5632,1.6269,1.5931,1.5939,1.6253,1.5931,1.5978,1.6212,0.0,0.0,0.0,0.0,0.0,0.0,0.0,0.0,0.0,0.0,0.0,0.0,0.0,0.0,0.0,0.0,0.0,0.0,0.0,0.0,0.0,0.0,2.2658,2.4346,2.3941,2.4352,2.509,2.5497,2.5011,2.4438,2.4276,2.497,2.5435,2.4933,2.5699,2.6533,2.6533,2.6917,2.7281,0.0,0.0,0.0,3.0465,2.9808,2.9484,3.0101,2.8001,2.6372,2.5916,2.4471,2.3429,2.3187,2.2784,2.2651,2.2924,2.2433,2.2113,2.1875,2.1875,2.1875,2.1875,2.1334,2.0569,1.9596,1.9068,1.8226,1.7311,1.7311,1.6967,1.636,1.636,1.6001,1.5431,1.5431,1.5431,1.5431,1.5431,1.5431,1.5431,1.5423,1.5423,1.5431,0.0,0.0,0.0,0.0,0.0,0.0,0.0,1.7018,1.742,1.7912,1.823,1.8446,1.8574,1.8071,1.7442,1.6776,0.0,0.0,0.0,0.0,0.0,0.0,0.0,0.0,0.0,0.0,1.5527,1.6302,1.564,1.5544,1.5939,1.6402,1.6317,1.5977,1.6259,1.6165,0.0,0.0,0.0,0.0,0.0,0.0,1.8966,0.0,0.0,0.0,0.0,0.0,0.0,0.0,0.0,0.0,0.0,0.0,0.0,0.0,0.0,0.0,2.4307,2.4653,2.4837,2.4813,2.3883,2.3165,2.378,2.4106,2.4348,2.5046,2.6226,2.713,2.7519,2.772,2.8097,2.8875,0.0,3.0165,2.9759,3.0059,2.9804,2.8373,2.7304,2.6144,2.5068,2.4389,2.3839,2.3459,2.3066,2.2934,2.3275,2.2994,2.2565,2.1904,2.0854,2.0303,2.0303,1.9077,1.8355,1.7988,1.7825,1.7606,1.7326,1.7326,1.6974,1.6367,1.6367,1.6016,1.5431,1.5431,1.5431,1.5431,1.5431,1.5431,1.5431,1.5431,1.5284,1.5131,0.0,0.0,0.0,0.0,0.0,0.0,0.0,1.6873,1.7122,1.7553,1.792,1.8171,1.8258,1.7628,1.6965,1.6375,0.0,0.0,0.0,0.0,0.0,0.0,0.0,0.0,0.0,1.5739,1.607,1.6748,1.607,1.5931,1.6233,1.655,1.6602,1.6439,1.6627,1.6687,0.0,0.0,0.0,0.0,0.0,0.0,1.8902,0.0,0.0,0.0,0.0,0.0,0.0,0.0,0.0,0.0,0.0,0.0,0.0,0.0,2.3352,2.3965,0.0,2.4653,2.486,2.4931,2.4035,2.3362,2.4133,2.4261,2.4522,2.5343,2.6288,2.7143,2.7695,2.7959,2.8473,2.9603,3.0419,3.0614,2.9985,3.0443,2.9952,2.7819,2.6951,2.6237,2.5388,2.4898,2.4492,2.4139,2.371,2.3483,2.357,2.3406,2.2987,2.2373,2.1451,2.0959,2.1047,1.9669,1.878,1.8511,1.8056,1.7692,1.7326,1.7326,1.6974,1.6367,1.6367,1.6016,0.0,1.5431,1.5431,1.5431,1.5431,1.5431,1.5431,1.5431,1.5299,1.5138,0.0,0.0,0.0,0.0,0.0,0.0,0.0,0.0,1.6886,1.6787,1.746,1.7924,1.792,1.7153,1.6473,1.6105,0.0,0.0,0.0,0.0,0.0,0.0,0.0,0.0,0.0,1.6657,1.7055,1.7432,1.7055,1.6791,1.6833,1.649,1.6721,1.7398,1.6805,1.7013,1.7954,1.7218,1.7028,1.7071,1.7587,1.8249,0.0,0.0,0.0,0.0,0.0,0.0,0.0,0.0,0.0,0.0,0.0,0.0,0.0,0.0,0.0,0.0,0.0,2.4457,2.5171,2.5523,2.5036,2.4687,2.5061,2.5362,0.0,2.5711,2.6151,2.6716,2.7344,2.7846,2.8561,2.9767,3.0771,3.1257,3.0807,3.0636,2.9936,2.8108,2.7148,2.6579,2.6486,2.5751,2.5254,2.5192,2.4528,2.411,2.3841,2.358,2.3416,2.3144,2.3144,2.3232,2.3406,2.2148,2.1239,2.0503,1.933,1.8241,1.7326,1.7304,1.6952,1.6367,1.6345,1.5994,1.5431,1.5431,1.5431,1.5431,1.5431,1.5431,1.5431,1.5431,1.5416,1.535,0.0,0.0,0.0,0.0,0.0,0.0,0.0,0.0,0.0,0.0,1.6678,1.6934,1.7601,1.7678,1.7398,0.0,0.0,0.0,0.0,0.0,0.0,0.0,0.0,0.0,0.0,1.6105,1.6371,1.7047,1.6371,1.6052,1.6071,1.6242,1.6584,1.7055,1.7158,1.7355,1.7648,1.7547,1.7926,1.8512,1.9012,1.9399,0.0,0.0,0.0,0.0,1.9551,1.9779,0.0,0.0,0.0,0.0,0.0,0.0,0.0,0.0,2.4244,2.436,2.4112,0.0,2.6066,2.5677,2.5363,2.5187,0.0,2.5399,2.566,2.6721,2.6992,2.7519,2.8938,2.895,2.9365,3.1323,3.1499,3.1132,3.0407,2.9106,2.8095,2.7883,2.7438,2.6693,2.5647,2.5658,2.544,2.4757,2.4344,2.4196,2.412,2.3764,2.3503,2.3416,2.3416,2.3047,2.2403,2.097,2.0059,1.9405,1.8611,1.7885,1.7318,1.7077,1.6748,1.636,1.6118,1.5796,1.5431,1.5431,1.5431,1.5431,1.5431,1.5431,1.5431,1.5431,1.527,1.5043,0.0,0.0,0.0,0.0,0.0,0.0,0.0,0.0,0.0,0.0,0.0,0.0,0.0,0.0,0.0,0.0,0.0,0.0,0.0,0.0,0.0,0.0,0.0,0.0,1.6329,1.6161,1.6226,1.6653,1.6218,1.5939,1.5805,1.6002,1.6293,1.6679,1.7227,1.7726,1.818,1.8082,1.847,1.9195,1.9253,0.0,0.0,0.0,0.0,0.0,1.9696,1.9717,0.0,1.9849,2.035,2.0961,0.0,0.0,0.0,0.0,2.4764,2.5205,2.5205,2.5581,2.5881,2.5573,2.5652,2.5881,2.5995,0.0,0.0,2.6771,0.0,2.7645,2.88,2.9189,2.988,3.1562,3.1456,3.0845,2.9919,2.8773,2.7883,2.7872,2.7531,2.6889,2.5937,2.5865,2.5595,2.4912,2.4405,2.4206,2.4206,2.3851,2.3677,2.3677,2.3677,2.3396,2.2843,2.1686,2.0683,1.9943,1.8964,1.8072,1.7106,1.6938,1.6601,1.6148,1.5987,1.5731,1.5431,1.5431,1.5431,1.5431,1.5431,1.5431,1.5431,1.5431,1.5313,1.5145,0.0,0.0,0.0,0.0,0.0,0.0,0.0,0.0,0.0,0.0,0.0,0.0,0.0,0.0,0.0,0.0,0.0,0.0,0.0,0.0,0.0,0.0,0.0,1.6171,1.6491,1.6426,1.6345,1.6328,1.6328,1.6148,1.5805,1.5805,1.6028,1.6538,1.7311,1.8145,1.8975,1.8784,1.903,1.9649,1.9357,0.0,0.0,0.0,0.0,0.0,0.0,0.0,0.0,1.9944,2.0116,2.0434,2.1185,0.0,0.0,0.0,0.0,0.0,2.6214,2.577,2.5344,2.5429,2.6025,2.6533,2.6533,0.0,0.0,0.0,0.0,2.7532,2.8348,2.9202,3.0193,3.1449,3.1089,3.0519,2.9792,2.8979,2.8325,2.7866,2.7489,2.7055,2.6517,2.6113,2.5699,2.5264,2.4635,2.4292,2.4292,2.4024,2.3841,2.3841,2.3754,2.3667,2.3667,2.2765,2.1756,2.0567,1.953,1.8284,1.6941,1.6755,1.6426,1.5913,1.5862,1.5687,1.5431,1.5431,1.5431,1.5431,1.5431,1.5431,1.5431,1.5431,1.5431,1.5387,0.0,0.0,0.0,0.0,0.0,0.0,0.0,0.0,0.0,0.0,0.0,0.0,0.0,0.0,0.0,0.0,0.0,0.0,0.0,0.0,0.0,0.0,1.7542,1.7081,1.7081,1.6637,1.6345,1.6328,1.6328,1.6148,1.5805,1.5805,1.6173,1.685,1.7808,1.8536,1.9054,1.9631,2.0193,2.0641,2.0744,0.0,0.0,0.0,0.0,0.0,0.0,0.0,0.0,2.0081,2.0665,2.1199,2.1812,0.0,0.0,0.0,0.0,0.0,2.5071,2.5319,2.5702,2.6189,2.6383,2.6533,2.6533,0.0,0.0,0.0,0.0,0.0,2.9867,2.9993,3.0457,3.2491,3.1444,3.0502,3.1244,2.9091,2.7473,2.745,2.7303,2.6931,2.6061,2.5916,2.5699,2.5264,2.4722,2.4454,2.4454,2.4282,2.411,2.411,2.3493,2.3232,2.3232,2.2501,2.1221,1.9405,1.8765,1.7892,1.6835,1.6301,1.6009,1.5899,1.5621,1.5474,1.5431,1.5431,1.5431,1.5431,1.5431,1.5431,1.5431,1.5431,1.5431,1.5462,0.0,0.0,0.0,0.0,0.0,0.0,0.0,0.0,0.0,0.0,0.0,0.0,0.0,0.0,0.0,0.0,0.0,0.0,0.0,0.0,0.0,1.9292,1.8589,1.7892,1.7324,1.7033,1.6962,1.6883,1.6883,1.6792,1.67,1.6899,1.7307,1.7895,1.8589,1.9313,2.0079,2.0419,2.0907,2.1375,0.0,0.0,0.0,0.0,0.0,0.0,0.0,0.0,0.0,0.0,2.0629,2.0911,2.121,0.0,0.0,0.0,0.0,0.0,2.482,2.4996,2.531,2.585,2.6226,2.6533,2.6533,2.6533,0.0,0.0,0.0,0.0,2.9867,3.0432,3.101,3.2093,3.1536,3.0784,3.015,2.8903,2.7904,2.7357,2.7469,2.7158,2.5989,2.6103,2.5865,2.4933,2.4664,2.454,2.454,2.4368,2.4368,2.4368,2.358,2.2872,2.2325,2.1793,2.0775,1.9216,1.8978,1.8,1.6338,1.6045,1.5818,1.5643,1.5496,1.5431,1.5431,1.5431,1.5431,1.5431,1.5431,1.5431,1.5431,1.5431,1.5597,1.5764,0.0,0.0,0.0,0.0,0.0,0.0,0.0,0.0,0.0,0.0,0.0,0.0,0.0,0.0,0.0,0.0,0.0,0.0,0.0,0.0,2.0006,1.9837,1.9231,1.8528,1.7657,1.7442,1.7373,1.7373,1.7373,1.7373,1.7382,1.7849,1.8337,1.8701,1.9353,2.008,2.0944,2.1021,2.1415,2.1776,0.0,0.0,0.0,0.0,0.0,0.0,0.0,0.0,0.0,0.0,0.0,0.0,0.0,0.0,0.0,2.2877,2.364,2.4431,2.4431,2.4531,2.4757,2.5285,0.0,2.6327,2.6659,2.6753,2.7042,0.0,0.0,2.9038,3.0143,3.1135,3.1801,3.1942,3.1536,3.0769,2.9424,2.8707,2.8081,2.7357,2.7469,2.7189,2.6144,2.6175,2.5823,2.4778,2.4516,2.454,2.454,2.454,2.454,2.454,2.3484,2.2589,2.1872,2.1168,2.0257,1.9162,1.9079,1.8017,1.6085,1.5833,1.5665,1.5431,1.5431,1.5431,1.5431,1.5431,1.5431,1.5431,1.5431,1.5431,1.5431,1.5514,1.5711,1.5896,0.0,0.0,0.0,0.0,0.0,0.0,0.0,0.0,0.0,0.0,0.0,0.0,0.0,0.0,0.0,0.0,0.0,0.0,0.0,0.0,1.9344,1.9806,1.9344,1.8838,1.8269,1.7725,1.7373,1.7373,1.7373,1.7373,1.7382,1.7849,1.8337,1.8775,1.9811,2.046,2.0944,2.1492,2.1731,2.1807,2.1766,0.0,0.0,0.0,0.0,0.0,0.0,0.0,0.0,0.0,0.0,0.0,0.0,0.0,2.2372,2.2372,2.2786,2.319,2.319,2.3653,2.4192,2.4745,2.5272,2.5937,2.6979,2.762,0.0,2.939,3.0055,3.0758,3.1838,3.2541,3.298,3.297,3.1448,3.0422,3.0801,2.8809,2.7357,2.7357,2.691,2.663,2.6527,2.5802,2.5285,2.5192,2.4788,2.454,2.454,2.454,2.454,2.454,2.3202,2.2394,2.2306,2.0997,1.9644,1.8385,1.8153,1.7541,1.6498,1.5767,1.5452,1.5431,1.5431,1.5431,1.5431,1.5431,1.5431,1.5431,1.5431,1.5431,1.5431,1.5922,1.5889,1.5774,0.0,0.0,0.0,0.0,0.0,0.0,0.0,0.0,0.0,0.0,0.0,0.0,0.0,0.0,0.0,0.0,0.0,0.0,0.0,0.0,1.8971,1.9796,1.938,1.9008,1.8808,1.8596,1.8462,1.8462,1.8462,1.8462,1.8472,1.8913,1.9274,1.9394,2.0052,2.0419,2.0592,2.11,2.167,2.2135,2.2435,2.2548,0.0,0.0,0.0,0.0,0.0,0.0,0.0,0.0,2.1493,2.133,0.0,2.0903,2.1732,2.1393,2.192,2.2623,2.2623,2.3301,2.413,2.4682,2.5209,0.0,0.0,2.7708,2.8222,2.8649,2.9741,3.0834,3.1574,3.2453,3.2855,3.2139,3.1005,3.0009,2.9662,2.8017,2.6724,2.6434,2.6496,2.6351,2.5792,2.5678,2.5399,2.484,2.4643,2.454,2.454,2.454,2.4282,2.3851,2.2698,2.1764,2.0968,2.0288,1.9309,1.7969,1.8065,1.7461,1.6163,1.5874,1.5621,1.5431,1.5431,1.5431,1.5431,1.5431,1.5431,1.5431,1.5431,1.559,1.5839,1.6004,1.6332,1.675,0.0,0.0,0.0,0.0,0.0,0.0,0.0,0.0,0.0,0.0,0.0,0.0,0.0,0.0,0.0,0.0,0.0,0.0,1.8382,1.8133,1.8371,1.9349,1.9023,1.892,1.9131,1.9075,1.9075,1.9075,1.9075,1.9075,1.9085,1.9609,1.9827,1.9848,2.0224,2.042,2.0441,2.0979,2.1549,2.2084,2.2783,2.3093,0.0,0.0,0.0,0.0,0.0,0.0,0.0,0.0,2.1631,0.0,0.0,0.0,0.0,2.0832,2.1443,2.2309,2.2309,2.3305,2.4367,2.4746,0.0,0.0,2.7352,2.8109,2.8737,2.9076,3.0193,3.1173,3.1348,3.2026,3.224,3.1298,3.036,2.9447,2.8844,2.7377,2.6237,2.5916,2.6041,2.5906,2.5285,2.5368,2.5202,2.4592,2.454,2.454,2.454,2.454,2.4125,2.3381,2.2389,2.1312,2.013,1.9722,1.8991,1.7771,1.8017,1.7389,1.6085,1.5896,1.5643,1.5431,1.5431,1.5489,1.5584,1.5584,1.5584,1.557,1.5467,1.568,1.6087,1.6252,1.6738,1.7359,0.0,0.0,0.0,0.0,0.0,0.0,0.0,0.0,0.0,0.0,0.0,0.0,0.0,0.0,0.0,0.0,0.0,0.0,1.6956,1.6987,1.744,1.833,1.8382,1.8599,1.9054,1.9131,1.9131,1.9065,1.9075,1.9075,1.9075,1.9599,1.9827,1.9837,2.0213,2.041,2.0481,2.1199,2.1479,2.1592,2.2818,2.3064,2.2798,0.0,0.0,0.0,0.0,0.0,0.0,0.0,2.1958,2.1405,0.0,0.0,0.0,2.0718,2.1443,2.2309,2.2309,2.3636,2.4944,2.4861,0.0,0.0,2.799,2.8976,3.0093,3.116,3.1813,3.2026,3.1486,3.1386,3.1223,3.0696,2.9523,2.8643,2.8632,2.7084,2.5875,2.5865,2.5482,2.5223,2.5223,2.4809,2.454,2.454,2.454,2.454,2.4454,2.454,2.3982,2.2914,2.2225,2.1343,2.0156,1.9504,1.8732,1.7771,1.7771,1.7345,1.6583,1.5752,1.5438,1.5431,1.5438,1.5621,1.5921,1.5913,1.5913,1.5884,1.5555,1.568,1.617,1.6574,1.6976,1.7473,0.0,0.0,0.0,0.0,0.0,0.0,0.0,0.0,0.0,0.0,0.0,0.0,0.0,0.0,0.0,0.0,0.0,0.0,1.6956,1.6987,1.7245,1.7905,1.8216,1.8444,1.8578,1.903,1.903,1.8589,1.8909,1.8899,1.8599,1.9054,1.9282,1.9349,1.9935,2.02,2.0288,2.1297,2.2044,2.2643,2.3727,2.4398,2.4737,0.0,0.0,0.0,0.0,0.0,0.0,0.0,0.0,0.0,0.0,0.0,0.0,2.1416,2.2079,2.3015,2.3464,2.4208,2.5005,2.5329,2.614,2.7005,2.7918,2.8662,0.0,3.062,3.067,3.0583,3.0809,3.1148,3.0923,2.934,2.8857,2.8231,2.6852,2.5968,2.5306,2.4974,2.483,2.4747,2.4747,2.4623,2.454,2.454,2.454,2.4282,2.3851,2.4282,2.3543,2.1472,2.1155,2.0036,1.8153,1.8161,1.7771,1.6808,1.7397,1.7133,1.6093,1.6124,1.5972,1.5782,1.5994,1.614,1.6213,1.6001,1.5913,1.5884,1.5555,1.568,1.6087,1.6252,1.6738,1.7392,0.0,0.0,0.0,0.0,0.0,0.0,0.0,0.0,0.0,0.0,0.0,0.0,0.0,0.0,0.0,0.0,0.0,0.0,0.0,1.6777,1.6984,1.7379,1.8113,1.8827,1.9468,2.0037,1.9938,1.9187,1.9415,1.9383,1.9104,1.9641,1.9901,1.9911,2.0291,2.0484,2.0571,2.1509,2.2226,2.2742,2.3884,2.4703,2.531,0.0,0.0,0.0,0.0,0.0,0.0,0.0,0.0,0.0,0.0,0.0,0.0,2.2046,2.252,2.3227,2.3352,2.4321,2.5331,2.5601,2.6473,2.7278,2.7691,2.8549,2.9591,3.0696,3.0319,2.9955,3.052,3.0696,3.0281,2.873,2.8245,2.7504,2.599,2.5263,2.4861,2.4571,2.454,2.454,2.454,2.454,2.454,2.454,2.4282,2.3856,2.3332,2.3398,2.2427,2.0148,2.0039,1.9134,1.7381,1.7475,1.7306,1.6707,1.7136,1.6913,1.6104,1.6287,1.6272,1.6104,1.6287,1.6367,1.6338,1.5899,1.5796,1.587,1.5416,1.5561,1.6087,1.6252,1.682,1.7392,0.0,0.0,0.0,0.0,0.0,0.0,0.0,0.0,0.0,0.0,0.0,0.0,0.0,0.0,0.0,0.0,0.0,0.0,0.0,0.0,1.656,1.7012,1.8186,1.9555,2.0968,2.159,2.1435,2.0427,2.0316,2.0234,2.016,2.0737,2.1014,2.1123,2.1187,2.1187,2.125,2.1928,2.2175,2.2285,2.3555,2.4356,2.4808,2.5388,0.0,0.0,0.0,0.0,0.0,0.0,0.0,0.0,2.4073,2.3756,2.3257,2.2841,2.3052,2.3276,2.2892,2.4245,2.5738,2.5775,2.7037,2.8148,2.7485,2.8499,2.9842,3.0809,3.0281,2.9792,3.0294,2.9889,2.9241,2.8457,2.7567,2.6603,2.5819,2.4988,2.4498,2.454,2.4467,2.4447,2.4444,2.4467,2.4351,2.4392,2.375,2.3196,2.2695,2.2177,2.0959,1.8937,1.8911,1.8425,1.7368,1.7219,1.7156,1.7187,1.7075,1.6772,1.6411,1.6411,1.6396,1.6367,1.6338,1.6309,1.6235,1.5635,1.5555,1.5767,1.5174,1.5368,1.6041,1.6476,1.6902,1.731,0.0,0.0,0.0,0.0,0.0,0.0,0.0,0.0,0.0,0.0,0.0,0.0,0.0,0.0,0.0,0.0,0.0,0.0,0.0,0.0,1.6633,1.714,1.9033,2.0186,2.0515,2.151,2.1525,2.0427,2.0316,2.03,2.0341,2.0414,2.0694,2.1123,2.1678,2.1854,2.1928,2.2628,2.2871,2.2982,2.4205,2.4476,2.4293,2.5319,2.5409,0.0,0.0,0.0,0.0,0.0,0.0,0.0,2.4219,2.4323,2.4678,2.5093,2.4929,2.4908,2.612,2.5794,2.541,2.6699,2.7582,2.8138,2.7921,2.7871,2.7883,2.8122,2.8323,2.8499,2.8624,2.8064,2.7332,2.6892,2.6153,2.5404,2.4893,2.4314,2.4146,2.4498,2.3919,2.3764,2.4467,2.3898,2.3453,2.3287,2.2725,2.1987,2.0885,2.1212,2.0393,1.8171,1.8396,1.7946,1.6738,1.6632,1.6662,1.6914,1.6906,1.6845,1.6748,1.6748,1.6608,1.636,1.6118,1.587,1.5599,1.5211,1.5087,1.5138,1.4999,1.4984,1.5242,1.5988,1.6252,1.6417,0.0,0.0,0.0,0.0,0.0,0.0,0.0,0.0,0.0,0.0,0.0,0.0,0.0,0.0,0.0,0.0,0.0,0.0,0.0,0.0,0.0,1.877,2.0392,2.1412,2.1716,2.2555,2.2567,2.1716,2.1404,2.1223,2.1205,2.1534,2.1812,2.2063,2.2165,2.2175,2.2235,2.2558,2.29,2.3231,2.4164,2.4687,2.4962,2.554,2.5709,2.5709,2.6008,0.0,0.0,0.0,0.0,0.0,0.0,0.0,2.5867,2.626,2.5882,2.552,2.619,2.5815,2.5556,2.6706,2.7563,2.7971,2.7444,2.7306,2.7205,2.6942,2.7318,2.7795,2.8059,2.7471,2.6697,2.6058,2.5328,2.4627,2.394,2.3888,2.3877,2.3888,2.367,2.3619,2.3867,2.3463,2.3033,2.2575,2.2046,2.1253,1.9978,1.9784,1.8932,1.7416,1.7317,1.6992,1.6354,1.6253,1.6242,1.6526,1.6566,1.6623,1.6623,1.6623,1.6448,1.6133,1.5818,1.5496,1.516,1.4677,1.4575,1.4699,1.4545,1.467,1.4962,1.5619,1.595,1.617,0.0,0.0,0.0,0.0,0.0,0.0,0.0,0.0,0.0,0.0,0.0,0.0,0.0,0.0,0.0,0.0,0.0,0.0,0.0,0.0,0.0,2.0535,2.1715,2.2542,2.3065,2.3602,2.3615,2.3078,2.2585,2.2278,2.2298,2.2625,2.284,2.2915,2.2422,2.2229,2.2286,2.2286,2.2647,2.3234,2.3953,2.4771,2.549,2.5714,2.6054,2.6356,2.643,2.6484,2.6385,2.6049,0.0,0.0,0.0,0.0,2.6795,2.6803,2.6321,2.5738,2.5519,2.5722,2.6078,2.6501,2.7356,2.7871,2.6954,2.7092,2.7268,2.6716,2.6892,2.7281,2.7588,2.6968,2.6139,2.5409,2.4659,2.3928,2.3325,2.3453,2.3525,2.3225,2.3381,2.3432,2.3205,2.3039,2.2645,2.1964,2.1322,2.0456,1.9254,1.8309,1.7318,1.6482,1.6075,1.5942,1.5921,1.5782,1.5811,1.6012,1.607,1.6126,1.6118,1.6067,1.5935,1.5723,1.5343,1.4992,1.4655,1.4114,1.4062,1.4282,1.407,1.434,1.4867,1.54,1.5797,1.6004,0.0,0.0,0.0,0.0,0.0,0.0,0.0,0.0,0.0,0.0,0.0,0.0,0.0,0.0,0.0,0.0,0.0,0.0,1.7886,0.0,0.0,2.0535,2.1712,2.2518,2.3065,2.3153,2.3153,2.3078,2.2585,2.2539,2.2932,2.2101,2.197,2.2397,2.1845,2.1873,2.2315,2.2315,2.2561,2.3151,2.4309,2.4558,2.4367,2.5467,2.5591,2.5252,2.5786,2.5949,2.6004,2.6466,2.665,0.0,0.0,0.0,2.7413,2.69,2.6299,2.6053,2.692,2.7105,2.7119,2.7201,2.7645,2.8059,2.7921,2.7946,2.7846,2.7281,2.6854,2.6452,2.5788,2.4991,2.4391,2.4006,2.3257,2.2877,2.3132,2.2894,2.2801,2.3153,2.2532,2.2377,2.3122,2.2459,2.1673,2.0909,2.0353,1.9265,1.74,1.7146,1.6507,1.5373,1.5288,1.5196,1.5087,1.505,1.5189,1.5506,1.5226,1.5131,1.5123,1.4853,1.4853,1.5043,1.4435,1.3989,1.3682,1.3594,1.3587,1.3653,1.3887,1.4209,1.4646,1.5317,1.5553,1.5597,0.0,0.0,0.0,0.0,0.0,0.0,0.0,0.0,0.0,0.0,0.0,0.0,0.0,0.0,0.0,1.8093,1.8429,1.875,1.9056,1.9305,1.98,2.0649,2.1431,2.197,2.2209,2.2209,2.2533,2.3161,2.2917,0.0,0.0,2.331,2.3076,2.3251,2.2377,2.2252,2.2804,2.2405,2.2569,2.316,2.4375,2.4924,2.5099,2.603,2.6218,2.6042,2.6326,2.6403,2.6341,2.6318,2.6754,2.7044,2.5786,0.0,0.0,0.0,2.625,2.5937,2.6713,2.6921,2.6816,2.6816,2.7708,2.8398,2.7783,2.8122,2.8323,2.7457,2.6714,2.61,2.5431,2.4288,2.3416,2.3338,2.2412,2.188,2.2346,2.2242,2.218,2.2387,2.2283,2.2087,2.1916,2.1572,2.0781,1.937,1.9145,1.8232,1.6618,1.6285,1.5819,1.5087,1.4847,1.4766,1.4677,1.4677,1.475,1.4889,1.456,1.4501,1.467,1.434,1.4275,1.4392,1.4106,1.3799,1.3492,1.3492,1.3601,1.3784,1.3923,1.4289,1.475,1.513,1.5056,1.4908,0.0,0.0,0.0,0.0,0.0,0.0,0.0,0.0,0.0,0.0,0.0,0.0,0.0,0.0,0.0,0.0,1.891,1.9396,1.9747,1.9777,2.0072,2.0665,2.1054,2.1398,2.1703,2.1564,2.2018,2.3157,0.0,0.0,2.472,2.4286,2.4229,0.0,2.2974,2.2656,2.3122,2.2506,2.2554,2.3178,2.441,2.5177,2.5633,2.6474,2.6779,2.6779,2.6779,2.6779,2.6727,2.6111,2.66,2.7173,2.5326,2.567,0.0,0.0,0.0,2.5962,2.6168,2.6451,2.6703,2.6841,2.7908,2.875,2.8072,2.8561,2.875,2.7491,2.6591,2.5728,2.4848,2.3801,2.2927,2.2703,2.1881,2.1414,2.1756,2.1704,2.1631,2.1631,2.1828,2.1599,2.0645,2.0539,1.9918,1.8285,1.8215,1.7569,1.603,1.5631,1.5242,1.4675,1.4369,1.4223,1.4223,1.4223,1.426,1.434,1.4011,1.4033,1.4333,1.4004,1.3857,1.3857,1.3857,1.3718,1.3492,1.3492,1.3638,1.3865,1.3953,1.4326,1.475,1.4662,1.4557,1.4398,0.0,0.0,0.0,0.0,0.0,0.0,0.0,0.0,0.0,0.0,0.0,0.0,1.8881,1.9344,1.9695,1.9695,1.9747,1.9747,1.9798,1.9784,2.0087,2.0693,2.0743,0.0,2.2252,2.1693,2.1931,0.0,0.0,0.0,2.4068,2.4028,2.4628,2.57,2.3365,2.2619,2.3063,2.2432,2.2459,2.3016,2.4365,2.4858,2.4974,2.63,2.6779,2.6779,2.6779,2.6779,2.6727,2.6111,2.6301,2.6543,2.4694,2.5385,2.6576,0.0,0.0,0.0,2.5803,2.6471,2.7369,2.7896,2.8473,2.9063,2.9553,2.9704,2.9172,2.7332,2.6363,2.5238,2.3464,2.3075,2.2777,2.1959,2.1787,2.1776,2.1797,2.1424,2.1155,2.1155,2.0783,2.0309,1.971,1.9637,1.9199,1.8033,1.7884,1.7173,1.537,1.5205,1.4758,1.3623,1.3543,1.3543,1.3543,1.3543,1.3704,1.4004,1.3675,1.3689,1.3996,1.3667,1.3521,1.3521,1.3521,1.3514,1.3492,1.3492,1.3506,1.355,1.3857,1.4194,1.4452,1.4086,1.4131,1.4314,0.0,0.0,0.0,0.0,0.0,0.0,0.0,0.0,0.0,0.0,0.0,0.0,0.0,1.9198,1.9448,1.9747,1.9798,1.9798,1.9798,2.0105,2.0398,2.0617,2.0961,2.1305,2.172,2.1506,2.1943,0.0,0.0,2.3356,2.4501,2.4501,2.4782,2.5134,2.3904,2.3659,2.4201,2.3105,2.2982,2.363,2.453,2.511,2.5546,2.6445,2.6779,2.6727,2.634,2.6705,2.7155,2.5772,2.6497,2.7497,2.4927,2.5057,2.5974,2.5065,2.5598,2.6483,2.6214,2.6703,2.7331,2.7532,2.826,2.8825,2.8464,2.8423,2.8062,2.6388,2.5219,2.4191,2.3185,2.2553,2.2111,2.1883,2.1559,2.1466,2.1766,2.1414,2.1079,2.0979,2.0626,1.99,1.892,1.863,1.7952,1.659,1.6522,1.591,1.4509,1.4419,1.4119,1.3506,1.3492,1.3492,1.3492,1.3492,1.355,1.3667,1.355,1.3558,1.3667,1.355,1.3492,1.3492,1.3492,1.3273,1.2973,1.3346,1.351,1.3586,1.3607,1.3957,1.4344,1.3785,1.338,1.3039,0.0,0.0,0.0,0.0,0.0,0.0,0.0,0.0,0.0,0.0,0.0,0.0,0.0,0.0,1.95,2.0003,2.0055,2.0055,2.0055,2.0547,2.0795,2.061,2.114,2.1465,2.167,2.167,2.2116,0.0,0.0,0.0,0.0,2.4515,2.4646,2.48,2.4183,2.4161,2.4486,2.3351,2.331,2.3949,2.4617,2.5241,2.5865,2.6533,2.6779,2.6727,2.6111,2.6434,2.6828,2.5269,2.5867,2.6955,2.4531,2.4554,2.5358,2.4936,2.5598,2.6533,2.6533,2.6866,2.7318,2.7507,2.8247,2.8687,2.7888,2.7866,2.7436,2.5401,2.4481,2.3722,2.2735,2.2176,2.1807,2.1807,2.1549,2.1455,2.1766,2.1414,2.1005,2.0685,2.0262,1.9464,1.8105,1.773,1.7076,1.5591,1.5507,1.5054,1.4126,1.4037,1.3859,1.3499,1.3492,1.3492,1.3492,1.3492,1.3492,1.3492,1.3492,1.3492,1.3492,1.3492,1.3492,1.3492,1.3492,1.3273,1.29,1.3346,1.3443,1.3299,1.3335,1.3567,1.3698,1.3231,1.2796,1.2363,0.0,0.0,0.0,0.0,0.0,0.0,0.0,0.0,0.0,0.0,0.0,0.0,0.0,0.0,0.0,2.056,2.061,2.061,2.061,2.114,2.1175,2.066,2.1175,2.167,2.2231,2.2231,2.2417,0.0,0.0,0.0,0.0,0.0,2.421,2.4805,2.4152,2.3862,2.3818,2.3178,2.3339,2.3978,2.4646,2.5284,2.5879,2.6533,2.6794,2.6756,2.6139,2.5936,2.5799,2.4505,2.4518,2.4832,2.3535,2.3941,2.482,2.482,2.5598,2.6533,0.0,0.0,0.0,2.7946,2.8486,2.8649,2.7888,2.812,2.7553,2.4436,2.4127,2.3848,2.2116,2.1807,2.1807,2.1807,2.1807,2.1807,2.1807,2.1414,2.0903,2.0222,1.9752,1.882,1.7194,1.7035,1.6514,1.5205,1.5099,1.4793,1.416,1.4065,1.392,1.3492,1.3492,1.3492,1.3492,1.3492,1.3492,1.3492,1.3492,1.3492,1.3492,1.3492,1.3492,1.3492,1.3492,1.3492,1.3419,1.3492,1.3127,1.2594,1.3101,1.3015,1.2449,1.2422,1.2363,1.2283,0.0,0.0,0.0,0.0,0.0,0.0,0.0,0.0,0.0,0.0,0.0,0.0,2.0294,2.0733,2.1028,2.1175,2.1175,2.1175,2.1175,2.167,2.1921,2.1732,2.2217,2.2555,2.2706,2.2706,0.0,0.0,0.0,0.0,0.0,0.0,0.0,0.0,2.3235,2.3163,2.3178,2.3514,2.3992,2.4631,2.5284,2.5923,2.6533,2.6721,2.707,2.7299,2.6245,2.6699,2.744,2.4914,2.5275,2.6514,2.4836,2.4569,2.482,2.482,2.5598,2.6533,2.6533,0.0,0.0,0.0,0.0,0.0,2.6858,2.6333,2.5509,2.3774,2.2934,2.2394,2.1925,2.1807,2.1807,2.1807,2.1807,2.1807,2.1807,2.1303,2.0602,1.9646,1.8828,1.7817,1.6596,1.6219,1.5718,1.508,1.4766,1.4448,1.4074,1.3763,1.3637,1.3492,1.3492,1.3492,1.3492,1.3492,1.3492,1.3492,1.3492,1.3492,1.3492,1.3492,1.3273,1.2826,1.2826,1.2599,1.2224,1.2673,1.235,1.1661,1.1933,1.2109,1.2075,1.1742,1.1602,1.1607,0.0,0.0,0.0,0.0,0.0,0.0,0.0,0.0,0.0,0.0,0.0,0.0,2.0448,2.104,2.137,2.1299,2.1566,2.1718,2.1718,2.2217,2.2417,2.2231,2.2661,2.2888,2.2888,2.3149,0.0,0.0,0.0,0.0,0.0,0.0,0.0,0.0,0.0,0.0,2.2946,2.392,2.4515,2.4843,2.5531,2.6184,2.6779,2.6779,2.7012,2.7155,2.5936,2.6161,2.6713,2.4442,2.4506,2.5499,2.4432,2.428,2.4481,2.4481,2.5096,2.5824,2.6038,2.6101,2.6289,2.708,0.0,0.0,2.5675,2.5097,2.4358,2.2688,2.2201,2.2035,2.1849,2.1807,2.1807,2.1807,2.1807,2.1731,2.1492,2.0857,2.0148,1.9283,1.8698,1.7768,1.6501,1.6166,1.5747,1.4971,1.4784,1.4483,1.3996,1.3806,1.3638,1.3499,1.3492,1.3492,1.3492,1.3492,1.3492,1.3492,1.3492,1.3492,1.3492,1.3273,1.29,1.2599,1.2305,1.1855,1.1335,1.1706,1.1577,1.1153,1.1368,1.1445,1.1376,1.131,1.1262,1.1262,0.0,0.0,0.0,0.0,0.0,0.0,0.0,0.0,0.0,0.0,2.0334,2.0716,2.0595,2.1199,2.1545,2.1414,2.1939,2.2278,2.2278,2.2661,2.2706,2.2324,2.2661,2.2931,2.3004,2.3601,0.0,0.0,0.0,0.0,0.0,0.0,0.0,0.0,0.0,0.0,2.2975,2.4326,2.4863,2.4843,2.5604,2.6257,2.6779,2.6779,2.6823,2.6722,2.5508,2.5157,2.4983,2.3722,2.3178,2.3078,2.3153,2.359,2.4004,2.4004,2.4393,2.4921,2.5385,2.5482,2.5702,2.6771,2.6406,0.0,2.4449,2.4276,2.3742,2.1657,2.188,2.2294,2.188,2.1849,2.188,2.188,2.1727,2.1466,2.0867,2.0264,1.9664,1.8896,1.8736,1.8172,1.6794,1.6598,1.6121,1.5021,1.4881,1.4677,1.407,1.4004,1.385,1.3558,1.3514,1.3492,1.3492,1.3492,1.3492,1.3492,1.3419,1.3419,1.3346,1.2746,1.2452,1.2378,1.1855,1.126,1.0663,1.0663,1.0663,1.0715,1.1201,1.1078,1.0654,1.1048,1.1311,1.123,1.9492,0.0,0.0,0.0,0.0,0.0,0.0,0.0,0.0,0.0,2.1287,2.1862,2.1848,2.2285,2.2603,2.2565,2.268,2.2752,2.2752,2.2843,2.2843,2.2752,2.2843,2.3134,2.3688,2.3833,2.4152,0.0,0.0,0.0,0.0,0.0,0.0,0.0,0.0,0.0,0.0,2.425,2.4785,2.4887,2.6112,2.6663,2.6779,2.6779,2.7099,2.7371,2.6086,2.5982,2.6136,2.4898,2.3891,2.3153,2.3678,2.3904,2.4004,2.4004,2.4393,2.4845,2.4946,2.4809,2.4772,2.499,2.4767,0.0,2.3924,2.3556,2.308,2.2355,2.2076,2.1911,2.1828,2.2118,2.2366,2.2366,2.1461,2.069,2.0411,2.0019,1.9335,1.7938,1.7395,1.683,1.6159,1.5829,1.5567,1.5335,1.5012,1.4772,1.4399,1.4128,1.3953,1.3887,1.3631,1.3492,1.3492,1.3492,1.3492,1.3492,1.3046,1.2746,1.2753,1.215,1.1632,1.1111,1.1037,1.0663,1.0067,1.0067,1.0067,1.01,1.0395,1.0437,1.0417,1.0885,1.1052,1.1085,2.0054,0.0,0.0,0.0,0.0,0.0,0.0,0.0,0.0,2.1274,2.2033,2.2441,2.2126,2.2565,2.2772,2.2497,2.2714,2.2888,2.2888,2.2888,2.2888,2.2888,2.2888,2.3192,2.3876,2.4196,2.4689,0.0,0.0,0.0,0.0,0.0,0.0,0.0,0.0,0.0,0.0,2.438,2.5009,2.54,2.6387,2.6779,2.6779,2.6779,2.6808,2.6688,2.5754,2.5181,2.4788,2.4153,2.3541,2.3128,2.3477,2.3565,2.3565,2.3565,2.3766,2.3916,2.3924,2.3989,2.4034,2.3942,2.3764,0.0,0.0,2.2617,2.2174,2.203,2.1819,2.1727,2.1943,2.1994,2.191,2.163,2.0837,1.9953,1.9244,1.8968,1.8639,1.8058,1.7509,1.6954,1.6271,1.6107,1.5851,1.5438,1.5277,1.5043,1.4721,1.4399,1.415,1.3989,1.3667,1.3492,1.3492,1.3492,1.3346,1.3046,1.2746,1.2452,1.2157,1.1558,1.1111,1.0812,1.0519,1.0143,0.9922,0.9922,0.9922,0.9943,1.0196,1.0363,1.0503,1.0853,1.1063,1.1182,2.0633,0.0,0.0,0.0,0.0,0.0,0.0,0.0,0.0,2.2308,2.2746,2.2922,2.2527,2.2745,2.2743,2.2396,2.2599,2.2815,2.3062,2.296,2.2946,2.3076,2.3192,2.3496,2.4065,2.4689,2.5328,0.0,0.0,0.0,0.0,0.0,0.0,0.0,0.0,0.0,0.0,2.4747,2.5313,2.5836,2.6518,2.6779,2.6779,2.6674,2.634,2.5784,2.5077,2.4105,2.3078,2.3078,2.3078,2.3078,2.3078,2.3078,2.3078,2.3078,2.3078,2.3044,2.2844,2.3018,2.3199,2.3087,2.2828,2.2561,0.0,0.0,0.0,2.1502,2.1512,2.1537,2.1893,2.1582,2.1053,2.0659,2.0019,1.93,1.8324,1.801,1.79,1.8088,1.7668,1.7203,1.671,1.6642,1.6267,1.546,1.5489,1.5379,1.4969,1.4735,1.4435,1.4172,1.385,1.3653,1.3587,1.3513,1.3184,1.2599,1.2378,1.2003,1.1484,1.0887,1.0663,1.0594,1.0143,0.9922,0.9922,0.9922,0.9922,0.9938,1.0143,1.0336,1.053,1.0816,1.1042,1.1139,2.1178,2.1684,0.0,0.0,0.0,0.0,0.0,0.0,2.2951,2.336,2.3478,2.3717,2.4253,2.3465,2.3091,2.363,2.2715,2.2585,2.3702,2.3252,2.3149,2.376,2.4326,2.4612,2.4684,2.5357,2.5995,2.6678,0.0,0.0,0.0,0.0,0.0,0.0,2.4568,2.4612,2.4713,2.5415,2.572,2.5836,2.6518,2.6779,2.6727,2.6233,2.5948,2.5729,2.4637,2.3721,2.3078,2.3078,2.3078,2.3078,2.3078,2.3078,2.3078,2.3078,2.3078,2.2957,2.2383,2.2086,2.1966,2.1782,2.1496,2.1428,2.1793,0.0,2.1502,2.1502,0.0,2.1225,2.1275,0.0,0.0,2.0205,1.9264,1.8631,1.8794,1.8065,1.7468,1.7153,1.6484,1.6351,1.6786,1.6573,1.6161,1.5474,1.5694,1.5716,1.5394,1.5065,1.4874,1.4838,1.4523,1.4216,1.3931,1.3388,1.2941,1.2599,1.1484,1.0962,1.0887,1.0293,0.9997,0.9997,0.9922,0.9922,0.9922,0.9922,0.9922,0.9922,0.9954,0.9976,1.0056,1.0509,1.0692,1.0778,2.1749,2.1722,0.0,0.0,0.0,0.0,0.0,0.0,2.4383,2.4557,2.4585,2.4859,2.5589,2.4835,2.4433,2.4875,2.4384,2.4172,2.4399,2.421,2.4181,2.4428,2.4641,2.4959,2.5371,2.5647,2.6112,2.6779,2.6779,0.0,0.0,0.0,0.0,0.0,2.4863,2.5052,2.54,2.5662,2.601,2.6387,2.6678,2.6779,2.6727,2.6111,2.5259,2.4213,2.3276,2.2576,2.206,2.2325,2.2437,2.2546,2.2809,2.2909,2.2896,2.2384,2.231,2.2187,2.1037,2.0971,2.1073,2.061,2.0532,2.0637,2.0833,2.0653,2.0491,2.0667,0.0,0.0,0.0,0.0,0.0,0.0,1.7927,1.7438,1.7407,1.6764,1.6645,1.7507,1.7076,1.6696,1.6587,1.6287,1.5921,1.546,1.5731,1.5774,1.5445,1.5123,1.486,1.486,1.4633,1.4156,1.3445,1.321,1.2592,1.1558,1.1037,1.0588,1.0293,0.9992,0.9922,0.9922,0.9922,0.9922,0.9922,0.9922,0.9922,0.9922,0.9922,1.0008,1.0164,1.0363,1.0519,1.0665,2.2443,0.0,0.0,0.0,0.0,0.0,0.0,0.0,2.5548,2.5792,2.5808,2.6072,2.6756,2.5949,2.5515,2.5858,2.5416,2.5136,2.5081,2.495,2.4936,2.5081,2.527,2.5502,2.5778,2.5966,2.63,2.6779,0.0,0.0,0.0,0.0,0.0,0.0,2.54,2.5647,2.6054,2.6054,2.6344,2.6779,2.6779,2.6606,2.6258,2.5642,2.4338,2.2845,2.2309,2.184,2.151,2.1802,2.2095,2.2243,2.2189,2.236,2.2396,2.1553,2.1428,2.1302,2.0085,2.018,2.0479,1.9827,1.9909,2.0103,2.0093,1.9867,1.9657,1.9742,1.9727,0.0,0.0,0.0,1.8162,1.7139,0.0,1.6308,1.6124,1.587,1.6203,1.7508,1.7335,1.6982,1.6418,1.633,1.6096,1.5599,1.5862,1.5862,1.5452,1.5204,1.5079,1.5079,1.4853,1.4252,1.3297,1.3138,1.2254,1.0918,1.0697,1.0293,0.9922,0.9922,0.9922,0.9922,0.9922,0.9922,0.9922,0.9922,0.9846,0.9771,0.9841,0.98,0.9652,1.011,1.0401,1.0471,2.3417,2.3537,0.0,0.0,2.3994,0.0,2.5191,2.5681,2.624,2.6936,2.7058,2.7268,2.7876,2.652,2.5841,2.6501,2.4952,2.449,2.5676,2.5183,2.511,2.572,2.6373,2.6431,2.5792,2.6416,2.6765,2.6779,0.0,0.0,0.0,0.0,0.0,0.0,2.6721,2.6736,2.675,2.675,2.6765,2.6779,2.6779,2.6096,2.5009,2.4381,2.3323,2.2147,2.2089,2.203,2.1854,2.1879,2.2223,2.2494,2.1222,2.1216,2.1491,2.0846,2.0655,2.0462,1.9814,1.9892,2.0049,1.9412,1.9555,1.9887,1.9929,1.9775,1.9423,1.8701,1.8415,1.8044,1.7203,1.6362,1.5827,1.5766,1.5564,0.0,0.0,1.5965,1.6352,1.6485,1.6772,1.674,1.6404,1.6923,1.6901,1.5965,1.6184,1.6082,1.546,1.5423,1.5416,1.5416,1.5409,1.4903,1.3913,1.3067,1.2236,1.1177,1.0329,0.9916,0.9922,0.9922,0.9922,0.9922,0.9922,0.9922,0.9922,0.9922,0.9695,0.9322,0.9771,0.9084,0.8047,0.9735,1.0299,1.0179,2.4135,0.0,0.0,2.5264,2.4936,2.5192,2.6675,2.7448,2.8136,2.886,2.8539,2.8464,2.9187,2.8005,2.7349,2.7697,2.6831,2.6341,2.6468,2.6242,2.6228,2.6431,2.6663,2.6678,2.646,2.6663,2.6779,2.6779,2.6779,0.0,0.0,0.0,0.0,0.0,0.0,2.6779,2.6779,2.6779,2.6779,2.6779,2.6645,2.6136,2.5329,2.4901,2.3388,2.1555,2.1453,2.0883,2.0214,2.0852,2.1217,2.146,2.168,2.1634,2.1313,2.0473,2.002,1.9562,1.8921,1.89,1.9022,1.8771,1.8823,1.8854,1.8844,1.8487,1.8036,1.7794,1.7539,1.7162,1.6492,1.6226,1.5913,1.5529,1.5442,1.5431,0.0,1.5177,1.5119,1.5416,1.6066,1.6411,1.6104,1.6265,1.6082,1.5328,1.557,1.5562,1.5131,1.5313,1.5431,1.5431,1.4999,1.4255,1.3281,1.2438,1.1544,1.0595,1.0111,0.9922,0.9922,0.9922,0.9922,0.9922,0.9922,0.9922,0.9841,0.915,0.8846,0.8613,0.8071,0.7536,0.7314,0.8539,0.8562,0.7949,2.5425,2.643,2.7131,2.6503,2.6331,2.6766,2.8246,2.9097,2.9713,3.0182,2.9842,2.9572,2.9605,2.8724,2.8109,2.8015,2.753,2.71,2.6832,2.6779,2.6779,2.6779,2.6779,2.6779,2.6779,2.7012,2.7012,2.6779,2.7012,2.7012,0.0,0.0,0.0,0.0,0.0,2.6779,2.6779,2.6779,2.6779,2.6779,2.6578,2.596,2.5175,2.4894,2.3454,2.1412,2.089,2.0153,1.9528,2.0342,2.0776,2.1054,2.112,2.106,2.0741,1.977,1.9253,1.8854,1.8405,1.8456,1.8604,1.8387,1.8388,1.8389,1.8241,1.7716,1.709,1.6763,1.6386,1.5803,1.4958,1.5204,1.5416,1.4977,1.5109,1.5218,0.0,1.4592,1.4393,1.4853,1.5497,1.5725,1.5371,1.5806,1.5633,1.4489,1.4802,1.4864,1.4211,1.4468,1.4629,1.4664,1.4237,1.3633,1.2773,1.2098,1.1364,1.0412,1.0169,1.0008,0.9922,0.9922,0.9922,0.9916,0.9771,0.9539,0.9301,0.8537,0.7923,0.754,0.6996,0.6458,0.6234,0.7383,0.7149,0.6304,2.7227,2.7634,2.784,2.7445,2.8212,2.913,2.9902,3.0522,3.0898,3.093,3.0898,3.0454,2.9245,2.8638,2.8094,2.7565,2.7049,2.6779,2.6779,2.6779,2.6779,2.6779,2.6779,2.6779,2.6779,2.7403,2.7432,2.6823,2.7432,0.0,0.0,0.0,0.0,0.0,2.6779,2.6779,2.6779,2.6779,2.6779,2.6779,2.6525,2.5659,2.4469,2.4385,2.3263,2.1589,2.0453,1.9927,1.9865,2.043,2.0971,2.1152,1.9794,1.9736,1.9835,1.8664,1.8337,1.8269,1.8269,1.8567,1.8715,1.8174,1.832,1.8465,1.8066,1.7401,1.6651,1.5549,1.4965,1.4214,1.2876,1.3638,1.4377,1.4099,1.4474,1.475,1.4516,1.4069,1.4014,1.4691,1.4776,1.4623,1.4308,1.5492,1.5503,1.3626,1.4119,1.4081,1.3028,1.3054,1.3201,1.3385,1.3398,1.3052,1.2448,1.211,1.1529,1.0632,1.0406,1.0164,0.9922,0.9846,0.9846,0.9846,0.9473,0.8927,0.8304,0.7855,0.7088,0.616,0.6538,0.5848,0.4854,0.6153,0.6073,0.5229,2.8968,3.0558,3.1657,3.1563,3.0884,3.0619,3.1348,3.1154,3.1075,3.1656,3.1267,3.0454,2.9245,2.8638,2.8094,2.7565,2.7049,2.6779,2.6779,2.6779,2.6779,2.6779,2.6779,2.6779,2.6779,2.7403,2.765,2.749,2.765,0.0,2.7476,0.0,0.0,0.0,0.0,2.6779,2.6779,2.6779,2.6712,2.6525,2.5797,2.508,2.4245,2.2799,2.1708,2.0932,2.068,2.0241,1.9865,2.043,2.0971,2.1284,2.0825,2.0384,1.9901,1.9044,1.8462,1.8076,1.8076,1.8154,1.8213,1.8037,1.832,1.8392,1.7703,1.7392,1.6938,1.5733,1.4992,1.4517,1.4293,1.4406,1.4596,1.4992,1.4579,1.4174,1.3873,1.2928,1.2407,1.27,1.2401,1.2826,1.4208,1.451,1.4131,1.2856,1.3607,1.3682,1.2654,1.3741,1.4123,1.3398,1.2881,1.2534,1.2363,1.1607,1.1035,1.0552,1.0079,0.9844,0.9916,0.962,0.9473,0.9392,0.8851,0.8389,0.7855,0.6465,0.577,0.5464,0.4844,0.4382,0.4075,0.446,0.4382,0.4148,3.0992,3.2757,3.4003,3.4003,3.3064,3.2449,3.2854,3.2838,3.2708,3.2514,3.185,3.0828,2.9375,2.8666,2.8012,2.724,2.6974,2.6779,2.6779,2.6779,2.6779,2.6779,2.6779,2.6779,2.6779,2.7104,2.7434,2.7668,2.7434,0.0,2.7668,0.0,0.0,0.0,0.0,2.6779,2.6779,2.6712,2.6418,2.596,2.5398,2.4529,0.0,2.2247,2.1194,2.0286,2.0353,1.9944,1.9552,2.0334,2.0616,2.0556,2.0642,2.0161,1.9507,1.8854,1.8405,1.8144,1.8144,1.8144,1.8094,1.7783,1.8047,1.8093,1.7121,1.6792,1.6358,1.5178,1.4501,1.4003,1.391,1.4209,1.4589,1.4948,1.4363,1.3684,1.3251,1.2201,1.1629,1.2024,1.1822,1.2041,1.324,1.3206,1.2897,1.2302,1.2998,1.3106,1.2221,1.3226,1.3322,1.212,1.186,1.1736,1.1585,1.118,1.0869,1.0638,1.0258,1.0021,0.9916,0.9473,0.9165,0.8851,0.8156,0.7464,0.6619,0.5464,0.4846,0.4613,0.3995,0.3763,0.3763,0.3608,0.3608,0.3763,3.3064,3.4505,3.5461,3.5461,3.4943,3.4457,3.4262,3.4538,3.4295,3.2967,3.2255,3.1182,2.9456,2.8691,2.7929,2.6884,2.6779,2.6779,2.6779,2.6707,2.6692,2.6779,2.6707,2.6692,2.6674,2.6747,2.7102,2.7729,2.7102,0.0,0.0,0.0,0.0,0.0,0.0,2.6779,2.6712,2.6457,2.596,2.5329,2.4968,2.3791,2.2204,2.2026,2.1026,1.9672,1.9672,1.9468,1.9348,2.0318,2.0182,1.9735,2.0026,1.9573,1.8911,1.8395,1.8269,1.8259,1.821,1.819,1.8014,1.7468,1.7589,1.7552,1.6422,1.593,1.5409,1.4228,1.381,1.3375,1.276,1.3535,1.4314,1.427,1.3712,1.3033,1.2399,1.1589,1.1236,1.1895,1.1786,0.0,1.1752,1.1895,1.1945,1.1852,1.2444,1.2369,1.1502,1.2081,1.1736,1.0238,1.0648,1.0757,1.0549,1.0789,1.0714,1.0428,1.0347,1.0084,0.9681,0.9261,0.8798,0.8152,0.7423,0.635,0.518,0.4745,0.4219,0.3763,0.3763,0.3765,0.3684,0.3139,0.3215,0.345,3.4408,3.5963,3.695,3.695,3.6837,3.6351,3.5169,3.3599,3.2255,3.1413,3.1186,3.0446,2.8695,2.8365,2.7929,2.6884,2.6779,2.6779,2.6779,2.6257,2.6199,2.6765,2.6257,2.5992,2.6056,2.6581,2.7145,2.7797,2.7145,2.7385,0.0,0.0,0.0,0.0,0.0,2.6712,2.6525,2.5851,2.5453,2.5078,2.3441,2.2356,2.1531,2.0594,1.977,1.9131,1.9131,1.9648,2.0358,2.0514,2.0724,2.0768,2.0235,1.9573,1.8844,1.8269,1.8076,1.7997,1.7654,1.7556,1.7458,1.6953,1.6949,1.6853,1.5948,1.5665,1.5284,1.3878,1.3741,1.3777,1.3397,1.3414,1.3348,1.3035,1.2091,1.1228,1.0912,1.0427,1.0286,1.0578,1.0242,1.0127,1.0303,1.1317,1.1752,1.1222,1.205,1.1873,1.0395,1.1399,1.1305,0.9827,0.9902,1.0003,1.012,1.0173,0.9872,0.932,0.8997,0.8765,0.8485,0.8221,0.769,0.7041,0.6522,0.5615,0.4496,0.3993,0.3772,0.3763,0.3763,0.353,0.3139,0.2584,0.2193,0.2037,3.6027,3.7145,3.776,3.7388,3.6707,3.5736,3.4311,3.2595,3.1461,3.1477,3.089,3.0069,2.9005,2.8259,2.758,2.6884,2.6779,2.6779,2.6779,2.6155,2.598,2.6312,2.5712,2.5236,2.4956,2.5256,2.5843,2.681,2.6505,2.6959,2.8097,0.0,0.0,2.6779,0.0,2.6418,2.6014,2.5508,2.4881,2.4071,2.2834,2.1773,2.0945,2.0084,1.9456,1.8987,1.8987,1.9504,2.0121,1.9802,1.9598,1.9382,1.9027,1.8591,1.8131,1.7809,1.7842,1.792,1.75,1.7383,1.7227,1.6553,1.6334,1.606,1.4999,1.4698,1.4348,1.3186,1.325,1.3411,1.3127,1.3019,1.2709,1.2197,1.1396,1.081,1.055,1.0036,0.9787,0.9906,0.967,0.9508,0.9605,1.0152,1.0525,1.0606,1.1155,1.0991,0.9948,1.0923,1.0763,0.9087,0.9246,0.9391,0.9443,0.9494,0.9404,0.9109,0.8833,0.851,0.816,0.7569,0.7016,0.6357,0.5695,0.4887,0.4089,0.3832,0.3724,0.3763,0.353,0.3136,0.2507,0.1801,0.1175,0.0784,3.7226,3.7663,3.7728,3.6999,3.5687,3.4311,3.2885,3.1596,3.0872,3.1338,3.0528,2.9674,2.9054,2.8082,2.7327,2.6832,2.6779,2.6721,2.6591,2.585,2.5506,2.5655,2.4973,2.4378,2.4094,2.4112,2.4628,2.5729,2.567,2.6194,2.7234,2.7386,2.7126,2.6512,2.6497,2.6073,2.5287,2.4937,2.4182,2.3191,2.2301,2.1387,2.0502,1.9853,1.936,1.8987,1.8987,1.9198,1.9325,1.8746,1.8315,1.8045,1.784,1.7526,1.7246,1.7246,1.748,1.7646,1.7217,1.71,1.6914,1.6123,1.5685,1.5141,1.4208,1.3729,1.3243,1.2565,1.2553,1.2641,1.2594,1.2303,1.1893,1.1301,1.0803,1.0419,1.017,0.9802,0.9561,0.9435,0.9373,0.9276,0.8965,0.888,0.9082,0.9498,1.002,1.002,0.9535,1.0239,0.9912,0.8378,0.8733,0.8928,0.8935,0.8932,0.8875,0.8788,0.8611,0.8226,0.7735,0.7017,0.6342,0.5603,0.4994,0.4353,0.3734,0.3657,0.3589,0.3448,0.2981,0.235,0.1642,0.0783,0.0157,-0.0392,3.7307,3.6886,3.6254,3.5509,3.4214,3.2853,3.1595,3.0688,2.9974,2.9435,2.9262,2.8826,2.7806,2.7545,2.7327,2.6832,2.6779,2.6533,2.5923,2.4855,2.4478,2.4994,2.395,2.3609,2.4071,2.4092,2.4406,2.509,2.5043,2.5356,2.6044,2.6476,2.6321,2.5666,2.6313,2.5795,2.4394,2.3728,2.3314,2.2987,2.1382,2.0692,2.0502,1.9456,1.9035,1.8987,1.8987,1.8679,1.8162,1.7545,1.7926,1.8501,1.7945,1.7314,1.6797,1.6797,1.6816,1.6748,1.6309,1.6253,1.6074,1.5596,1.4818,1.4119,1.4021,1.3265,1.2505,1.2138,1.1715,1.1586,1.2086,1.1185,1.0305,1.0212,0.9746,0.926,0.91,0.9373,0.9424,0.8857,0.9064,0.8866,0.7834,0.7988,0.7982,0.7509,0.876,0.9228,0.8686,0.8837,0.8621,0.8069,0.8238,0.8422,0.8627,0.8426,0.8247,0.7915,0.7567,0.6923,0.6237,0.6108,0.546,0.445,0.4572,0.4244,0.3565,0.3188,0.2766,0.2347,0.188,0.1097,0.0157,-0.047,-0.1019,-0.1489,3.5031,3.4721,3.4181,3.3151,3.2462,3.162,3.0308,2.9853,2.927,2.8284,2.8143,2.7997,2.7565,2.687,2.641,2.6236,2.5865,2.5416,2.4812,2.3964,2.3478,2.3379,2.2938,2.2625,2.2534,2.3198,2.3599,2.3876,2.4909,2.5481,2.559,2.6243,2.5961,2.4932,2.5131,2.4651,2.3682,2.3314,2.2919,2.2433,2.1136,2.061,2.0502,1.9408,1.8987,1.8987,1.8987,1.8602,1.8038,1.7424,1.7237,1.7153,1.6526,1.6356,1.6328,1.6328,1.6523,1.6631,1.6182,1.6125,1.5897,1.5046,1.4288,1.361,1.3161,1.2538,1.1911,1.178,1.1369,1.105,1.1114,1.0412,0.9682,0.9209,0.904,0.8895,0.8596,0.8674,0.8687,0.8191,0.8122,0.7872,0.7433,0.7381,0.7358,0.7066,0.7969,0.8427,0.8083,0.8248,0.818,0.8012,0.7988,0.8109,0.8398,0.8219,0.8052,0.7906,0.7134,0.6515,0.6148,0.5325,0.4549,0.3874,0.4049,0.3787,0.3247,0.2703,0.231,0.1841,0.0935,0.0155,-0.0614,-0.1091,-0.1646,-0.2195,3.3191,3.2959,3.2416,3.131,3.0926,3.0351,2.9046,2.8778,2.8425,2.7437,2.7276,2.7276,2.7276,2.6586,2.5944,2.5589,2.5185,2.4569,2.3644,2.2976,2.2481,2.2101,2.1885,2.1725,2.1675,2.2439,2.2855,2.2969,2.444,2.4998,2.4657,2.5481,2.5295,2.4151,2.4236,2.379,2.298,2.2859,2.258,2.2101,2.1043,2.061,2.0502,1.9408,1.8881,1.8709,1.8709,1.8201,1.7479,1.709,1.6528,1.5968,1.5517,1.5625,1.5869,1.5869,1.6094,1.6279,1.5957,1.5869,1.5671,1.4721,1.3992,1.3321,1.2634,1.2035,1.156,1.1373,1.0926,1.05,1.0258,0.9777,0.9197,0.8706,0.8687,0.8627,0.8286,0.8203,0.802,0.7562,0.7504,0.7333,0.7026,0.7004,0.7013,0.7027,0.7516,0.778,0.7614,0.7866,0.7992,0.7939,0.7923,0.8012,0.8207,0.7915,0.7741,0.7601,0.6554,0.5979,0.579,0.4549,0.3831,0.3595,0.3532,0.3247,0.2766,0.2086,0.1456,0.0832,-0.0077,-0.0848,-0.1454,-0.187,-0.2275,-0.2668,3.2532,3.1921,3.1189,3.0443,2.9746,2.8935,2.7735,2.753,2.7342,2.6884,2.6779,2.6779,2.6779,2.6779,2.628,2.5085,2.5029,2.4235,2.2446,2.1898,2.155,2.1433,2.0825,2.1039,2.2064,2.2101,2.2315,2.269,2.3406,2.3406,2.2776,2.3936,2.4066,2.3262,2.3991,2.3504,2.2197,2.2197,2.2197,2.2101,2.1043,2.061,2.0502,1.9408,1.8655,1.8093,1.8093,1.7313,1.6312,1.6301,1.5911,1.541,1.541,1.542,1.542,1.542,1.542,1.543,1.542,1.542,1.5245,1.4647,1.3992,1.3321,1.2634,1.2035,1.1435,1.0933,1.0408,0.9912,0.9663,0.9254,0.8929,0.8929,0.8581,0.823,0.8022,0.7912,0.7572,0.6973,0.7451,0.7427,0.6473,0.6907,0.7147,0.7036,0.7285,0.7415,0.724,0.7728,0.7939,0.7768,0.8101,0.8199,0.8016,0.7439,0.7029,0.678,0.5719,0.5006,0.46,0.3832,0.3499,0.3505,0.3147,0.2686,0.2042,0.1346,0.0302,-0.0906,-0.1287,-0.1921,-0.251,-0.2904,-0.3062,-0.3062,2.9387,2.8974,2.8553,2.801,2.8083,2.7971,2.7166,2.7378,2.7297,2.6329,2.6179,2.6056,2.5646,2.554,2.5033,2.3882,2.3338,2.2546,2.1226,2.0985,2.0694,2.0166,2.0464,2.0839,2.1334,2.1844,2.2362,2.286,2.3343,2.3391,2.303,2.3315,2.3142,2.2501,2.2738,2.264,2.2197,2.2197,2.1993,2.1596,2.0899,2.0382,1.9973,1.9263,1.8655,1.8093,1.8093,1.7313,1.6312,1.6312,1.5921,1.541,1.541,1.541,1.541,1.541,1.541,1.541,1.541,1.541,1.5177,1.4103,1.3692,1.3199,1.2104,1.174,1.156,1.1373,1.0661,0.9983,0.9879,0.9196,0.8624,0.8624,0.8356,0.7997,0.7731,0.7391,0.7017,0.6622,0.6705,0.6738,0.6432,0.6688,0.6891,0.7019,0.7475,0.7646,0.7594,0.7748,0.787,0.7931,0.7931,0.7792,0.7357,0.7217,0.6888,0.6227,0.5369,0.4446,0.3635,0.3309,0.3103,0.2983,0.2331,0.176,0.1241,0.0149,-0.0673,-0.1332,-0.1914,-0.2469,-0.284,-0.3042,-0.3528,-0.4224,2.7806,2.7642,2.7401,2.6885,2.7107,2.7095,2.625,2.6422,2.6425,2.5647,2.5536,2.5314,2.4738,2.4625,2.4123,2.2977,2.2322,2.148,2.0296,2.0207,1.9901,1.9226,1.9568,1.9927,2.0192,2.0641,2.1224,2.1827,2.236,2.2666,2.2793,2.2742,2.251,2.2197,2.2197,2.2197,2.2173,2.1981,2.1704,2.1344,2.0598,2.0093,1.972,1.8964,1.8267,1.7699,1.7479,1.681,1.5968,1.5968,1.569,1.541,1.541,1.541,1.541,1.541,1.541,1.541,1.541,1.5235,1.4824,1.3743,1.3321,1.2834,1.1802,1.1622,1.156,1.131,1.0598,0.9958,0.9773,0.9081,0.8517,0.8517,0.8117,0.7722,0.7521,0.7073,0.6618,0.642,0.6481,0.6493,0.6424,0.6643,0.6781,0.6753,0.7253,0.7529,0.7536,0.7711,0.7841,0.7817,0.7533,0.7243,0.6941,0.6536,0.6052,0.5515,0.4675,0.3833,0.3027,0.2926,0.2677,0.217,0.1566,0.0933,0.0216,-0.0657,-0.1319,-0.1829,-0.2414,-0.283,-0.3074,-0.374,-0.438,-0.4919,2.744,2.7487,2.7363,2.675,2.6694,2.6273,2.5145,2.5007,2.4951,2.4951,2.4951,2.4738,2.4131,2.3962,2.3449,2.2411,2.1904,2.1042,1.9703,1.9614,1.921,1.8471,1.8321,1.8452,1.8829,1.8884,1.932,2.0096,2.0741,2.14,2.2061,2.2123,2.2123,2.2123,2.2185,2.2197,2.2161,2.1632,2.138,2.126,2.0145,1.9701,1.955,1.8441,1.7644,1.709,1.6472,1.5911,1.541,1.541,1.541,1.541,1.541,1.541,1.541,1.541,1.541,1.541,1.541,1.4942,1.435,1.3692,1.2948,1.2274,1.174,1.1622,1.1435,1.0933,1.0408,0.9894,0.946,0.8894,0.8452,0.8452,0.7917,0.7456,0.7456,0.6872,0.642,0.642,0.657,0.6607,0.6436,0.6733,0.6806,0.6431,0.6881,0.7175,0.7017,0.7556,0.7757,0.7419,0.6931,0.6694,0.6541,0.5494,0.487,0.4595,0.3768,0.3101,0.2686,0.2619,0.2112,0.1258,0.091,0.007,-0.0984,-0.1267,-0.1788,-0.2415,-0.2855,-0.3092,-0.345,-0.4766,-0.5384,-0.5538,2.5688,2.5619,2.5563,2.5451,2.5451,2.5339,2.5034,2.5007,2.4851,2.435,2.4292,2.406,2.3424,2.2355,2.1618,2.1362,2.1741,2.1281,1.9679,1.9455,1.8881,1.7722,1.7754,1.7924,1.8192,1.8647,1.932,2.0096,2.0344,2.0537,2.0624,2.1135,2.1388,2.1388,2.1925,2.2197,2.2161,2.1632,2.1163,2.0684,1.9582,1.8844,1.8429,1.7689,1.7034,1.6472,1.6368,1.5911,1.541,1.541,1.541,1.541,1.541,1.541,1.541,1.541,1.541,1.541,1.541,1.4942,1.435,1.3692,1.265,1.1802,1.1622,1.1622,1.156,1.1435,1.0661,0.9952,0.9831,0.8882,0.8117,0.8117,0.7531,0.7073,0.7073,0.6683,0.642,0.642,0.632,0.6328,0.6284,0.6279,0.6409,0.6512,0.6978,0.7161,0.7091,0.6763,0.6672,0.6799,0.62,0.5674,0.521,0.4896,0.433,0.3409,0.3004,0.2707,0.2287,0.1546,0.1091,0.077,-0.035,-0.1063,-0.1374,-0.1917,-0.2387,-0.2856,-0.2988,-0.3799,-0.4844,-0.5151,-0.6079,-0.7238,2.5075,2.5007,2.4894,2.4624,2.4567,2.4509,2.4163,2.4163,2.3989,2.3603,2.3543,2.3233,2.2506,2.1738,2.1181,2.0873,2.0698,2.0147,1.901,1.8794,1.8227,1.6955,1.6978,1.7024,1.7151,1.7632,1.8449,1.9573,1.9694,1.9824,2.0096,2.0484,2.0613,2.0666,2.1156,2.131,2.1252,2.0559,2.0075,1.97,1.86,1.7946,1.7644,1.7034,1.6585,1.6244,1.5968,1.569,1.541,1.541,1.541,1.541,1.541,1.5235,1.5001,1.5001,1.5001,1.5001,1.5001,1.4273,1.3433,1.2773,1.2112,1.1622,1.1622,1.1622,1.1498,1.131,1.0471,0.974,0.9539,0.8565,0.7821,0.7859,0.7334,0.6881,0.6881,0.6618,0.6448,0.6534,0.6332,0.6277,0.637,0.6263,0.6179,0.5911,0.6277,0.6251,0.5786,0.5221,0.5384,0.6405,0.5467,0.4794,0.4456,0.3973,0.3385,0.2649,0.2539,0.2285,0.1884,0.1143,0.055,0.0,-0.0973,-0.1548,-0.1897,-0.2192,-0.2558,-0.2933,-0.3571,-0.4385,-0.5304,-0.6133,-0.7007,-0.7859,2.4724,2.4724,2.4553,2.406,2.3884,2.359,2.3005,2.2811,2.2689,2.258,2.2519,2.2261,2.1553,2.1365,2.1037,2.0462,1.9383,1.855,1.8086,1.8054,1.7513,1.6218,1.614,1.6093,1.6017,1.6465,1.7397,1.8854,1.8854,1.9177,1.9781,1.9901,1.9901,1.9944,2.0176,2.0262,2.0125,1.9251,1.8805,1.868,1.7511,1.709,1.6978,1.6358,1.614,1.6083,1.5575,1.541,1.541,1.541,1.541,1.5352,1.5294,1.4883,1.4469,1.435,1.4282,1.4222,1.435,1.3425,1.2328,1.174,1.1659,1.1633,1.1633,1.1607,1.1368,1.0882,1.0027,0.9244,0.8959,0.8103,0.7461,0.7604,0.7132,0.6692,0.6721,0.6432,0.6215,0.6394,0.6142,0.597,0.6208,0.6036,0.5686,0.489,0.5179,0.4953,0.4089,0.3557,0.4068,0.5696,0.4533,0.3859,0.3909,0.2916,0.2352,0.2244,0.2124,0.1833,0.1361,0.0813,0.007,-0.0877,-0.1253,-0.1827,-0.2432,-0.2379,-0.2639,-0.3289,-0.4321,-0.4997,-0.5692,-0.7263,-0.7859,-0.8012,2.3412,2.3412,2.3365,2.3245,2.2798,2.2359,2.2125,2.1542,2.1089,2.0974,2.0974,2.091,2.0782,2.0074,1.9628,1.9497,1.8655,1.8096,1.8004,1.7901,1.7162,1.5614,1.5526,1.5556,1.5508,1.6318,1.7148,1.8134,1.8134,1.8202,1.8337,1.8921,1.9177,1.9177,1.9825,1.9885,1.9519,1.8978,1.8493,1.8041,1.6878,1.6415,1.6358,1.5748,1.5526,1.5526,1.541,1.541,1.541,1.541,1.541,1.5294,1.4824,1.4588,1.441,1.3812,1.3252,1.294,1.3502,1.307,1.2328,1.174,1.1765,1.1963,1.1963,1.1501,1.1075,1.0824,0.9645,0.8599,0.838,0.7611,0.7074,0.726,0.6459,0.5866,0.6006,0.5497,0.5135,0.5215,0.4792,0.449,0.456,0.422,0.39,0.3753,0.4081,0.4215,0.3887,0.3278,0.313,0.3599,0.3056,0.2695,0.2592,0.2425,0.2165,0.1823,0.1815,0.1268,0.0432,-0.007,-0.0717,-0.1504,-0.1972,-0.2449,-0.295,-0.2939,-0.3697,-0.4917,-0.5106,-0.6123,-0.7435,-0.7693,-0.8089,-0.8627,2.3078,2.3078,2.3005,2.2616,2.2298,2.199,2.1502,2.1101,2.076,2.0655,2.0526,2.0268,1.9814,1.9365,1.8977,1.8654,1.8202,1.7935,1.7678,1.7352,1.6807,1.5851,1.5537,1.5635,1.6113,1.6461,1.7148,1.8008,1.8008,1.8008,1.8008,1.8098,1.8111,1.8157,1.8354,1.8318,1.8084,1.7616,1.7286,1.6995,1.6165,1.5806,1.5796,1.5526,1.541,1.541,1.541,1.5177,1.4942,1.4942,1.4706,1.4341,1.4043,1.3734,1.3373,1.307,1.2757,1.2512,1.2474,1.2228,1.1856,1.1303,1.1148,1.1107,1.0896,1.051,1.0122,0.9804,0.8954,0.8275,0.7952,0.7389,0.7009,0.7089,0.6329,0.5741,0.573,0.5261,0.4878,0.4801,0.4394,0.4114,0.4061,0.3702,0.3367,0.3001,0.3115,0.2976,0.2507,0.2195,0.204,0.2118,0.2195,0.2159,0.2009,0.1785,0.1616,0.1432,0.1074,0.0648,0.0146,-0.0648,-0.1389,-0.1964,-0.2432,-0.2977,-0.3461,-0.3764,-0.4412,-0.5193,-0.602,-0.6874,-0.7718,-0.8125,-0.8627,-0.9013,2.2641,2.2739,2.2591,2.2013,2.1835,2.1556,2.088,2.0462,2.0193,2.0009,1.9879,1.9497,1.8844,1.8633,1.8307,1.7784,1.7579,1.7309,1.6997,1.6495,1.6186,1.623,1.5708,1.5722,1.6192,1.6305,1.6778,1.7725,1.7725,1.7745,1.7852,1.7529,1.7334,1.7207,1.7,1.6869,1.6736,1.6389,1.6185,1.6026,1.5584,1.541,1.541,1.541,1.5294,1.5177,1.5177,1.4765,1.4291,1.4291,1.3863,1.3381,1.326,1.2826,1.2389,1.2266,1.2143,1.1958,1.1677,1.1549,1.1354,1.0839,1.0647,1.0429,0.995,0.9592,0.9259,0.8862,0.8355,0.7892,0.7569,0.7258,0.6952,0.6805,0.6202,0.5662,0.5335,0.4936,0.4518,0.426,0.398,0.3693,0.3561,0.3218,0.2786,0.227,0.2198,0.1962,0.1335,0.1335,0.1257,0.11,0.1491,0.1706,0.1667,0.1212,0.0975,0.0956,0.0294,-0.0074,-0.0222,-0.1179,-0.1938,-0.2437,-0.3117,-0.3647,-0.4109,-0.4709,-0.5253,-0.5772,-0.6908,-0.7614,-0.8031,-0.8642,-0.9089,-0.9473,2.125,2.1578,2.1751,2.1267,2.0994,2.0609,1.9834,1.9121,1.8539,1.8202,1.8212,1.8144,1.8076,1.7432,1.7001,1.701,1.6306,1.5877,1.5843,1.516,1.533,1.6617,1.5989,1.534,1.4754,1.5042,1.5822,1.7001,1.7001,1.7166,1.7432,1.7402,1.7168,1.6777,1.6709,1.6507,1.6176,1.6146,1.5841,1.5468,1.541,1.541,1.541,1.541,1.5059,1.4588,1.4588,1.4172,1.3563,1.3563,1.3442,1.313,1.2573,1.2205,1.195,1.1545,1.0975,1.0654,1.1365,1.139,1.1145,1.0607,1.0542,1.0504,1.0056,0.9527,0.8965,0.8758,0.7928,0.7228,0.7073,0.7032,0.6805,0.6369,0.5718,0.5063,0.4549,0.3986,0.3518,0.3151,0.2781,0.2431,0.2105,0.172,0.1409,0.1414,0.1414,0.1335,0.1335,0.1335,0.1021,0.0393,0.1021,0.132,0.1212,0.0681,0.0378,0.0378,-0.0302,-0.0916,-0.148,-0.1904,-0.2446,-0.3049,-0.4029,-0.472,-0.5214,-0.5835,-0.6678,-0.7592,-0.7693,-0.8313,-0.9145,-0.9241,-0.9549,-0.9992,2.1123,2.1472,2.147,2.0444,2.0684,2.0546,1.9111,1.8829,1.8429,1.7539,1.7364,1.7157,1.6664,1.6306,1.6167,1.6167,1.5886,1.5675,1.5675,1.5411,1.5106,1.4727,1.4435,1.4406,1.4615,1.4703,1.516,1.5883,1.5883,1.6093,1.6429,1.61,1.609,1.6309,1.6035,1.582,1.5664,1.5664,1.5566,1.541,1.541,1.5177,1.4824,1.4824,1.4341,1.3674,1.3674,1.3312,1.2765,1.2634,1.2336,1.1973,1.167,1.1219,1.0681,1.0231,0.989,0.979,1.0213,1.0153,0.9952,0.9571,0.9373,0.9181,0.8665,0.8318,0.8067,0.7992,0.7378,0.6836,0.6772,0.6378,0.6044,0.5734,0.5205,0.4735,0.4367,0.3907,0.3346,0.266,0.2471,0.2202,0.1533,0.0998,0.0696,0.0706,0.0314,0.0157,0.0157,0.0157,0.0,-0.0236,-0.0,0.0078,0.0077,-0.0155,-0.0232,-0.0232,-0.1161,-0.1788,-0.2037,-0.2795,-0.3649,-0.4455,-0.487,-0.5493,-0.6318,-0.6934,-0.7395,-0.7859,-0.8475,-0.8937,-0.9397,-0.9997,-1.0519,-1.0962,2.0484,2.0819,2.0808,1.9801,1.996,1.9795,1.8368,1.8085,1.7665,1.676,1.6585,1.6298,1.5745,1.5455,1.5313,1.5313,1.5108,1.5046,1.5046,1.4825,1.4336,1.3601,1.3559,1.3658,1.3958,1.4014,1.4395,1.4908,1.4908,1.5065,1.5278,1.4935,1.493,1.5298,1.5183,1.5118,1.5118,1.5294,1.5294,1.5118,1.505,1.4638,1.4103,1.4043,1.3554,1.2818,1.2818,1.2451,1.1911,1.1779,1.1351,1.0793,1.0737,1.0218,0.956,0.9241,0.9047,0.891,0.9071,0.8904,0.8618,0.8705,0.8549,0.8263,0.7742,0.7391,0.7253,0.7253,0.671,0.6247,0.6247,0.5935,0.5422,0.4844,0.4478,0.4009,0.3318,0.2931,0.2429,0.1642,0.1664,0.1453,0.0689,0.023,0.0,0.0,-0.0393,-0.0628,-0.0628,-0.0546,-0.0701,-0.0942,-0.0857,-0.1013,-0.1178,-0.102,-0.0942,-0.1099,-0.204,-0.2588,-0.2743,-0.3759,-0.4613,-0.5306,-0.5848,-0.6468,-0.7246,-0.7859,-0.8165,-0.8322,-0.9013,-0.9544,-1.0067,-1.0738,-1.1403,-1.2211,1.9065,1.9448,1.9613,1.9147,1.8734,1.8168,1.747,1.6567,1.5948,1.5745,1.5675,1.5675,1.5675,1.5029,1.4609,1.4609,1.3912,1.3499,1.3492,1.2884,1.2856,1.3667,1.3659,1.3325,1.2519,1.284,1.3337,1.4069,1.4069,1.4047,1.4113,1.4113,1.3853,1.3511,1.4231,1.4469,1.4529,1.5118,1.5059,1.4469,1.4273,1.3795,1.3191,1.307,1.2573,1.2012,1.2012,1.1593,1.1059,1.1059,1.0478,0.9773,0.9773,0.9256,0.8722,0.8781,0.8383,0.8069,0.821,0.7738,0.7372,0.8245,0.8253,0.7949,0.7561,0.7022,0.6563,0.6563,0.6089,0.5622,0.5622,0.5544,0.5035,0.3553,0.3306,0.2791,0.106,0.0848,0.0705,0.0078,0.0,-0.0157,-0.055,-0.0628,-0.0628,-0.0628,-0.0628,-0.0628,-0.0628,-0.0537,-0.0842,-0.1566,-0.1533,-0.1839,-0.251,-0.1882,-0.1803,-0.2196,-0.2826,-0.3374,-0.3841,-0.4844,-0.5303,-0.5384,-0.7084,-0.7778,-0.7859,-0.847,-0.8937,-0.9322,-0.9322,-1.0143,-1.1409,-1.1409,-1.2285,-1.3608,1.8539,1.8606,1.8337,1.7499,1.7726,1.766,1.6404,1.6253,1.5973,1.5062,1.4958,1.4848,1.4533,1.4342,1.4193,1.4193,1.3977,1.374,1.3514,1.2884,1.2593,1.2863,1.2477,1.2318,1.2511,1.2394,1.2498,1.2991,1.2758,1.2737,1.298,1.298,1.3169,1.3511,1.3692,1.3743,1.3614,1.3786,1.3674,1.3433,1.3364,1.294,1.2381,1.232,1.1834,1.117,1.117,1.073,1.0161,1.0028,0.9576,0.893,0.8355,0.8037,0.7756,0.7446,0.7328,0.7274,0.7,0.6855,0.6874,0.7095,0.7138,0.6868,0.6321,0.6012,0.5935,0.5935,0.4919,0.4062,0.4062,0.3281,0.234,0.1705,0.1635,0.1405,0.0775,0.0702,0.0548,0.0078,0.0,-0.0157,-0.055,-0.102,-0.1333,-0.1333,-0.1726,-0.1961,-0.1961,-0.1947,-0.2024,-0.2195,-0.28,-0.3263,-0.36,-0.2979,-0.2979,-0.3522,-0.43,-0.4921,-0.5464,-0.5983,-0.6522,-0.7076,-0.7421,-0.8045,-0.8861,-0.9013,-0.962,-1.0368,-1.0663,-1.1329,-1.2131,-1.3091,-1.368,-1.4194,1.7774,1.77,1.7357,1.6639,1.6634,1.6422,1.553,1.5297,1.5001,1.4289,1.4186,1.4061,1.3844,1.3792,1.3843,1.3967,1.3856,1.3514,1.2854,1.2283,1.1957,1.1847,1.1309,1.1404,1.2247,1.1941,1.181,1.1995,1.181,1.1732,1.1841,1.1965,1.2212,1.265,1.2826,1.2818,1.2757,1.3,1.294,1.2573,1.2573,1.2143,1.1531,1.1469,1.0975,1.0288,1.0288,0.9837,0.9256,0.9128,0.8742,0.8096,0.7326,0.7068,0.699,0.6583,0.6468,0.6474,0.611,0.6088,0.6003,0.5463,0.5736,0.6012,0.5309,0.4919,0.4593,0.4241,0.3258,0.2415,0.2316,0.1632,0.0862,0.0392,0.0313,0.0078,-0.0392,-0.047,-0.0783,-0.1408,-0.1486,-0.1721,-0.2271,-0.274,-0.2973,-0.2973,-0.3181,-0.3396,-0.3396,-0.326,-0.324,-0.3273,-0.3839,-0.4208,-0.4329,-0.4183,-0.4353,-0.4849,-0.5258,-0.5685,-0.6211,-0.664,-0.7167,-0.7786,-0.7968,-0.8615,-0.942,-0.9734,-1.0368,-1.1111,-1.1694,-1.2425,-1.323,-1.4186,-1.4768,-1.5196,1.6793,1.6724,1.6585,1.6158,1.5392,1.4832,1.476,1.4057,1.3492,1.3492,1.3419,1.3433,1.3462,1.3389,1.3512,1.3802,1.3509,1.2789,1.1738,1.1348,1.107,1.0893,1.0327,1.0591,1.179,1.1407,1.1166,1.1193,1.1166,1.1009,1.0737,1.0989,1.1178,1.1303,1.1648,1.1826,1.195,1.2512,1.2451,1.1826,1.1772,1.1351,1.0744,1.0555,1.0104,0.9518,0.9454,0.9005,0.8425,0.8361,0.7912,0.7265,0.6564,0.6362,0.6285,0.5983,0.5828,0.5706,0.5316,0.525,0.4891,0.3464,0.4139,0.4996,0.4215,0.3587,0.294,0.2044,0.1306,0.0775,0.0606,0.0385,0.0,-0.0705,-0.094,-0.1331,-0.2272,-0.243,-0.282,-0.3754,-0.3908,-0.4222,-0.4927,-0.5004,-0.5004,-0.5004,-0.4822,-0.4761,-0.4761,-0.4629,-0.4567,-0.4603,-0.4708,-0.4841,-0.4887,-0.5519,-0.5867,-0.6006,-0.5791,-0.6018,-0.6463,-0.7091,-0.7588,-0.7971,-0.8814,-0.9353,-0.9834,-1.0644,-1.1254,-1.1774,-1.2638,-1.3593,-1.4482,-1.4903,-1.5551,-1.6333,1.5816,1.5401,1.4982,1.4625,1.441,1.4201,1.3848,1.3637,1.3492,1.3492,1.3119,1.2917,1.3161,1.2728,1.252,1.2586,1.2283,1.1983,1.1713,1.1242,1.0943,1.0886,1.0327,1.011,1.043,1.0302,1.029,1.0255,1.0037,1.0085,1.0401,0.9761,1.0142,1.124,1.0717,1.0654,1.1045,1.1233,1.1108,1.0926,1.0863,1.0744,1.0561,0.997,0.9646,0.9454,0.8877,0.8296,0.7652,0.7068,0.6741,0.6573,0.6105,0.5854,0.5656,0.4948,0.4833,0.4607,0.3321,0.3069,0.2863,0.1583,0.1459,0.1642,0.1642,0.1465,0.1215,0.1058,0.0379,-0.0228,-0.0227,-0.1386,-0.2426,-0.274,-0.3361,-0.3984,-0.4302,-0.438,-0.4457,-0.4691,-0.4768,-0.4768,-0.5002,-0.5004,-0.5004,-0.5004,-0.5129,-0.5189,-0.5189,-0.5287,-0.5342,-0.5372,-0.6033,-0.6489,-0.667,-0.7078,-0.7097,-0.6674,-0.6805,-0.7368,-0.8311,-0.8374,-0.8877,-0.9824,-1.0102,-1.0743,-1.1745,-1.2171,-1.2865,-1.3753,-1.425,-1.4895,-1.5551,-1.5842,-1.6193,-1.6636,1.4832,1.4688,1.4394,1.3878,1.3983,1.3962,1.3594,1.3273,1.2997,1.292,1.2437,1.2178,1.2124,1.1993,1.1853,1.155,1.1701,1.1544,1.0739,1.0501,1.0249,0.9953,0.9545,0.9268,0.9268,0.9268,0.9397,0.967,0.9327,0.925,0.9506,0.9052,0.9314,1.0078,0.9831,0.9901,1.0225,1.0555,1.0485,1.0104,1.0104,0.9907,0.9588,0.9198,0.8812,0.849,0.8166,0.7654,0.7011,0.634,0.6124,0.6123,0.5576,0.5248,0.486,0.3889,0.3554,0.3134,0.1882,0.1523,0.1275,0.0293,-0.0225,-0.0461,0.0077,0.0154,-0.0153,-0.1042,-0.1586,-0.2066,-0.2492,-0.3383,-0.4068,-0.4146,-0.4535,-0.4999,-0.5532,-0.5681,-0.5963,-0.6572,-0.6783,-0.7061,-0.7447,-0.7447,-0.752,-0.7596,-0.766,-0.7609,-0.7609,-0.7673,-0.7699,-0.7699,-0.8226,-0.8524,-0.8597,-0.9024,-0.9085,-0.8865,-0.8413,-0.8589,-0.923,-0.967,-1.0242,-1.1013,-1.134,-1.1917,-1.2734,-1.3526,-1.4106,-1.4625,-1.5338,-1.5762,-1.6123,-1.6551,-1.7088,-1.759,1.4149,1.4296,1.4194,1.3615,1.3643,1.3672,1.3307,1.2781,1.2364,1.2121,1.1786,1.1382,1.0988,1.1209,1.1186,1.0663,1.1294,1.1135,0.971,0.9755,0.9561,0.8821,0.8575,0.8382,0.8317,0.8317,0.8571,0.9017,0.8678,0.8479,0.8544,0.835,0.8479,0.8737,0.9,0.9198,0.939,0.9977,0.9907,0.9326,0.9326,0.9005,0.849,0.8361,0.7972,0.7456,0.726,0.6843,0.6302,0.5816,0.564,0.5603,0.4871,0.4341,0.3772,0.2665,0.203,0.1533,0.0625,0.0144,-0.0222,-0.0921,-0.1744,-0.2182,-0.135,-0.1215,-0.1672,-0.322,-0.368,-0.4072,-0.498,-0.5372,-0.5616,-0.5616,-0.5767,-0.6146,-0.682,-0.7046,-0.7593,-0.8709,-0.907,-0.9492,-1.0185,-1.0265,-1.034,-1.0484,-1.0363,-1.0309,-1.0309,-1.0195,-1.0161,-1.0161,-1.0359,-1.0423,-1.0423,-1.0729,-1.0988,-1.1194,-1.0347,-0.9947,-1.0009,-1.0842,-1.1545,-1.2046,-1.255,-1.3116,-1.3645,-1.4773,-1.5251,-1.5392,-1.6394,-1.6751,-1.6811,-1.7432,-1.8094,-1.8813,1.3984,1.4021,1.3896,1.3487,1.3051,1.2662,1.2335,1.2009,1.1842,1.1803,1.1236,1.0932,1.0867,1.0398,1.0143,0.9992,1.0362,1.0236,0.9615,0.961,0.9251,0.8399,0.8169,0.7917,0.7657,0.7657,0.7652,0.7717,0.7717,0.7712,0.7832,0.7064,0.7451,0.8672,0.8032,0.8102,0.8619,0.8748,0.8748,0.8619,0.8619,0.8554,0.8425,0.7842,0.7587,0.7326,0.6272,0.5495,0.5043,0.4976,0.473,0.4364,0.3301,0.2772,0.2241,0.0789,0.0285,0.0,-0.0816,-0.1614,-0.2317,-0.2814,-0.363,-0.4266,-0.4099,-0.3951,-0.3987,-0.4336,-0.5017,-0.557,-0.5892,-0.7163,-0.8201,-0.8201,-0.8969,-0.9502,-0.9653,-0.9798,-1.0013,-1.0209,-1.0237,-1.0335,-1.0415,-1.0484,-1.049,-1.049,-1.0605,-1.073,-1.073,-1.0861,-1.0929,-1.0929,-1.1132,-1.1267,-1.1267,-1.1259,-1.1422,-1.1617,-1.2175,-1.2102,-1.1565,-1.1784,-1.248,-1.3616,-1.3899,-1.4546,-1.5475,-1.6419,-1.6793,-1.6932,-1.8162,-1.8633,-1.87,-1.9278,-1.953,-1.9673,1.2925,1.3169,1.3306,1.2949,1.2792,1.2635,1.2289,1.1812,1.1356,1.1204,1.0663,1.0187,0.9908,0.9663,0.9577,0.9717,0.983,0.969,0.9211,0.8948,0.8529,0.7878,0.724,0.6868,0.6736,0.6666,0.6465,0.6264,0.6868,0.7204,0.7265,0.6679,0.6741,0.7451,0.7456,0.7652,0.7972,0.8361,0.8296,0.7912,0.7912,0.7517,0.6859,0.6535,0.6272,0.587,0.515,0.4642,0.4274,0.357,0.3309,0.3048,0.1855,0.1251,0.0801,-0.0291,-0.1092,-0.1809,-0.2291,-0.3171,-0.3961,-0.4031,-0.5066,-0.611,-0.6165,-0.678,-0.7131,-0.631,-0.6915,-0.7738,-0.8272,-0.912,-0.9723,-0.9723,-1.0104,-1.049,-1.0944,-1.1236,-1.1533,-1.1916,-1.1846,-1.1952,-1.2545,-1.2631,-1.291,-1.3541,-1.3678,-1.3757,-1.3901,-1.3988,-1.3996,-1.3996,-1.406,-1.4132,-1.4132,-1.4332,-1.4473,-1.4546,-1.5121,-1.462,-1.3278,-1.3585,-1.4503,-1.5679,-1.58,-1.6298,-1.707,-1.7619,-1.7959,-1.823,-1.8777,-1.9166,-1.9552,-2.0193,-2.0462,-2.0632]}]]